<?xml version='1.0' encoding='UTF-8'?><gpx version="1.1" creator="JPX - https://github.com/jenetics/jpx" xmlns="http://www.topografix.com/GPX/1/1"><trk><trkseg><trkpt lat="45.58152015504492" lon="9.258504737539539"><ele>168.0</ele><time>2026-04-09T07:21:36.999Z</time></trkpt><trkpt lat="45.58154153775879" lon="9.25858965176356"><ele>168.0</ele><time>2026-04-09T07:21:41.998Z</time></trkpt><trkpt lat="45.58157696847158" lon="9.258682189604643"><ele>168.0</ele><time>2026-04-09T07:21:47.998Z</time></trkpt><trkpt lat="45.581611037331804" lon="9.258765661889921"><ele>168.0</ele><time>2026-04-09T07:21:51.998Z</time></trkpt><trkpt lat="45.581654590857184" lon="9.258852724044111"><ele>168.0</ele><time>2026-04-09T07:21:55.998Z</time></trkpt><trkpt lat="45.58169055170511" lon="9.258946235671388"><ele>168.0</ele><time>2026-04-09T07:22:01.998Z</time></trkpt><trkpt lat="45.581709468883965" lon="9.259040824222781"><ele>168.0</ele><time>2026-04-09T07:22:08.998Z</time></trkpt><trkpt lat="45.58172423517771" lon="9.259143461251899"><ele>168.14285714285714</ele><time>2026-04-09T07:22:12.998Z</time></trkpt><trkpt lat="45.58179074607452" lon="9.259216376809842"><ele>168.28571428571428</ele><time>2026-04-09T07:22:19.998Z</time></trkpt><trkpt lat="45.58182070620605" lon="9.25931334337297"><ele>168.42857142857144</ele><time>2026-04-09T07:22:24.998Z</time></trkpt><trkpt lat="45.581852818428494" lon="9.259392834079842"><ele>168.57142857142856</ele><time>2026-04-09T07:22:29.998Z</time></trkpt><trkpt lat="45.581881970532315" lon="9.259483040163305"><ele>168.71428571428572</ele><time>2026-04-09T07:22:33.998Z</time></trkpt><trkpt lat="45.581920117424914" lon="9.259573781006791"><ele>168.85714285714286</ele><time>2026-04-09T07:22:38.998Z</time></trkpt><trkpt lat="45.58199562090425" lon="9.259588178385782"><ele>169.0</ele><time>2026-04-09T07:22:43.998Z</time></trkpt><trkpt lat="45.582066160786106" lon="9.259561711172953"><ele>169.0</ele><time>2026-04-09T07:22:47.998Z</time></trkpt><trkpt lat="45.58213847486868" lon="9.259528310009475"><ele>169.0</ele><time>2026-04-09T07:22:52.998Z</time></trkpt><trkpt lat="45.582200215553605" lon="9.259568978331647"><ele>169.0</ele><time>2026-04-09T07:22:56.998Z</time></trkpt><trkpt lat="45.58223376638002" lon="9.259659034071156"><ele>169.0</ele><time>2026-04-09T07:23:00.998Z</time></trkpt><trkpt lat="45.58227220564272" lon="9.259746967577767"><ele>169.0</ele><time>2026-04-09T07:23:05.998Z</time></trkpt><trkpt lat="45.58229733333841" lon="9.259830170522852"><ele>169.0</ele><time>2026-04-09T07:23:09.998Z</time></trkpt><trkpt lat="45.58232767759717" lon="9.259920325440884"><ele>169.0</ele><time>2026-04-09T07:23:14.998Z</time></trkpt><trkpt lat="45.58236295312296" lon="9.260017178170934"><ele>169.0</ele><time>2026-04-09T07:23:19.998Z</time></trkpt><trkpt lat="45.582396604379745" lon="9.26011433402886"><ele>169.0</ele><time>2026-04-09T07:23:24.998Z</time></trkpt><trkpt lat="45.582409436553405" lon="9.260202874680456"><ele>169.0</ele><time>2026-04-09T07:23:28.998Z</time></trkpt><trkpt lat="45.58242807295411" lon="9.260304506072977"><ele>169.0</ele><time>2026-04-09T07:23:33.997Z</time></trkpt><trkpt lat="45.582452696516015" lon="9.260401796933865"><ele>169.0</ele><time>2026-04-09T07:23:38.997Z</time></trkpt><trkpt lat="45.58247570880469" lon="9.26049312292146"><ele>169.0</ele><time>2026-04-09T07:23:43.997Z</time></trkpt><trkpt lat="45.58250404387031" lon="9.260583110805612"><ele>169.0</ele><time>2026-04-09T07:23:48.997Z</time></trkpt><trkpt lat="45.582528585500405" lon="9.260686366872775"><ele>169.14285714285714</ele><time>2026-04-09T07:23:54.997Z</time></trkpt><trkpt lat="45.58255621701136" lon="9.260776439692801"><ele>169.28571428571428</ele><time>2026-04-09T07:23:59.997Z</time></trkpt><trkpt lat="45.58258405279825" lon="9.260864747953805"><ele>169.42857142857144</ele><time>2026-04-09T07:24:04.997Z</time></trkpt><trkpt lat="45.5826092205104" lon="9.260951728566784"><ele>169.57142857142856</ele><time>2026-04-09T07:24:10.997Z</time></trkpt><trkpt lat="45.582628205232076" lon="9.26105309758951"><ele>169.7142857142857</ele><time>2026-04-09T07:24:15.997Z</time></trkpt><trkpt lat="45.58264855319612" lon="9.261151496702643"><ele>169.85714285714286</ele><time>2026-04-09T07:24:20.997Z</time></trkpt><trkpt lat="45.582689586568414" lon="9.261234898056333"><ele>170.0</ele><time>2026-04-09T07:24:26.997Z</time></trkpt><trkpt lat="45.582751383724016" lon="9.261259098038986"><ele>170.0</ele><time>2026-04-09T07:24:33.997Z</time></trkpt><trkpt lat="45.58281933835237" lon="9.26120788820854"><ele>170.0</ele><time>2026-04-09T07:24:41.997Z</time></trkpt><trkpt lat="45.582871535315434" lon="9.261154989053612"><ele>170.0</ele><time>2026-04-09T07:24:45.997Z</time></trkpt><trkpt lat="45.58292437676869" lon="9.261098312754749"><ele>170.0</ele><time>2026-04-09T07:24:50.997Z</time></trkpt><trkpt lat="45.58296044659013" lon="9.261023903586807"><ele>170.0</ele><time>2026-04-09T07:24:55.997Z</time></trkpt><trkpt lat="45.58303857286657" lon="9.261047854112743"><ele>170.0</ele><time>2026-04-09T07:25:00.997Z</time></trkpt><trkpt lat="45.58310200494781" lon="9.261078038130798"><ele>170.0</ele><time>2026-04-09T07:25:04.997Z</time></trkpt><trkpt lat="45.583170457965075" lon="9.261063702949047"><ele>169.85714285714286</ele><time>2026-04-09T07:25:10.997Z</time></trkpt><trkpt lat="45.583237434839205" lon="9.261033347611182"><ele>169.7142857142857</ele><time>2026-04-09T07:25:15.997Z</time></trkpt><trkpt lat="45.58329629984435" lon="9.260995968779387"><ele>169.57142857142856</ele><time>2026-04-09T07:25:19.997Z</time></trkpt><trkpt lat="45.583359774540156" lon="9.260948476146243"><ele>169.42857142857144</ele><time>2026-04-09T07:25:24.996Z</time></trkpt><trkpt lat="45.583422437989014" lon="9.260924524624228"><ele>169.28571428571428</ele><time>2026-04-09T07:25:29.996Z</time></trkpt><trkpt lat="45.58348849479268" lon="9.260897508539696"><ele>169.14285714285714</ele><time>2026-04-09T07:25:34.996Z</time></trkpt><trkpt lat="45.58355089055076" lon="9.260841075529727"><ele>169.0</ele><time>2026-04-09T07:25:39.996Z</time></trkpt><trkpt lat="45.58360443942184" lon="9.260772289333232"><ele>169.0</ele><time>2026-04-09T07:25:44.996Z</time></trkpt><trkpt lat="45.58367360568864" lon="9.260729724044774"><ele>169.0</ele><time>2026-04-09T07:25:49.996Z</time></trkpt><trkpt lat="45.58373581927552" lon="9.260683597704222"><ele>169.0</ele><time>2026-04-09T07:25:54.996Z</time></trkpt><trkpt lat="45.58380889863626" lon="9.260662778473657"><ele>169.0</ele><time>2026-04-09T07:25:59.996Z</time></trkpt><trkpt lat="45.583880844405606" lon="9.260677238475399"><ele>169.0</ele><time>2026-04-09T07:26:03.996Z</time></trkpt><trkpt lat="45.583948317048275" lon="9.260690412920967"><ele>169.0</ele><time>2026-04-09T07:26:07.996Z</time></trkpt><trkpt lat="45.584023190539" lon="9.26068298851184"><ele>169.0</ele><time>2026-04-09T07:26:11.996Z</time></trkpt><trkpt lat="45.58408749985946" lon="9.260668818953476"><ele>169.0</ele><time>2026-04-09T07:26:17.996Z</time></trkpt><trkpt lat="45.584149817026514" lon="9.260630213592846"><ele>169.0</ele><time>2026-04-09T07:26:22.996Z</time></trkpt><trkpt lat="45.58421737875326" lon="9.26061735182606"><ele>169.0</ele><time>2026-04-09T07:26:33.996Z</time></trkpt><trkpt lat="45.584278971597655" lon="9.260593472971852"><ele>169.0</ele><time>2026-04-09T07:26:39.996Z</time></trkpt><trkpt lat="45.58434294939331" lon="9.260555153097094"><ele>169.0</ele><time>2026-04-09T07:26:45.996Z</time></trkpt><trkpt lat="45.58440476486915" lon="9.260519457149552"><ele>169.0</ele><time>2026-04-09T07:26:50.996Z</time></trkpt><trkpt lat="45.584475817524414" lon="9.260500761952992"><ele>169.0</ele><time>2026-04-09T07:26:57.996Z</time></trkpt><trkpt lat="45.584538288609714" lon="9.260469216619818"><ele>168.57142857142858</ele><time>2026-04-09T07:27:02.996Z</time></trkpt><trkpt lat="45.58460125995816" lon="9.260429232968693"><ele>168.14285714285714</ele><time>2026-04-09T07:27:07.996Z</time></trkpt><trkpt lat="45.5846618967224" lon="9.260389719644802"><ele>167.71428571428572</ele><time>2026-04-09T07:27:12.996Z</time></trkpt><trkpt lat="45.58473347238258" lon="9.260352912302283"><ele>167.28571428571428</ele><time>2026-04-09T07:27:18.995Z</time></trkpt><trkpt lat="45.58480326411886" lon="9.260304731794488"><ele>166.85714285714286</ele><time>2026-04-09T07:27:24.995Z</time></trkpt><trkpt lat="45.58486838174167" lon="9.260270240543283"><ele>166.42857142857142</ele><time>2026-04-09T07:27:29.995Z</time></trkpt><trkpt lat="45.58494108628429" lon="9.260258203136427"><ele>166.0</ele><time>2026-04-09T07:27:36.995Z</time></trkpt><trkpt lat="45.58500199089772" lon="9.260218925886393"><ele>166.0</ele><time>2026-04-09T07:27:41.995Z</time></trkpt><trkpt lat="45.58506442949795" lon="9.26019751918885"><ele>166.0</ele><time>2026-04-09T07:27:47.995Z</time></trkpt><trkpt lat="45.58512755513036" lon="9.260169520273703"><ele>166.0</ele><time>2026-04-09T07:27:51.995Z</time></trkpt><trkpt lat="45.58519452497639" lon="9.260138509210472"><ele>166.0</ele><time>2026-04-09T07:27:56.995Z</time></trkpt><trkpt lat="45.58526431018299" lon="9.26011866290491"><ele>166.0</ele><time>2026-04-09T07:28:01.995Z</time></trkpt><trkpt lat="45.58532756336413" lon="9.260101542539484"><ele>166.0</ele><time>2026-04-09T07:28:06.995Z</time></trkpt><trkpt lat="45.58539064824537" lon="9.260073880098982"><ele>166.0</ele><time>2026-04-09T07:28:14.995Z</time></trkpt><trkpt lat="45.58545235369949" lon="9.260042058663362"><ele>166.28571428571428</ele><time>2026-04-09T07:28:19.995Z</time></trkpt><trkpt lat="45.58552209411639" lon="9.259997232758312"><ele>166.57142857142858</ele><time>2026-04-09T07:28:25.995Z</time></trkpt><trkpt lat="45.58558656601725" lon="9.259967725176645"><ele>166.85714285714286</ele><time>2026-04-09T07:28:30.995Z</time></trkpt><trkpt lat="45.58565401149252" lon="9.25993639952619"><ele>167.14285714285714</ele><time>2026-04-09T07:28:35.995Z</time></trkpt><trkpt lat="45.58571524905029" lon="9.25990116855962"><ele>167.42857142857144</ele><time>2026-04-09T07:28:40.995Z</time></trkpt><trkpt lat="45.58578125853353" lon="9.259866867041199"><ele>167.71428571428572</ele><time>2026-04-09T07:28:45.995Z</time></trkpt><trkpt lat="45.5858482736184" lon="9.259837075798291"><ele>168.0</ele><time>2026-04-09T07:28:50.995Z</time></trkpt><trkpt lat="45.58592646266476" lon="9.259805799175856"><ele>168.14285714285714</ele><time>2026-04-09T07:28:56.995Z</time></trkpt><trkpt lat="45.58599106015173" lon="9.25977238016942"><ele>168.28571428571428</ele><time>2026-04-09T07:29:01.995Z</time></trkpt><trkpt lat="45.586056106970034" lon="9.259760106822233"><ele>168.42857142857144</ele><time>2026-04-09T07:29:06.995Z</time></trkpt><trkpt lat="45.58612518269086" lon="9.259729940247357"><ele>168.57142857142856</ele><time>2026-04-09T07:29:12.994Z</time></trkpt><trkpt lat="45.586198003700396" lon="9.259692769339102"><ele>168.71428571428572</ele><time>2026-04-09T07:29:18.994Z</time></trkpt><trkpt lat="45.58626930229743" lon="9.259668303531347"><ele>168.85714285714286</ele><time>2026-04-09T07:29:23.994Z</time></trkpt><trkpt lat="45.58633507529487" lon="9.25963189449106"><ele>169.0</ele><time>2026-04-09T07:29:28.994Z</time></trkpt><trkpt lat="45.58640243691606" lon="9.259615585305385"><ele>169.0</ele><time>2026-04-09T07:29:33.994Z</time></trkpt><trkpt lat="45.586468661774894" lon="9.259590247324555"><ele>169.0</ele><time>2026-04-09T07:29:38.994Z</time></trkpt><trkpt lat="45.58654051895839" lon="9.259559721265777"><ele>169.0</ele><time>2026-04-09T07:29:44.994Z</time></trkpt><trkpt lat="45.58660129157305" lon="9.25952837172931"><ele>169.0</ele><time>2026-04-09T07:29:49.994Z</time></trkpt><trkpt lat="45.586673305324425" lon="9.259503307559699"><ele>169.0</ele><time>2026-04-09T07:29:54.994Z</time></trkpt><trkpt lat="45.58672972634569" lon="9.25945833770012"><ele>169.0</ele><time>2026-04-09T07:29:59.994Z</time></trkpt><trkpt lat="45.58679603920296" lon="9.259424904234773"><ele>169.0</ele><time>2026-04-09T07:30:05.994Z</time></trkpt><trkpt lat="45.58686481273284" lon="9.259388683201403"><ele>169.0</ele><time>2026-04-09T07:30:10.994Z</time></trkpt><trkpt lat="45.58692375052044" lon="9.259343513350993"><ele>169.0</ele><time>2026-04-09T07:30:15.994Z</time></trkpt><trkpt lat="45.58698168866556" lon="9.25930714175907"><ele>169.0</ele><time>2026-04-09T07:30:20.994Z</time></trkpt><trkpt lat="45.587045216945405" lon="9.25928592567844"><ele>169.0</ele><time>2026-04-09T07:30:25.994Z</time></trkpt><trkpt lat="45.5871169348888" lon="9.259278265767664"><ele>169.0</ele><time>2026-04-09T07:30:31.994Z</time></trkpt><trkpt lat="45.587184161221714" lon="9.259259731086248"><ele>169.0</ele><time>2026-04-09T07:30:37.994Z</time></trkpt><trkpt lat="45.58724729870833" lon="9.259237573161386"><ele>169.0</ele><time>2026-04-09T07:30:42.994Z</time></trkpt><trkpt lat="45.58730744554206" lon="9.259189621037171"><ele>169.14285714285714</ele><time>2026-04-09T07:30:47.994Z</time></trkpt><trkpt lat="45.58737825416134" lon="9.259160821891221"><ele>169.28571428571428</ele><time>2026-04-09T07:30:53.994Z</time></trkpt><trkpt lat="45.58744734229978" lon="9.259138237500771"><ele>169.42857142857144</ele><time>2026-04-09T07:30:58.994Z</time></trkpt><trkpt lat="45.58751061387033" lon="9.259107986121814"><ele>169.57142857142856</ele><time>2026-04-09T07:31:03.993Z</time></trkpt><trkpt lat="45.587584944501856" lon="9.259063532473043"><ele>169.7142857142857</ele><time>2026-04-09T07:31:08.993Z</time></trkpt><trkpt lat="45.58764000457401" lon="9.25901536003931"><ele>169.85714285714286</ele><time>2026-04-09T07:31:13.993Z</time></trkpt><trkpt lat="45.58770996165138" lon="9.258995887419593"><ele>170.0</ele><time>2026-04-09T07:31:18.993Z</time></trkpt><trkpt lat="45.5877629733066" lon="9.258930434591358"><ele>170.0</ele><time>2026-04-09T07:31:24.993Z</time></trkpt><trkpt lat="45.58780210768394" lon="9.258857979988031"><ele>170.0</ele><time>2026-04-09T07:31:29.993Z</time></trkpt><trkpt lat="45.58788014628808" lon="9.258849476393806"><ele>170.0</ele><time>2026-04-09T07:31:34.993Z</time></trkpt><trkpt lat="45.5879398360556" lon="9.258813299467942"><ele>170.0</ele><time>2026-04-09T07:31:39.993Z</time></trkpt><trkpt lat="45.587989917766635" lon="9.25875577817773"><ele>170.0</ele><time>2026-04-09T07:31:44.993Z</time></trkpt><trkpt lat="45.58804925219656" lon="9.258723314728762"><ele>170.0</ele><time>2026-04-09T07:31:49.993Z</time></trkpt><trkpt lat="45.58810836278297" lon="9.25867651117351"><ele>170.0</ele><time>2026-04-09T07:31:54.993Z</time></trkpt><trkpt lat="45.588184193852385" lon="9.258683796301028"><ele>170.14285714285714</ele><time>2026-04-09T07:32:00.993Z</time></trkpt><trkpt lat="45.58825510151397" lon="9.258670372743254"><ele>170.28571428571428</ele><time>2026-04-09T07:32:05.993Z</time></trkpt><trkpt lat="45.58832019775814" lon="9.258633038088536"><ele>170.42857142857142</ele><time>2026-04-09T07:32:10.993Z</time></trkpt><trkpt lat="45.58838331299423" lon="9.25862980235669"><ele>170.57142857142856</ele><time>2026-04-09T07:32:14.993Z</time></trkpt><trkpt lat="45.58844995834689" lon="9.25860779461046"><ele>170.71428571428572</ele><time>2026-04-09T07:32:19.993Z</time></trkpt><trkpt lat="45.58852180977199" lon="9.258589931904538"><ele>170.85714285714283</ele><time>2026-04-09T07:32:25.993Z</time></trkpt><trkpt lat="45.58859313279831" lon="9.258569330922771"><ele>171.0</ele><time>2026-04-09T07:32:30.993Z</time></trkpt><trkpt lat="45.58865962163559" lon="9.258563257509776"><ele>171.14285714285714</ele><time>2026-04-09T07:32:35.993Z</time></trkpt><trkpt lat="45.588729711564056" lon="9.258560026486435"><ele>171.28571428571428</ele><time>2026-04-09T07:32:40.993Z</time></trkpt><trkpt lat="45.58879058528693" lon="9.258528736826436"><ele>171.42857142857144</ele><time>2026-04-09T07:32:44.993Z</time></trkpt><trkpt lat="45.58885705735381" lon="9.258499186276167"><ele>171.57142857142856</ele><time>2026-04-09T07:32:48.993Z</time></trkpt><trkpt lat="45.58892011063852" lon="9.258479527336455"><ele>171.71428571428572</ele><time>2026-04-09T07:32:53.993Z</time></trkpt><trkpt lat="45.58897856641413" lon="9.258440268620893"><ele>171.85714285714286</ele><time>2026-04-09T07:32:58.992Z</time></trkpt><trkpt lat="45.58904151087621" lon="9.258395513869152"><ele>172.0</ele><time>2026-04-09T07:33:03.992Z</time></trkpt><trkpt lat="45.589100290349954" lon="9.258343588006051"><ele>172.00000000000003</ele><time>2026-04-09T07:33:08.992Z</time></trkpt><trkpt lat="45.58915837037355" lon="9.258286643589852"><ele>172.0</ele><time>2026-04-09T07:33:13.992Z</time></trkpt><trkpt lat="45.589203963273114" lon="9.258206004598401"><ele>172.0</ele><time>2026-04-09T07:33:19.992Z</time></trkpt><trkpt lat="45.58923987006158" lon="9.258124490379357"><ele>172.0</ele><time>2026-04-09T07:33:23.992Z</time></trkpt><trkpt lat="45.58928128038246" lon="9.258041432720205"><ele>172.0</ele><time>2026-04-09T07:33:28.992Z</time></trkpt><trkpt lat="45.58931778208188" lon="9.257961094921285"><ele>172.00000000000003</ele><time>2026-04-09T07:33:32.992Z</time></trkpt><trkpt lat="45.589346578200804" lon="9.257877521784183"><ele>172.0</ele><time>2026-04-09T07:33:37.992Z</time></trkpt><trkpt lat="45.589371270747776" lon="9.257790152317392"><ele>171.85714285714286</ele><time>2026-04-09T07:33:42.992Z</time></trkpt><trkpt lat="45.589401522063255" lon="9.257693732859277"><ele>171.71428571428572</ele><time>2026-04-09T07:33:47.992Z</time></trkpt><trkpt lat="45.58941709791587" lon="9.257596171207082"><ele>171.57142857142856</ele><time>2026-04-09T07:33:52.992Z</time></trkpt><trkpt lat="45.58942866026893" lon="9.257490103674483"><ele>171.42857142857144</ele><time>2026-04-09T07:33:58.992Z</time></trkpt><trkpt lat="45.589421032759105" lon="9.257395750829302"><ele>171.28571428571428</ele><time>2026-04-09T07:34:03.992Z</time></trkpt><trkpt lat="45.58941114681066" lon="9.257294486377285"><ele>171.14285714285714</ele><time>2026-04-09T07:34:08.992Z</time></trkpt><trkpt lat="45.589390476960034" lon="9.257205712137068"><ele>171.0</ele><time>2026-04-09T07:34:12.992Z</time></trkpt><trkpt lat="45.58937928870196" lon="9.257115903529535"><ele>170.99999999999997</ele><time>2026-04-09T07:34:17.992Z</time></trkpt><trkpt lat="45.58936087153936" lon="9.257021883327209"><ele>171.0</ele><time>2026-04-09T07:34:22.992Z</time></trkpt><trkpt lat="45.589331202087976" lon="9.256941193711754"><ele>171.0</ele><time>2026-04-09T07:34:27.992Z</time></trkpt><trkpt lat="45.58931229864955" lon="9.256837694649738"><ele>171.0</ele><time>2026-04-09T07:34:32.992Z</time></trkpt><trkpt lat="45.589294960176055" lon="9.256741999277304"><ele>171.0</ele><time>2026-04-09T07:34:37.992Z</time></trkpt><trkpt lat="45.5892778508555" lon="9.25664339575008"><ele>170.99999999999997</ele><time>2026-04-09T07:34:43.992Z</time></trkpt><trkpt lat="45.589255637049966" lon="9.256552514320564"><ele>171.0</ele><time>2026-04-09T07:34:48.991Z</time></trkpt><trkpt lat="45.58923758234571" lon="9.256462836990647"><ele>171.14285714285714</ele><time>2026-04-09T07:34:53.991Z</time></trkpt><trkpt lat="45.589220434555735" lon="9.256361763101976"><ele>171.28571428571428</ele><time>2026-04-09T07:34:59.991Z</time></trkpt><trkpt lat="45.589200863158986" lon="9.2562691403939"><ele>171.42857142857144</ele><time>2026-04-09T07:35:04.991Z</time></trkpt><trkpt lat="45.58918663288166" lon="9.256180445480226"><ele>171.57142857142856</ele><time>2026-04-09T07:35:08.991Z</time></trkpt><trkpt lat="45.58916624939307" lon="9.256083818190437"><ele>171.71428571428572</ele><time>2026-04-09T07:35:13.991Z</time></trkpt><trkpt lat="45.589146686928096" lon="9.255984833811805"><ele>171.85714285714286</ele><time>2026-04-09T07:35:19.991Z</time></trkpt><trkpt lat="45.58913440373993" lon="9.255893765809912"><ele>172.0</ele><time>2026-04-09T07:35:24.991Z</time></trkpt><trkpt lat="45.589113395625525" lon="9.255798628191863"><ele>172.00000000000003</ele><time>2026-04-09T07:35:29.991Z</time></trkpt><trkpt lat="45.589091143398505" lon="9.255711006646315"><ele>172.0</ele><time>2026-04-09T07:35:33.991Z</time></trkpt><trkpt lat="45.589074522969256" lon="9.255618029693974"><ele>172.0</ele><time>2026-04-09T07:35:38.991Z</time></trkpt><trkpt lat="45.589059776007595" lon="9.255529523820256"><ele>172.0</ele><time>2026-04-09T07:35:43.991Z</time></trkpt><trkpt lat="45.58903873855295" lon="9.255443386897745"><ele>172.0</ele><time>2026-04-09T07:35:48.991Z</time></trkpt><trkpt lat="45.58902311957371" lon="9.255347369938207"><ele>172.00000000000003</ele><time>2026-04-09T07:35:52.991Z</time></trkpt><trkpt lat="45.58900393337431" lon="9.255259645402665"><ele>172.0</ele><time>2026-04-09T07:35:57.991Z</time></trkpt><trkpt lat="45.588992530692416" lon="9.25515766601551"><ele>172.2857142857143</ele><time>2026-04-09T07:36:02.991Z</time></trkpt><trkpt lat="45.588972331940276" lon="9.255051449166315"><ele>172.57142857142858</ele><time>2026-04-09T07:36:07.991Z</time></trkpt><trkpt lat="45.58895289017043" lon="9.254948755348083"><ele>172.85714285714286</ele><time>2026-04-09T07:36:12.991Z</time></trkpt><trkpt lat="45.58894285496217" lon="9.254843341296802"><ele>173.14285714285717</ele><time>2026-04-09T07:36:18.991Z</time></trkpt><trkpt lat="45.588927038360865" lon="9.254738449663467"><ele>173.42857142857144</ele><time>2026-04-09T07:36:23.991Z</time></trkpt><trkpt lat="45.5889128867049" lon="9.254642133297626"><ele>173.71428571428572</ele><time>2026-04-09T07:36:28.991Z</time></trkpt><trkpt lat="45.5888978907243" lon="9.254554686531018"><ele>174.0</ele><time>2026-04-09T07:36:33.991Z</time></trkpt><trkpt lat="45.588895007868004" lon="9.254453431749683"><ele>174.14285714285714</ele><time>2026-04-09T07:36:38.991Z</time></trkpt><trkpt lat="45.588895372336154" lon="9.254358758787088"><ele>174.28571428571428</ele><time>2026-04-09T07:36:44.99Z</time></trkpt><trkpt lat="45.58889978804288" lon="9.254261032145898"><ele>174.42857142857144</ele><time>2026-04-09T07:36:50.99Z</time></trkpt><trkpt lat="45.58890940630536" lon="9.254172091409444"><ele>174.57142857142856</ele><time>2026-04-09T07:36:55.99Z</time></trkpt><trkpt lat="45.58891728974026" lon="9.254065881814107"><ele>174.71428571428572</ele><time>2026-04-09T07:37:01.99Z</time></trkpt><trkpt lat="45.58892983424249" lon="9.253966301353383"><ele>174.85714285714286</ele><time>2026-04-09T07:37:06.99Z</time></trkpt><trkpt lat="45.58893042084132" lon="9.2538693079837"><ele>175.0</ele><time>2026-04-09T07:37:11.99Z</time></trkpt><trkpt lat="45.58893421216885" lon="9.253777095505274"><ele>174.71428571428572</ele><time>2026-04-09T07:37:15.99Z</time></trkpt><trkpt lat="45.588953292820534" lon="9.253677980375095"><ele>174.42857142857144</ele><time>2026-04-09T07:37:20.99Z</time></trkpt><trkpt lat="45.588966007731536" lon="9.253589867448031"><ele>174.14285714285714</ele><time>2026-04-09T07:37:24.99Z</time></trkpt><trkpt lat="45.588991342906674" lon="9.25349212016464"><ele>173.85714285714286</ele><time>2026-04-09T07:37:30.99Z</time></trkpt><trkpt lat="45.58902346550833" lon="9.253391359741217"><ele>173.57142857142858</ele><time>2026-04-09T07:37:36.99Z</time></trkpt><trkpt lat="45.5890794661759" lon="9.253347422452757"><ele>173.28571428571428</ele><time>2026-04-09T07:37:42.99Z</time></trkpt><trkpt lat="45.58914908110718" lon="9.253332839543555"><ele>173.0</ele><time>2026-04-09T07:37:50.99Z</time></trkpt><trkpt lat="45.58922027032165" lon="9.253333541579382"><ele>173.0</ele><time>2026-04-09T07:37:56.99Z</time></trkpt><trkpt lat="45.589290510030764" lon="9.25334464163737"><ele>173.0</ele><time>2026-04-09T07:38:02.99Z</time></trkpt><trkpt lat="45.589357901905935" lon="9.253389138942506"><ele>173.0</ele><time>2026-04-09T07:38:06.99Z</time></trkpt><trkpt lat="45.58943409614531" lon="9.253424568077005"><ele>173.0</ele><time>2026-04-09T07:38:11.99Z</time></trkpt><trkpt lat="45.58950124608791" lon="9.253441753015426"><ele>173.0</ele><time>2026-04-09T07:38:15.99Z</time></trkpt><trkpt lat="45.58956400074073" lon="9.253465843373798"><ele>173.0</ele><time>2026-04-09T07:38:19.99Z</time></trkpt><trkpt lat="45.5896317512046" lon="9.25349223379621"><ele>173.0</ele><time>2026-04-09T07:38:24.99Z</time></trkpt><trkpt lat="45.58969955506254" lon="9.253499040678642"><ele>173.28571428571428</ele><time>2026-04-09T07:38:28.99Z</time></trkpt><trkpt lat="45.58976271496185" lon="9.2534792086553"><ele>173.57142857142858</ele><time>2026-04-09T07:38:32.99Z</time></trkpt><trkpt lat="45.58983203315751" lon="9.253497175237749"><ele>173.85714285714286</ele><time>2026-04-09T07:38:36.989Z</time></trkpt><trkpt lat="45.589898628188266" lon="9.253518972537186"><ele>174.14285714285714</ele><time>2026-04-09T07:38:41.989Z</time></trkpt><trkpt lat="45.5899599302268" lon="9.25356535353745"><ele>174.42857142857144</ele><time>2026-04-09T07:38:47.009Z</time></trkpt><trkpt lat="45.590010831827136" lon="9.253629675856901"><ele>174.71428571428572</ele><time>2026-04-09T07:38:51.009Z</time></trkpt><trkpt lat="45.59002061032742" lon="9.253738839412293"><ele>175.0</ele><time>2026-04-09T07:38:56.009Z</time></trkpt><trkpt lat="45.59002328175078" lon="9.253840616488999"><ele>175.0</ele><time>2026-04-09T07:39:01.009Z</time></trkpt><trkpt lat="45.590033963886945" lon="9.253948974656067"><ele>175.0</ele><time>2026-04-09T07:39:06.009Z</time></trkpt><trkpt lat="45.59006128737303" lon="9.254041409234254"><ele>175.0</ele><time>2026-04-09T07:39:10.009Z</time></trkpt><trkpt lat="45.59010846011613" lon="9.254135200653321"><ele>175.0</ele><time>2026-04-09T07:39:15.009Z</time></trkpt><trkpt lat="45.59015595268496" lon="9.254215316329713"><ele>175.0</ele><time>2026-04-09T07:39:20.008Z</time></trkpt><trkpt lat="45.59020215853164" lon="9.254300911582487"><ele>175.0</ele><time>2026-04-09T07:39:24.008Z</time></trkpt><trkpt lat="45.59025219666874" lon="9.25436445050922"><ele>175.0</ele><time>2026-04-09T07:39:35.01Z</time></trkpt><trkpt lat="45.59029668451078" lon="9.254435603425986"><ele>175.14285714285714</ele><time>2026-04-09T07:39:41.009Z</time></trkpt><trkpt lat="45.590365064211674" lon="9.25443729420708"><ele>175.28571428571428</ele><time>2026-04-09T07:39:47.009Z</time></trkpt><trkpt lat="45.59043374410258" lon="9.254479075480333"><ele>175.42857142857144</ele><time>2026-04-09T07:39:53.009Z</time></trkpt><trkpt lat="45.59049724867531" lon="9.25453691590965"><ele>175.57142857142856</ele><time>2026-04-09T07:39:58.009Z</time></trkpt><trkpt lat="45.590560454522496" lon="9.254538987757337"><ele>175.71428571428572</ele><time>2026-04-09T07:40:02.009Z</time></trkpt><trkpt lat="45.59062856792479" lon="9.254522200284255"><ele>175.85714285714286</ele><time>2026-04-09T07:40:08.009Z</time></trkpt><trkpt lat="45.590701948915225" lon="9.25449447311786"><ele>176.0</ele><time>2026-04-09T07:40:14.009Z</time></trkpt><trkpt lat="45.59076044648812" lon="9.254452599857027"><ele>176.0</ele><time>2026-04-09T07:40:55.009Z</time></trkpt><trkpt lat="45.590823061050905" lon="9.25442297426216"><ele>176.0</ele><time>2026-04-09T07:41:00.009Z</time></trkpt><trkpt lat="45.5908770019261" lon="9.254489036105833"><ele>176.0</ele><time>2026-04-09T07:41:06.009Z</time></trkpt><trkpt lat="45.590901807722794" lon="9.25458081305225"><ele>176.0</ele><time>2026-04-09T07:41:11.008Z</time></trkpt><trkpt lat="45.59090895797357" lon="9.254673087462198"><ele>176.0</ele><time>2026-04-09T07:41:15.008Z</time></trkpt><trkpt lat="45.590929510564514" lon="9.254767453626574"><ele>176.0</ele><time>2026-04-09T07:41:20.008Z</time></trkpt><trkpt lat="45.59095243704906" lon="9.254865590231242"><ele>176.0</ele><time>2026-04-09T07:41:25.008Z</time></trkpt><trkpt lat="45.59096358931376" lon="9.25496628125454"><ele>176.14285714285714</ele><time>2026-04-09T07:41:30.008Z</time></trkpt><trkpt lat="45.59096157878776" lon="9.255063803720345"><ele>176.28571428571428</ele><time>2026-04-09T07:41:35.008Z</time></trkpt><trkpt lat="45.59096853150396" lon="9.255164667479237"><ele>176.42857142857144</ele><time>2026-04-09T07:41:40.011Z</time></trkpt><trkpt lat="45.590988807135766" lon="9.255250280899359"><ele>176.57142857142856</ele><time>2026-04-09T07:41:44.011Z</time></trkpt><trkpt lat="45.59099479769545" lon="9.255349309511477"><ele>176.7142857142857</ele><time>2026-04-09T07:41:50.011Z</time></trkpt><trkpt lat="45.59098925221896" lon="9.255447282893115"><ele>176.85714285714286</ele><time>2026-04-09T07:41:55.011Z</time></trkpt><trkpt lat="45.59101001644545" lon="9.255538446180033"><ele>177.0</ele><time>2026-04-09T07:41:59.011Z</time></trkpt><trkpt lat="45.59101343658496" lon="9.255640793360245"><ele>177.0</ele><time>2026-04-09T07:42:05.011Z</time></trkpt><trkpt lat="45.59103275748706" lon="9.255729460288912"><ele>177.0</ele><time>2026-04-09T07:42:09.011Z</time></trkpt><trkpt lat="45.59107496477041" lon="9.25580671765771"><ele>177.0</ele><time>2026-04-09T07:42:12.011Z</time></trkpt><trkpt lat="45.591096668050184" lon="9.255899239859145"><ele>177.0</ele><time>2026-04-09T07:42:17.011Z</time></trkpt><trkpt lat="45.59110600351482" lon="9.256001363771556"><ele>177.0</ele><time>2026-04-09T07:42:21.01Z</time></trkpt><trkpt lat="45.591120923412205" lon="9.25610955208708"><ele>177.0</ele><time>2026-04-09T07:42:27.01Z</time></trkpt><trkpt lat="45.591111868964155" lon="9.256205362681726"><ele>177.0</ele><time>2026-04-09T07:42:31.01Z</time></trkpt><trkpt lat="45.591129991947504" lon="9.256294338726356"><ele>177.0</ele><time>2026-04-09T07:42:35.01Z</time></trkpt><trkpt lat="45.59113111846509" lon="9.256401830676051"><ele>177.0</ele><time>2026-04-09T07:42:40.01Z</time></trkpt><trkpt lat="45.59114596565011" lon="9.256502494634152"><ele>177.0</ele><time>2026-04-09T07:42:46.01Z</time></trkpt><trkpt lat="45.59117516646968" lon="9.256603964443824"><ele>177.0</ele><time>2026-04-09T07:42:51.01Z</time></trkpt><trkpt lat="45.59118811008842" lon="9.256705731260558"><ele>177.0</ele><time>2026-04-09T07:42:56.01Z</time></trkpt><trkpt lat="45.5911999255139" lon="9.25679603488183"><ele>177.0</ele><time>2026-04-09T07:43:00.01Z</time></trkpt><trkpt lat="45.59121721028638" lon="9.256892445402896"><ele>177.0</ele><time>2026-04-09T07:43:04.01Z</time></trkpt><trkpt lat="45.591230987276546" lon="9.256995383339161"><ele>177.0</ele><time>2026-04-09T07:43:10.01Z</time></trkpt><trkpt lat="45.591240428582786" lon="9.257105411586137"><ele>177.0</ele><time>2026-04-09T07:43:15.01Z</time></trkpt><trkpt lat="45.59125229789746" lon="9.257206783667293"><ele>177.0</ele><time>2026-04-09T07:43:20.01Z</time></trkpt><trkpt lat="45.59126477760403" lon="9.257306727972097"><ele>177.0</ele><time>2026-04-09T07:43:25.01Z</time></trkpt><trkpt lat="45.59128448104419" lon="9.257412702897696"><ele>177.0</ele><time>2026-04-09T07:43:30.01Z</time></trkpt><trkpt lat="45.5912852510169" lon="9.257515971150337"><ele>177.0</ele><time>2026-04-09T07:43:35.01Z</time></trkpt><trkpt lat="45.5912921300194" lon="9.257606356812715"><ele>177.0</ele><time>2026-04-09T07:43:39.01Z</time></trkpt><trkpt lat="45.5913098743348" lon="9.257700889650906"><ele>177.0</ele><time>2026-04-09T07:43:45.011Z</time></trkpt><trkpt lat="45.59132166399099" lon="9.257792979294704"><ele>177.0</ele><time>2026-04-09T07:43:48.012Z</time></trkpt><trkpt lat="45.59133800829566" lon="9.25787989692614"><ele>177.0</ele><time>2026-04-09T07:43:53.011Z</time></trkpt><trkpt lat="45.591365149163394" lon="9.25799249234418"><ele>177.0</ele><time>2026-04-09T07:43:59.011Z</time></trkpt><trkpt lat="45.59138926055722" lon="9.258078250241242"><ele>177.0</ele><time>2026-04-09T07:44:03.011Z</time></trkpt><trkpt lat="45.591398926070404" lon="9.258168020761444"><ele>177.0</ele><time>2026-04-09T07:44:08.011Z</time></trkpt><trkpt lat="45.59140828959517" lon="9.258257539545482"><ele>177.0</ele><time>2026-04-09T07:44:12.011Z</time></trkpt><trkpt lat="45.59141116956573" lon="9.258347925625873"><ele>176.71428571428572</ele><time>2026-04-09T07:44:17.011Z</time></trkpt><trkpt lat="45.59142890878495" lon="9.258453455842904"><ele>176.42857142857142</ele><time>2026-04-09T07:44:23.011Z</time></trkpt><trkpt lat="45.59144185831403" lon="9.258552387857726"><ele>176.14285714285714</ele><time>2026-04-09T07:44:28.011Z</time></trkpt><trkpt lat="45.591442575187514" lon="9.258655129912745"><ele>175.85714285714286</ele><time>2026-04-09T07:44:32.011Z</time></trkpt><trkpt lat="45.59144060790998" lon="9.258757220810043"><ele>175.57142857142856</ele><time>2026-04-09T07:44:37.011Z</time></trkpt><trkpt lat="45.591467359889215" lon="9.258864244306118"><ele>175.28571428571428</ele><time>2026-04-09T07:44:42.011Z</time></trkpt><trkpt lat="45.59148794801064" lon="9.258956303568173"><ele>175.0</ele><time>2026-04-09T07:44:47.011Z</time></trkpt><trkpt lat="45.591512315517974" lon="9.25904743165675"><ele>174.85714285714286</ele><time>2026-04-09T07:44:52.011Z</time></trkpt><trkpt lat="45.591536133882684" lon="9.25914759795671"><ele>174.71428571428572</ele><time>2026-04-09T07:44:59.011Z</time></trkpt><trkpt lat="45.59154046342093" lon="9.259241360693997"><ele>174.57142857142856</ele><time>2026-04-09T07:45:03.011Z</time></trkpt><trkpt lat="45.591554170872016" lon="9.259332151647095"><ele>174.42857142857144</ele><time>2026-04-09T07:45:07.011Z</time></trkpt><trkpt lat="45.59155197082089" lon="9.259435614459811"><ele>174.28571428571428</ele><time>2026-04-09T07:45:12.011Z</time></trkpt><trkpt lat="45.59157109490445" lon="9.259531829700798"><ele>174.14285714285714</ele><time>2026-04-09T07:45:17.011Z</time></trkpt><trkpt lat="45.591577202596" lon="9.259629673095793"><ele>174.0</ele><time>2026-04-09T07:45:23.011Z</time></trkpt><trkpt lat="45.59158836288267" lon="9.259737048431356"><ele>174.14285714285714</ele><time>2026-04-09T07:45:28.011Z</time></trkpt><trkpt lat="45.591610660576855" lon="9.25984582904542"><ele>174.28571428571428</ele><time>2026-04-09T07:45:34.011Z</time></trkpt><trkpt lat="45.59163575292609" lon="9.259952889537598"><ele>174.42857142857144</ele><time>2026-04-09T07:45:39.011Z</time></trkpt><trkpt lat="45.59165488926764" lon="9.26003909667969"><ele>174.57142857142856</ele><time>2026-04-09T07:45:44.011Z</time></trkpt><trkpt lat="45.591659219877094" lon="9.260130479520921"><ele>174.71428571428572</ele><time>2026-04-09T07:45:48.011Z</time></trkpt><trkpt lat="45.591682411354874" lon="9.260227763675923"><ele>174.85714285714286</ele><time>2026-04-09T07:45:54.012Z</time></trkpt><trkpt lat="45.59170449066226" lon="9.260313821576618"><ele>175.0</ele><time>2026-04-09T07:45:58.012Z</time></trkpt><trkpt lat="45.59170686426923" lon="9.260419352787876"><ele>175.0</ele><time>2026-04-09T07:46:03.013Z</time></trkpt><trkpt lat="45.591723280720075" lon="9.26052435716442"><ele>175.0</ele><time>2026-04-09T07:46:08.013Z</time></trkpt><trkpt lat="45.59173842225191" lon="9.26062516329621"><ele>175.0</ele><time>2026-04-09T07:46:13.013Z</time></trkpt><trkpt lat="45.59174341387594" lon="9.260724763136302"><ele>175.0</ele><time>2026-04-09T07:46:18.013Z</time></trkpt><trkpt lat="45.591756986672685" lon="9.260817533532112"><ele>175.0</ele><time>2026-04-09T07:46:23.012Z</time></trkpt><trkpt lat="45.59177101395535" lon="9.260921168007265"><ele>175.0</ele><time>2026-04-09T07:46:30.012Z</time></trkpt><trkpt lat="45.591796700599524" lon="9.26101290954344"><ele>175.0</ele><time>2026-04-09T07:46:35.012Z</time></trkpt><trkpt lat="45.59181435081576" lon="9.26111100295664"><ele>174.85714285714286</ele><time>2026-04-09T07:46:40.012Z</time></trkpt><trkpt lat="45.59183299782514" lon="9.261198337157929"><ele>174.71428571428572</ele><time>2026-04-09T07:46:45.012Z</time></trkpt><trkpt lat="45.591842729939906" lon="9.261300247010938"><ele>174.57142857142856</ele><time>2026-04-09T07:46:50.012Z</time></trkpt><trkpt lat="45.5918474918136" lon="9.261392199120339"><ele>174.42857142857144</ele><time>2026-04-09T07:46:54.012Z</time></trkpt><trkpt lat="45.5918729627022" lon="9.261493176465263"><ele>174.28571428571428</ele><time>2026-04-09T07:47:00.012Z</time></trkpt><trkpt lat="45.59187699128524" lon="9.261590742313642"><ele>174.14285714285714</ele><time>2026-04-09T07:47:05.012Z</time></trkpt><trkpt lat="45.591901320164304" lon="9.261695007750815"><ele>174.0</ele><time>2026-04-09T07:47:10.012Z</time></trkpt><trkpt lat="45.59190685100205" lon="9.26179892950684"><ele>174.0</ele><time>2026-04-09T07:47:15.012Z</time></trkpt><trkpt lat="45.591924412266344" lon="9.261904073885214"><ele>174.0</ele><time>2026-04-09T07:47:20.012Z</time></trkpt><trkpt lat="45.59192916239231" lon="9.262002253757686"><ele>174.0</ele><time>2026-04-09T07:47:25.012Z</time></trkpt><trkpt lat="45.59194575710757" lon="9.262099943103665"><ele>174.0</ele><time>2026-04-09T07:47:30.012Z</time></trkpt><trkpt lat="45.59194946061249" lon="9.262206225703395"><ele>174.0</ele><time>2026-04-09T07:47:35.012Z</time></trkpt><trkpt lat="45.59195687477175" lon="9.262310237116415"><ele>174.0</ele><time>2026-04-09T07:47:40.012Z</time></trkpt><trkpt lat="45.59197227788746" lon="9.26241523033101"><ele>174.0</ele><time>2026-04-09T07:47:46.012Z</time></trkpt><trkpt lat="45.591982916022225" lon="9.26252741103584"><ele>174.0</ele><time>2026-04-09T07:47:52.012Z</time></trkpt><trkpt lat="45.5919936248224" lon="9.262631291001597"><ele>174.0</ele><time>2026-04-09T07:47:57.013Z</time></trkpt><trkpt lat="45.59201670103512" lon="9.262730578024705"><ele>174.0</ele><time>2026-04-09T07:48:02.013Z</time></trkpt><trkpt lat="45.592020851167504" lon="9.262840662695954"><ele>174.0</ele><time>2026-04-09T07:48:07.013Z</time></trkpt><trkpt lat="45.59204067394222" lon="9.262934629905507"><ele>174.0</ele><time>2026-04-09T07:48:11.013Z</time></trkpt><trkpt lat="45.592051071769596" lon="9.263024755093776"><ele>174.0</ele><time>2026-04-09T07:48:17.013Z</time></trkpt><trkpt lat="45.592112970778736" lon="9.263045880049251"><ele>174.0</ele><time>2026-04-09T07:48:31.013Z</time></trkpt><trkpt lat="45.59211375591308" lon="9.26313919885105"><ele>174.42857142857142</ele><time>2026-04-09T07:48:38.013Z</time></trkpt><trkpt lat="45.59212666417473" lon="9.263232424731584"><ele>174.85714285714286</ele><time>2026-04-09T07:48:43.013Z</time></trkpt><trkpt lat="45.59212905087673" lon="9.263329716684094"><ele>175.28571428571428</ele><time>2026-04-09T07:48:48.013Z</time></trkpt><trkpt lat="45.592122097763784" lon="9.26343530067613"><ele>175.71428571428572</ele><time>2026-04-09T07:48:53.013Z</time></trkpt><trkpt lat="45.592134522340444" lon="9.263536735590074"><ele>176.14285714285714</ele><time>2026-04-09T07:48:59.013Z</time></trkpt><trkpt lat="45.59215700252271" lon="9.263629539413714"><ele>176.57142857142858</ele><time>2026-04-09T07:49:06.012Z</time></trkpt><trkpt lat="45.59217258946502" lon="9.263732234778741"><ele>177.0</ele><time>2026-04-09T07:49:12.012Z</time></trkpt><trkpt lat="45.59218137480678" lon="9.26382171631303"><ele>177.0</ele><time>2026-04-09T07:49:17.012Z</time></trkpt><trkpt lat="45.592212191222245" lon="9.263907801959423"><ele>177.0</ele><time>2026-04-09T07:49:23.012Z</time></trkpt><trkpt lat="45.59223682784518" lon="9.263993535412087"><ele>177.0</ele><time>2026-04-09T07:49:28.012Z</time></trkpt><trkpt lat="45.592249437610135" lon="9.26409086244967"><ele>177.0</ele><time>2026-04-09T07:49:33.012Z</time></trkpt><trkpt lat="45.59226395501363" lon="9.264183449705023"><ele>177.0</ele><time>2026-04-09T07:49:37.012Z</time></trkpt><trkpt lat="45.592284019071435" lon="9.264290980197512"><ele>177.0</ele><time>2026-04-09T07:49:42.012Z</time></trkpt><trkpt lat="45.5922986626225" lon="9.264383617341064"><ele>177.0</ele><time>2026-04-09T07:49:46.012Z</time></trkpt><trkpt lat="45.59229504250164" lon="9.264495440020363"><ele>176.85714285714286</ele><time>2026-04-09T07:49:51.012Z</time></trkpt><trkpt lat="45.59230913406094" lon="9.264585941933316"><ele>176.7142857142857</ele><time>2026-04-09T07:49:56.012Z</time></trkpt><trkpt lat="45.59233293573435" lon="9.264677034395902"><ele>176.57142857142856</ele><time>2026-04-09T07:50:01.012Z</time></trkpt><trkpt lat="45.59234215422379" lon="9.264782026533469"><ele>176.42857142857144</ele><time>2026-04-09T07:50:06.015Z</time></trkpt><trkpt lat="45.592349468160826" lon="9.264884649802196"><ele>176.28571428571428</ele><time>2026-04-09T07:50:11.014Z</time></trkpt><trkpt lat="45.59236932495621" lon="9.264979054130858"><ele>176.14285714285714</ele><time>2026-04-09T07:50:16.014Z</time></trkpt><trkpt lat="45.59238468426109" lon="9.26507903334802"><ele>176.0</ele><time>2026-04-09T07:50:21.014Z</time></trkpt><trkpt lat="45.59239643867082" lon="9.265184102455782"><ele>176.0</ele><time>2026-04-09T07:50:26.014Z</time></trkpt><trkpt lat="45.59239629957355" lon="9.265276310987542"><ele>176.0</ele><time>2026-04-09T07:50:31.014Z</time></trkpt><trkpt lat="45.59240137377623" lon="9.26536985832121"><ele>176.0</ele><time>2026-04-09T07:50:37.014Z</time></trkpt><trkpt lat="45.59240618632762" lon="9.265476280213656"><ele>176.0</ele><time>2026-04-09T07:50:43.014Z</time></trkpt><trkpt lat="45.592417301322456" lon="9.265575652008117"><ele>176.0</ele><time>2026-04-09T07:50:48.014Z</time></trkpt><trkpt lat="45.592434794036926" lon="9.265680937191695"><ele>176.0</ele><time>2026-04-09T07:50:53.014Z</time></trkpt><trkpt lat="45.592455941255665" lon="9.265770526394206"><ele>176.0</ele><time>2026-04-09T07:50:57.014Z</time></trkpt><trkpt lat="45.59249143101326" lon="9.265866683268328"><ele>176.0</ele><time>2026-04-09T07:51:01.014Z</time></trkpt><trkpt lat="45.592520442655946" lon="9.265953304525434"><ele>176.0</ele><time>2026-04-09T07:51:06.014Z</time></trkpt><trkpt lat="45.59253912128373" lon="9.266049809943254"><ele>176.0</ele><time>2026-04-09T07:51:12.014Z</time></trkpt><trkpt lat="45.59255112803388" lon="9.266155103894672"><ele>176.0</ele><time>2026-04-09T07:51:18.014Z</time></trkpt><trkpt lat="45.59255431512442" lon="9.26626358328805"><ele>176.0</ele><time>2026-04-09T07:51:23.014Z</time></trkpt><trkpt lat="45.59256102038977" lon="9.266379960710225"><ele>176.0</ele><time>2026-04-09T07:51:28.014Z</time></trkpt><trkpt lat="45.59257470168258" lon="9.266482906688283"><ele>176.0</ele><time>2026-04-09T07:51:34.014Z</time></trkpt><trkpt lat="45.59257312704375" lon="9.266574889692654"><ele>176.0</ele><time>2026-04-09T07:51:39.014Z</time></trkpt><trkpt lat="45.59257952377032" lon="9.266670332385544"><ele>176.0</ele><time>2026-04-09T07:51:44.014Z</time></trkpt><trkpt lat="45.592588666655516" lon="9.266772252663845"><ele>176.0</ele><time>2026-04-09T07:51:48.014Z</time></trkpt><trkpt lat="45.5925964382267" lon="9.266864624357963"><ele>176.0</ele><time>2026-04-09T07:51:53.013Z</time></trkpt><trkpt lat="45.59260936809764" lon="9.266963295456124"><ele>176.0</ele><time>2026-04-09T07:51:59.013Z</time></trkpt><trkpt lat="45.59261734018713" lon="9.267059668968667"><ele>176.0</ele><time>2026-04-09T07:52:05.013Z</time></trkpt><trkpt lat="45.5926428149648" lon="9.267154611626653"><ele>176.0</ele><time>2026-04-09T07:52:11.016Z</time></trkpt><trkpt lat="45.59266084830957" lon="9.267243309499197"><ele>176.14285714285714</ele><time>2026-04-09T07:52:16.015Z</time></trkpt><trkpt lat="45.59267144066172" lon="9.26733359700792"><ele>176.28571428571428</ele><time>2026-04-09T07:52:21.016Z</time></trkpt><trkpt lat="45.592688979500615" lon="9.26742185847929"><ele>176.42857142857144</ele><time>2026-04-09T07:52:25.015Z</time></trkpt><trkpt lat="45.592685755733406" lon="9.267516212178371"><ele>176.57142857142856</ele><time>2026-04-09T07:52:29.015Z</time></trkpt><trkpt lat="45.5926967584307" lon="9.267605179032827"><ele>176.7142857142857</ele><time>2026-04-09T07:52:34.015Z</time></trkpt><trkpt lat="45.592729483501294" lon="9.267700493018683"><ele>176.85714285714286</ele><time>2026-04-09T07:52:40.015Z</time></trkpt><trkpt lat="45.5927431484597" lon="9.26780141870996"><ele>177.0</ele><time>2026-04-09T07:52:44.015Z</time></trkpt><trkpt lat="45.59276023406906" lon="9.267892300139476"><ele>177.0</ele><time>2026-04-09T07:52:48.015Z</time></trkpt><trkpt lat="45.5927805231338" lon="9.267983763344354"><ele>177.0</ele><time>2026-04-09T07:52:53.015Z</time></trkpt><trkpt lat="45.59278644447179" lon="9.268091189818051"><ele>177.0</ele><time>2026-04-09T07:52:57.015Z</time></trkpt><trkpt lat="45.59280830405152" lon="9.268185479739316"><ele>177.0</ele><time>2026-04-09T07:53:02.015Z</time></trkpt><trkpt lat="45.592824458483605" lon="9.268284130639099"><ele>177.0</ele><time>2026-04-09T07:53:07.015Z</time></trkpt><trkpt lat="45.592831473075904" lon="9.26838029002993"><ele>177.0</ele><time>2026-04-09T07:53:12.015Z</time></trkpt><trkpt lat="45.592847779157104" lon="9.268483780464887"><ele>177.0</ele><time>2026-04-09T07:53:17.015Z</time></trkpt><trkpt lat="45.5928569698639" lon="9.26857515566961"><ele>177.2857142857143</ele><time>2026-04-09T07:53:23.015Z</time></trkpt><trkpt lat="45.59285463706091" lon="9.26867334517653"><ele>177.57142857142856</ele><time>2026-04-09T07:53:28.015Z</time></trkpt><trkpt lat="45.592874478480326" lon="9.268783223837632"><ele>177.85714285714286</ele><time>2026-04-09T07:53:33.015Z</time></trkpt><trkpt lat="45.592898223607214" lon="9.268870620821001"><ele>178.14285714285717</ele><time>2026-04-09T07:53:37.015Z</time></trkpt><trkpt lat="45.592906530054194" lon="9.268963782594046"><ele>178.42857142857144</ele><time>2026-04-09T07:53:43.015Z</time></trkpt><trkpt lat="45.59290636827515" lon="9.269071133124012"><ele>178.71428571428572</ele><time>2026-04-09T07:53:48.015Z</time></trkpt><trkpt lat="45.59291746455752" lon="9.26916365060955"><ele>179.0</ele><time>2026-04-09T07:53:54.015Z</time></trkpt><trkpt lat="45.59293526056412" lon="9.269264940986169"><ele>179.00000000000003</ele><time>2026-04-09T07:53:58.015Z</time></trkpt><trkpt lat="45.59294304447681" lon="9.269372577994382"><ele>179.0</ele><time>2026-04-09T07:54:03.015Z</time></trkpt><trkpt lat="45.59295874350221" lon="9.269465168189667"><ele>179.0</ele><time>2026-04-09T07:54:08.015Z</time></trkpt><trkpt lat="45.59297480691198" lon="9.269564189526802"><ele>179.0</ele><time>2026-04-09T07:54:13.014Z</time></trkpt><trkpt lat="45.59298753649618" lon="9.269659074008477"><ele>179.0</ele><time>2026-04-09T07:54:18.016Z</time></trkpt><trkpt lat="45.593002884133426" lon="9.269765035321043"><ele>179.00000000000003</ele><time>2026-04-09T07:54:24.016Z</time></trkpt><trkpt lat="45.593030459494585" lon="9.269858801884848"><ele>179.0</ele><time>2026-04-09T07:54:30.016Z</time></trkpt><trkpt lat="45.59304412550864" lon="9.269965836790316"><ele>179.14285714285717</ele><time>2026-04-09T07:54:35.016Z</time></trkpt><trkpt lat="45.593065684831174" lon="9.270062654766217"><ele>179.28571428571428</ele><time>2026-04-09T07:54:40.016Z</time></trkpt><trkpt lat="45.59307135728354" lon="9.270156576924226"><ele>179.42857142857144</ele><time>2026-04-09T07:54:44.016Z</time></trkpt><trkpt lat="45.593090387421725" lon="9.27025208000136"><ele>179.57142857142858</ele><time>2026-04-09T07:54:49.016Z</time></trkpt><trkpt lat="45.59310858945514" lon="9.270338885533393"><ele>179.71428571428572</ele><time>2026-04-09T07:54:53.016Z</time></trkpt><trkpt lat="45.593127163716076" lon="9.270438802569398"><ele>179.85714285714286</ele><time>2026-04-09T07:54:58.016Z</time></trkpt><trkpt lat="45.59312571180202" lon="9.270544118251046"><ele>180.0</ele><time>2026-04-09T07:55:03.016Z</time></trkpt><trkpt lat="45.593140056080216" lon="9.27065552968365"><ele>180.0</ele><time>2026-04-09T07:55:09.016Z</time></trkpt><trkpt lat="45.59314718455869" lon="9.270759492381826"><ele>180.0</ele><time>2026-04-09T07:55:14.016Z</time></trkpt><trkpt lat="45.59315116469656" lon="9.270868430410529"><ele>180.0</ele><time>2026-04-09T07:55:20.015Z</time></trkpt><trkpt lat="45.59315577678757" lon="9.270965467763164"><ele>180.0</ele><time>2026-04-09T07:55:25.015Z</time></trkpt><trkpt lat="45.59317450459688" lon="9.271070763428641"><ele>180.0</ele><time>2026-04-09T07:55:30.015Z</time></trkpt><trkpt lat="45.59319533254484" lon="9.271173773078395"><ele>180.0</ele><time>2026-04-09T07:55:35.015Z</time></trkpt><trkpt lat="45.59320668924082" lon="9.271262562133803"><ele>180.0</ele><time>2026-04-09T07:55:40.015Z</time></trkpt><trkpt lat="45.59320841885737" lon="9.271366756115876"><ele>179.42857142857142</ele><time>2026-04-09T07:55:46.015Z</time></trkpt><trkpt lat="45.5932550084955" lon="9.271453468185294"><ele>178.85714285714286</ele><time>2026-04-09T07:55:52.015Z</time></trkpt><trkpt lat="45.59331240767642" lon="9.271506437966117"><ele>178.28571428571428</ele><time>2026-04-09T07:55:57.015Z</time></trkpt><trkpt lat="45.59336507760356" lon="9.271602408082236"><ele>177.71428571428572</ele><time>2026-04-09T07:56:48.017Z</time></trkpt><trkpt lat="45.59339472416792" lon="9.271690337708536"><ele>177.14285714285714</ele><time>2026-04-09T07:56:55.017Z</time></trkpt><trkpt lat="45.59345622118644" lon="9.271724872252918"><ele>176.57142857142858</ele><time>2026-04-09T07:57:05.017Z</time></trkpt><trkpt lat="45.593512755699585" lon="9.271679702184363"><ele>176.0</ele><time>2026-04-09T07:57:10.017Z</time></trkpt><trkpt lat="45.59356074632195" lon="9.271602688732415"><ele>176.0</ele><time>2026-04-09T07:57:16.016Z</time></trkpt><trkpt lat="45.59363798778167" lon="9.271579825123306"><ele>176.0</ele><time>2026-04-09T07:57:21.016Z</time></trkpt><trkpt lat="45.59369321428959" lon="9.271526788055573"><ele>176.0</ele><time>2026-04-09T07:57:27.016Z</time></trkpt><trkpt lat="45.59376686898536" lon="9.271496988365467"><ele>176.0</ele><time>2026-04-09T07:57:33.016Z</time></trkpt><trkpt lat="45.59382765119365" lon="9.271464344768267"><ele>176.0</ele><time>2026-04-09T07:57:37.016Z</time></trkpt><trkpt lat="45.593893551689774" lon="9.271437723343661"><ele>176.0</ele><time>2026-04-09T07:57:42.016Z</time></trkpt><trkpt lat="45.59396349800907" lon="9.27141002235098"><ele>176.0</ele><time>2026-04-09T07:57:47.016Z</time></trkpt><trkpt lat="45.59404084966102" lon="9.271413752317969"><ele>176.28571428571428</ele><time>2026-04-09T07:57:52.016Z</time></trkpt><trkpt lat="45.5941049992015" lon="9.271401610837952"><ele>176.57142857142856</ele><time>2026-04-09T07:57:57.016Z</time></trkpt><trkpt lat="45.594169880150005" lon="9.271406378201853"><ele>176.85714285714283</ele><time>2026-04-09T07:58:02.016Z</time></trkpt><trkpt lat="45.59424062755841" lon="9.271437565593171"><ele>177.14285714285714</ele><time>2026-04-09T07:58:06.016Z</time></trkpt><trkpt lat="45.59429969189202" lon="9.271532210544372"><ele>177.42857142857142</ele><time>2026-04-09T07:58:09.016Z</time></trkpt><trkpt lat="45.594349814140436" lon="9.27159968897634"><ele>177.7142857142857</ele><time>2026-04-09T07:58:12.016Z</time></trkpt><trkpt lat="45.594365582114804" lon="9.271691854267583"><ele>178.0</ele><time>2026-04-09T07:58:18.016Z</time></trkpt><trkpt lat="45.594352369179084" lon="9.27180534258428"><ele>177.99999999999997</ele><time>2026-04-09T07:58:23.016Z</time></trkpt><trkpt lat="45.594366716440476" lon="9.271893513402837"><ele>178.0</ele><time>2026-04-09T07:58:27.018Z</time></trkpt><trkpt lat="45.59439072923692" lon="9.271988733330979"><ele>178.0</ele><time>2026-04-09T07:58:32.018Z</time></trkpt><trkpt lat="45.59440453848618" lon="9.27208317586278"><ele>178.0</ele><time>2026-04-09T07:58:37.018Z</time></trkpt><trkpt lat="45.59440421640001" lon="9.272179701326447"><ele>178.0</ele><time>2026-04-09T07:58:42.018Z</time></trkpt><trkpt lat="45.59444252760783" lon="9.272262581712356"><ele>177.99999999999997</ele><time>2026-04-09T07:58:47.018Z</time></trkpt><trkpt lat="45.59447329386186" lon="9.272365436066558"><ele>178.0</ele><time>2026-04-09T07:58:53.018Z</time></trkpt><trkpt lat="45.59448457358898" lon="9.272460228936788"><ele>178.42857142857142</ele><time>2026-04-09T07:58:59.018Z</time></trkpt><trkpt lat="45.59450598015309" lon="9.272550334158055"><ele>178.85714285714286</ele><time>2026-04-09T07:59:05.018Z</time></trkpt><trkpt lat="45.59453691835068" lon="9.272629907539516"><ele>179.28571428571428</ele><time>2026-04-09T07:59:10.018Z</time></trkpt><trkpt lat="45.59454387109714" lon="9.272737556907998"><ele>179.71428571428572</ele><time>2026-04-09T07:59:15.018Z</time></trkpt><trkpt lat="45.594550071184074" lon="9.272839401360596"><ele>180.14285714285714</ele><time>2026-04-09T07:59:21.018Z</time></trkpt><trkpt lat="45.59456062324538" lon="9.272937683849346"><ele>180.57142857142856</ele><time>2026-04-09T07:59:27.018Z</time></trkpt><trkpt lat="45.59457111342881" lon="9.273027059558324"><ele>181.0</ele><time>2026-04-09T07:59:32.018Z</time></trkpt><trkpt lat="45.59459290247315" lon="9.27312246539995"><ele>181.0</ele><time>2026-04-09T07:59:38.018Z</time></trkpt><trkpt lat="45.59457729367977" lon="9.2732174242609"><ele>181.0</ele><time>2026-04-09T07:59:43.018Z</time></trkpt><trkpt lat="45.59458830368336" lon="9.273319828261195"><ele>181.0</ele><time>2026-04-09T07:59:48.018Z</time></trkpt><trkpt lat="45.59460049031064" lon="9.273413551817292"><ele>181.0</ele><time>2026-04-09T07:59:53.018Z</time></trkpt><trkpt lat="45.5946170227901" lon="9.273516335239066"><ele>181.0</ele><time>2026-04-09T07:59:59.018Z</time></trkpt><trkpt lat="45.59462074354118" lon="9.273607075020665"><ele>181.0</ele><time>2026-04-09T08:00:04.018Z</time></trkpt><trkpt lat="45.594627988546215" lon="9.273702904796473"><ele>181.0</ele><time>2026-04-09T08:00:09.018Z</time></trkpt><trkpt lat="45.59462569202382" lon="9.273802444948394"><ele>181.0</ele><time>2026-04-09T08:00:14.017Z</time></trkpt><trkpt lat="45.594627219125314" lon="9.273898872806187"><ele>181.0</ele><time>2026-04-09T08:00:20.017Z</time></trkpt><trkpt lat="45.594627447963894" lon="9.274000174040472"><ele>181.0</ele><time>2026-04-09T08:00:26.017Z</time></trkpt><trkpt lat="45.594620864139614" lon="9.274100229284315"><ele>181.0</ele><time>2026-04-09T08:00:31.017Z</time></trkpt><trkpt lat="45.59460015818779" lon="9.274203675793371"><ele>181.0</ele><time>2026-04-09T08:00:36.019Z</time></trkpt><trkpt lat="45.59458643772943" lon="9.274296226473382"><ele>181.0</ele><time>2026-04-09T08:00:48.018Z</time></trkpt><trkpt lat="45.594531406953124" lon="9.27435202754186"><ele>181.0</ele><time>2026-04-09T08:00:53.017Z</time></trkpt><trkpt lat="45.59446664348482" lon="9.274393832078003"><ele>181.42857142857142</ele><time>2026-04-09T08:00:58.017Z</time></trkpt><trkpt lat="45.59440466137298" lon="9.274419747090079"><ele>181.85714285714283</ele><time>2026-04-09T08:01:03.017Z</time></trkpt><trkpt lat="45.59434001376554" lon="9.274453510279304"><ele>182.28571428571428</ele><time>2026-04-09T08:01:10.016Z</time></trkpt><trkpt lat="45.59427850026957" lon="9.27449452910298"><ele>182.71428571428572</ele><time>2026-04-09T08:01:16.016Z</time></trkpt><trkpt lat="45.594215036175285" lon="9.27454519858058"><ele>183.14285714285714</ele><time>2026-04-09T08:01:21.016Z</time></trkpt><trkpt lat="45.594152963129645" lon="9.274598400273732"><ele>183.57142857142858</ele><time>2026-04-09T08:01:26.016Z</time></trkpt><trkpt lat="45.59408932484641" lon="9.274643498571177"><ele>184.0</ele><time>2026-04-09T08:01:30.016Z</time></trkpt><trkpt lat="45.59402896996911" lon="9.274680281300363"><ele>184.0</ele><time>2026-04-09T08:01:34.016Z</time></trkpt><trkpt lat="45.59398105791208" lon="9.274749678594771"><ele>184.0</ele><time>2026-04-09T08:01:38.016Z</time></trkpt><trkpt lat="45.59392671019885" lon="9.274828532698372"><ele>184.0</ele><time>2026-04-09T08:01:43.016Z</time></trkpt><trkpt lat="45.59390183983038" lon="9.274929346705028"><ele>184.0</ele><time>2026-04-09T08:01:48.016Z</time></trkpt><trkpt lat="45.59385508114547" lon="9.275005270479456"><ele>184.0</ele><time>2026-04-09T08:01:53.015Z</time></trkpt><trkpt lat="45.59379019603753" lon="9.275062366691921"><ele>184.0</ele><time>2026-04-09T08:01:58.015Z</time></trkpt><trkpt lat="45.593733146295904" lon="9.275118569044723"><ele>184.0</ele><time>2026-04-09T08:02:03.015Z</time></trkpt><trkpt lat="45.59367824270862" lon="9.275174051260601"><ele>183.57142857142858</ele><time>2026-04-09T08:02:07.015Z</time></trkpt><trkpt lat="45.593613239415674" lon="9.275208059808948"><ele>183.14285714285714</ele><time>2026-04-09T08:02:12.015Z</time></trkpt><trkpt lat="45.59354636696209" lon="9.27524875627222"><ele>182.71428571428572</ele><time>2026-04-09T08:02:19.015Z</time></trkpt><trkpt lat="45.593474562105506" lon="9.275268511298998"><ele>182.28571428571428</ele><time>2026-04-09T08:02:25.015Z</time></trkpt><trkpt lat="45.59340814683984" lon="9.275268716248886"><ele>181.85714285714283</ele><time>2026-04-09T08:02:30.015Z</time></trkpt><trkpt lat="45.59334543633578" lon="9.275257615483547"><ele>181.42857142857142</ele><time>2026-04-09T08:02:35.015Z</time></trkpt><trkpt lat="45.593282767071095" lon="9.275240633900957"><ele>181.0</ele><time>2026-04-09T08:02:41.016Z</time></trkpt><trkpt lat="45.59322144818902" lon="9.27521635307303"><ele>181.0</ele><time>2026-04-09T08:02:46.016Z</time></trkpt><trkpt lat="45.59316120342791" lon="9.275162135915979"><ele>181.0</ele><time>2026-04-09T08:02:53.016Z</time></trkpt><trkpt lat="45.593092473741244" lon="9.275159527976648"><ele>181.0</ele><time>2026-04-09T08:02:59.016Z</time></trkpt><trkpt lat="45.59301831312784" lon="9.275161298550291"><ele>181.0</ele><time>2026-04-09T08:03:05.016Z</time></trkpt><trkpt lat="45.59295231304944" lon="9.27516987471251"><ele>181.0</ele><time>2026-04-09T08:03:11.016Z</time></trkpt><trkpt lat="45.59288880875192" lon="9.275205450985746"><ele>181.0</ele><time>2026-04-09T08:03:15.016Z</time></trkpt><trkpt lat="45.592812823174704" lon="9.275233888118448"><ele>181.0</ele><time>2026-04-09T08:03:19.016Z</time></trkpt><trkpt lat="45.59273600431504" lon="9.2752336415823"><ele>181.28571428571428</ele><time>2026-04-09T08:03:24.016Z</time></trkpt><trkpt lat="45.59266865802086" lon="9.275239840000767"><ele>181.57142857142856</ele><time>2026-04-09T08:03:29.016Z</time></trkpt><trkpt lat="45.592605356854165" lon="9.27526146019041"><ele>181.85714285714286</ele><time>2026-04-09T08:03:33.016Z</time></trkpt><trkpt lat="45.59253463209053" lon="9.27527820857405"><ele>182.14285714285714</ele><time>2026-04-09T08:03:38.016Z</time></trkpt><trkpt lat="45.59247232270709" lon="9.27530736299146"><ele>182.42857142857144</ele><time>2026-04-09T08:03:43.016Z</time></trkpt><trkpt lat="45.592406928134274" lon="9.275322331911301"><ele>182.71428571428572</ele><time>2026-04-09T08:03:48.016Z</time></trkpt><trkpt lat="45.59234581928705" lon="9.275344519169339"><ele>183.0</ele><time>2026-04-09T08:03:53.015Z</time></trkpt><trkpt lat="45.59227418519566" lon="9.275370308208847"><ele>183.0</ele><time>2026-04-09T08:03:58.015Z</time></trkpt><trkpt lat="45.59220415192288" lon="9.275413197572915"><ele>183.0</ele><time>2026-04-09T08:04:04.015Z</time></trkpt><trkpt lat="45.592146779559904" lon="9.27545593265194"><ele>183.0</ele><time>2026-04-09T08:04:09.015Z</time></trkpt><trkpt lat="45.59209791166983" lon="9.275523267473046"><ele>183.0</ele><time>2026-04-09T08:04:15.015Z</time></trkpt><trkpt lat="45.59207812282138" lon="9.275619058584661"><ele>183.0</ele><time>2026-04-09T08:04:22.015Z</time></trkpt><trkpt lat="45.59208478618267" lon="9.275729478507879"><ele>183.0</ele><time>2026-04-09T08:04:27.015Z</time></trkpt><trkpt lat="45.592101529353386" lon="9.27582921031523"><ele>183.0</ele><time>2026-04-09T08:04:32.015Z</time></trkpt><trkpt lat="45.59212433955939" lon="9.275929721935709"><ele>182.57142857142858</ele><time>2026-04-09T08:04:37.015Z</time></trkpt><trkpt lat="45.59214663992285" lon="9.276019477991543"><ele>182.14285714285717</ele><time>2026-04-09T08:04:43.015Z</time></trkpt><trkpt lat="45.59216187279372" lon="9.27610804175758"><ele>181.71428571428572</ele><time>2026-04-09T08:04:48.016Z</time></trkpt><trkpt lat="45.592176956586506" lon="9.276215720931916"><ele>181.28571428571428</ele><time>2026-04-09T08:04:52.016Z</time></trkpt><trkpt lat="45.5921858484098" lon="9.276312001319429"><ele>180.85714285714286</ele><time>2026-04-09T08:04:56.017Z</time></trkpt><trkpt lat="45.59220566374529" lon="9.276412837092268"><ele>180.42857142857142</ele><time>2026-04-09T08:05:02.016Z</time></trkpt><trkpt lat="45.592222791802335" lon="9.276508623790132"><ele>180.0</ele><time>2026-04-09T08:05:08.016Z</time></trkpt><trkpt lat="45.5922404896096" lon="9.276600630418564"><ele>179.57142857142856</ele><time>2026-04-09T08:05:17.016Z</time></trkpt><trkpt lat="45.59227903735319" lon="9.276685673196866"><ele>179.14285714285717</ele><time>2026-04-09T08:05:21.016Z</time></trkpt><trkpt lat="45.59230022057055" lon="9.276771480934595"><ele>178.71428571428572</ele><time>2026-04-09T08:05:26.016Z</time></trkpt><trkpt lat="45.59231190013028" lon="9.276873649964763"><ele>178.28571428571428</ele><time>2026-04-09T08:05:32.016Z</time></trkpt><trkpt lat="45.592346749263136" lon="9.276969035117025"><ele>177.85714285714283</ele><time>2026-04-09T08:05:38.016Z</time></trkpt><trkpt lat="45.5923747555415" lon="9.277055275374185"><ele>177.42857142857144</ele><time>2026-04-09T08:05:42.016Z</time></trkpt><trkpt lat="45.59239454120654" lon="9.277141692054027"><ele>177.0</ele><time>2026-04-09T08:05:47.016Z</time></trkpt><trkpt lat="45.59242736414969" lon="9.277240035908303"><ele>176.71428571428572</ele><time>2026-04-09T08:05:52.016Z</time></trkpt><trkpt lat="45.592441526149415" lon="9.277346410104457"><ele>176.42857142857142</ele><time>2026-04-09T08:05:58.016Z</time></trkpt><trkpt lat="45.59244219619894" lon="9.277443982628897"><ele>176.14285714285714</ele><time>2026-04-09T08:06:03.016Z</time></trkpt><trkpt lat="45.5924252807028" lon="9.277539182885906"><ele>175.85714285714286</ele><time>2026-04-09T08:06:10.016Z</time></trkpt><trkpt lat="45.59239798767788" lon="9.277629624234583"><ele>175.57142857142856</ele><time>2026-04-09T08:06:21.015Z</time></trkpt><trkpt lat="45.592390943884155" lon="9.27772075688634"><ele>175.28571428571428</ele><time>2026-04-09T08:06:25.015Z</time></trkpt><trkpt lat="45.59236948219643" lon="9.277807376613966"><ele>175.0</ele><time>2026-04-09T08:06:29.015Z</time></trkpt><trkpt lat="45.59233482550301" lon="9.277908947935583"><ele>175.0</ele><time>2026-04-09T08:06:34.015Z</time></trkpt><trkpt lat="45.59231672667355" lon="9.278016163437986"><ele>175.0</ele><time>2026-04-09T08:06:39.015Z</time></trkpt><trkpt lat="45.5922695435102" lon="9.27808494252889"><ele>175.0</ele><time>2026-04-09T08:06:44.015Z</time></trkpt><trkpt lat="45.59222465747721" lon="9.278167671164805"><ele>175.0</ele><time>2026-04-09T08:06:50.017Z</time></trkpt><trkpt lat="45.592178526596996" lon="9.278240397970906"><ele>175.0</ele><time>2026-04-09T08:06:54.017Z</time></trkpt><trkpt lat="45.592135295619514" lon="9.278315835482656"><ele>175.0</ele><time>2026-04-09T08:06:58.017Z</time></trkpt><trkpt lat="45.59207937561223" lon="9.27838165613407"><ele>175.0</ele><time>2026-04-09T08:07:03.017Z</time></trkpt><trkpt lat="45.59203666287853" lon="9.278449961159842"><ele>174.57142857142858</ele><time>2026-04-09T08:07:07.017Z</time></trkpt><trkpt lat="45.59199573863214" lon="9.278521515277554"><ele>174.14285714285714</ele><time>2026-04-09T08:07:12.017Z</time></trkpt><trkpt lat="45.59195623742734" lon="9.278601375280155"><ele>173.71428571428572</ele><time>2026-04-09T08:07:18.017Z</time></trkpt><trkpt lat="45.591935762360414" lon="9.278689012293881"><ele>173.28571428571428</ele><time>2026-04-09T08:07:23.017Z</time></trkpt><trkpt lat="45.59190469820372" lon="9.278785479029084"><ele>172.85714285714286</ele><time>2026-04-09T08:07:28.017Z</time></trkpt><trkpt lat="45.59187158982061" lon="9.278866875908555"><ele>172.42857142857144</ele><time>2026-04-09T08:07:33.016Z</time></trkpt><trkpt lat="45.59184168668903" lon="9.278946099746387"><ele>172.0</ele><time>2026-04-09T08:07:38.016Z</time></trkpt><trkpt lat="45.59180304575131" lon="9.279035214486507"><ele>172.00000000000003</ele><time>2026-04-09T08:07:44.016Z</time></trkpt><trkpt lat="45.591767679625924" lon="9.279110423843827"><ele>172.0</ele><time>2026-04-09T08:07:49.016Z</time></trkpt><trkpt lat="45.59172714142115" lon="9.279211899606615"><ele>172.0</ele><time>2026-04-09T08:07:54.016Z</time></trkpt><trkpt lat="45.59170337931957" lon="9.279303450277196"><ele>172.0</ele><time>2026-04-09T08:07:59.016Z</time></trkpt><trkpt lat="45.59167322747663" lon="9.279390354785631"><ele>172.0</ele><time>2026-04-09T08:08:04.016Z</time></trkpt><trkpt lat="45.59163618981097" lon="9.279469611194566"><ele>172.00000000000003</ele><time>2026-04-09T08:08:09.016Z</time></trkpt><trkpt lat="45.59160000720132" lon="9.27955663545713"><ele>172.0</ele><time>2026-04-09T08:08:14.016Z</time></trkpt><trkpt lat="45.591562226582" lon="9.279644811341168"><ele>172.00000000000003</ele><time>2026-04-09T08:08:19.016Z</time></trkpt><trkpt lat="45.591531688004316" lon="9.279742422877913"><ele>172.0</ele><time>2026-04-09T08:08:24.016Z</time></trkpt><trkpt lat="45.591494846394745" lon="9.279818869715399"><ele>172.0</ele><time>2026-04-09T08:08:29.016Z</time></trkpt><trkpt lat="45.591473998670075" lon="9.279923480318919"><ele>172.0</ele><time>2026-04-09T08:08:35.016Z</time></trkpt><trkpt lat="45.59145834343037" lon="9.280024532584605"><ele>172.0</ele><time>2026-04-09T08:08:40.016Z</time></trkpt><trkpt lat="45.591447891937456" lon="9.280123243932362"><ele>172.00000000000003</ele><time>2026-04-09T08:08:46.016Z</time></trkpt><trkpt lat="45.59143597810494" lon="9.280216551237086"><ele>172.0</ele><time>2026-04-09T08:08:50.016Z</time></trkpt><trkpt lat="45.591433575457415" lon="9.280316783428331"><ele>171.85714285714286</ele><time>2026-04-09T08:08:55.016Z</time></trkpt><trkpt lat="45.591436724208606" lon="9.280420908481158"><ele>171.71428571428572</ele><time>2026-04-09T08:09:01.017Z</time></trkpt><trkpt lat="45.591437599763616" lon="9.280532280030085"><ele>171.57142857142856</ele><time>2026-04-09T08:09:06.017Z</time></trkpt><trkpt lat="45.591457500848946" lon="9.280637179167151"><ele>171.42857142857144</ele><time>2026-04-09T08:09:11.018Z</time></trkpt><trkpt lat="45.5914823197285" lon="9.280737372339141"><ele>171.28571428571428</ele><time>2026-04-09T08:09:16.018Z</time></trkpt><trkpt lat="45.59150857871943" lon="9.280820580552437"><ele>171.14285714285714</ele><time>2026-04-09T08:09:21.018Z</time></trkpt><trkpt lat="45.59153980094955" lon="9.280916127465671"><ele>171.0</ele><time>2026-04-09T08:09:26.018Z</time></trkpt><trkpt lat="45.591583789773395" lon="9.281001590138652"><ele>170.7142857142857</ele><time>2026-04-09T08:09:31.018Z</time></trkpt><trkpt lat="45.591618671966565" lon="9.281077015144502"><ele>170.42857142857142</ele><time>2026-04-09T08:09:35.018Z</time></trkpt><trkpt lat="45.59165732867395" lon="9.281167981637406"><ele>170.14285714285714</ele><time>2026-04-09T08:09:41.017Z</time></trkpt><trkpt lat="45.591703640196016" lon="9.281240271566709"><ele>169.85714285714283</ele><time>2026-04-09T08:09:46.017Z</time></trkpt><trkpt lat="45.591758853164514" lon="9.28129656561776"><ele>169.57142857142856</ele><time>2026-04-09T08:09:51.017Z</time></trkpt><trkpt lat="45.59181762296755" lon="9.281349313941123"><ele>169.28571428571428</ele><time>2026-04-09T08:09:56.017Z</time></trkpt><trkpt lat="45.59188543659535" lon="9.281383726775445"><ele>169.0</ele><time>2026-04-09T08:10:02.017Z</time></trkpt><trkpt lat="45.59193136637866" lon="9.28132171788305"><ele>169.83333333333334</ele><time>2026-04-09T08:10:07.017Z</time></trkpt><trkpt lat="45.59201764404297" lon="9.28132467256531"><ele>170.66666666666669</ele><time>2026-04-09T08:10:15.017Z</time></trkpt><trkpt lat="45.592096748125826" lon="9.281353220904089"><ele>171.5</ele><time>2026-04-09T08:10:19.017Z</time></trkpt><trkpt lat="45.592173626060735" lon="9.281357850551096"><ele>172.33333333333334</ele><time>2026-04-09T08:10:24.017Z</time></trkpt><trkpt lat="45.59224510742834" lon="9.281336298390933"><ele>173.16666666666666</ele><time>2026-04-09T08:10:30.017Z</time></trkpt><trkpt lat="45.59231510510056" lon="9.28131146315286"><ele>174.0</ele><time>2026-04-09T08:10:35.017Z</time></trkpt><trkpt lat="45.592380516194936" lon="9.2812984656149"><ele>174.0</ele><time>2026-04-09T08:10:40.017Z</time></trkpt><trkpt lat="45.59244341360188" lon="9.28124640921626"><ele>174.0</ele><time>2026-04-09T08:10:46.017Z</time></trkpt><trkpt lat="45.59251723087239" lon="9.281206002237623"><ele>174.0</ele><time>2026-04-09T08:10:51.017Z</time></trkpt><trkpt lat="45.592576607075245" lon="9.281174730210607"><ele>174.0</ele><time>2026-04-09T08:10:57.017Z</time></trkpt><trkpt lat="45.59263938013199" lon="9.281108091542798"><ele>174.0</ele><time>2026-04-09T08:11:03.018Z</time></trkpt><trkpt lat="45.592700215580464" lon="9.281071267216056"><ele>174.0</ele><time>2026-04-09T08:11:08.018Z</time></trkpt><trkpt lat="45.592759506832635" lon="9.281019888211087"><ele>174.0</ele><time>2026-04-09T08:11:13.018Z</time></trkpt><trkpt lat="45.59280980107861" lon="9.280942289413758"><ele>174.42857142857142</ele><time>2026-04-09T08:11:19.018Z</time></trkpt><trkpt lat="45.59286273635459" lon="9.280876867630104"><ele>174.85714285714286</ele><time>2026-04-09T08:11:24.018Z</time></trkpt><trkpt lat="45.59290952346441" lon="9.2808032057346"><ele>175.28571428571428</ele><time>2026-04-09T08:11:29.018Z</time></trkpt><trkpt lat="45.59294855847002" lon="9.280708904103212"><ele>175.71428571428572</ele><time>2026-04-09T08:11:35.018Z</time></trkpt><trkpt lat="45.59300603360237" lon="9.28066007327856"><ele>176.14285714285714</ele><time>2026-04-09T08:11:40.018Z</time></trkpt><trkpt lat="45.5930534311964" lon="9.280585471673445"><ele>176.57142857142858</ele><time>2026-04-09T08:11:45.018Z</time></trkpt><trkpt lat="45.59309288459996" lon="9.280502422286679"><ele>177.0</ele><time>2026-04-09T08:11:49.018Z</time></trkpt><trkpt lat="45.59313013639986" lon="9.280422061796816"><ele>177.0</ele><time>2026-04-09T08:11:54.018Z</time></trkpt><trkpt lat="45.59317379630673" lon="9.280352170632693"><ele>177.0</ele><time>2026-04-09T08:11:59.018Z</time></trkpt><trkpt lat="45.5932177765205" lon="9.280271187797727"><ele>177.0</ele><time>2026-04-09T08:12:04.017Z</time></trkpt><trkpt lat="45.59326739433996" lon="9.280195096981624"><ele>177.0</ele><time>2026-04-09T08:12:09.017Z</time></trkpt><trkpt lat="45.59332131814591" lon="9.280146258070733"><ele>177.0</ele><time>2026-04-09T08:12:14.017Z</time></trkpt><trkpt lat="45.59338176932765" lon="9.28009683168916"><ele>177.0</ele><time>2026-04-09T08:12:20.017Z</time></trkpt><trkpt lat="45.5934393123244" lon="9.280032899930777"><ele>177.0</ele><time>2026-04-09T08:12:25.017Z</time></trkpt><trkpt lat="45.59349954601999" lon="9.279988436968733"><ele>177.0</ele><time>2026-04-09T08:12:31.017Z</time></trkpt><trkpt lat="45.59356731084626" lon="9.279958412555409"><ele>177.0</ele><time>2026-04-09T08:12:36.017Z</time></trkpt><trkpt lat="45.59362893373455" lon="9.279922311735582"><ele>177.0</ele><time>2026-04-09T08:12:41.017Z</time></trkpt><trkpt lat="45.593689884100826" lon="9.279876551382488"><ele>177.0</ele><time>2026-04-09T08:12:45.017Z</time></trkpt><trkpt lat="45.59375941802272" lon="9.279874123278898"><ele>177.0</ele><time>2026-04-09T08:12:50.017Z</time></trkpt><trkpt lat="45.59382147132933" lon="9.279833167164425"><ele>177.0</ele><time>2026-04-09T08:12:55.017Z</time></trkpt><trkpt lat="45.59388803736159" lon="9.27980292294955"><ele>177.0</ele><time>2026-04-09T08:13:00.017Z</time></trkpt><trkpt lat="45.59395941220417" lon="9.279776240838107"><ele>176.57142857142858</ele><time>2026-04-09T08:13:06.017Z</time></trkpt><trkpt lat="45.59402469550011" lon="9.279735798563033"><ele>176.14285714285714</ele><time>2026-04-09T08:13:11.019Z</time></trkpt><trkpt lat="45.594081951108954" lon="9.279695920930134"><ele>175.71428571428572</ele><time>2026-04-09T08:13:16.019Z</time></trkpt><trkpt lat="45.5941423391315" lon="9.279667298139"><ele>175.28571428571428</ele><time>2026-04-09T08:13:21.018Z</time></trkpt><trkpt lat="45.59420534864081" lon="9.27962160538747"><ele>174.85714285714286</ele><time>2026-04-09T08:13:26.018Z</time></trkpt><trkpt lat="45.594268469786556" lon="9.279595278750936"><ele>174.42857142857142</ele><time>2026-04-09T08:13:31.018Z</time></trkpt><trkpt lat="45.59433158771235" lon="9.27954798220568"><ele>174.0</ele><time>2026-04-09T08:13:36.018Z</time></trkpt><trkpt lat="45.59440303616151" lon="9.279507381692868"><ele>174.0</ele><time>2026-04-09T08:13:41.018Z</time></trkpt><trkpt lat="45.59447188744923" lon="9.279459785695392"><ele>174.0</ele><time>2026-04-09T08:13:46.018Z</time></trkpt><trkpt lat="45.59453395587674" lon="9.27941623020744"><ele>174.0</ele><time>2026-04-09T08:13:52.018Z</time></trkpt><trkpt lat="45.59458431767517" lon="9.279359798878225"><ele>174.0</ele><time>2026-04-09T08:13:57.018Z</time></trkpt><trkpt lat="45.59464468778554" lon="9.279298975549818"><ele>174.0</ele><time>2026-04-09T08:14:03.018Z</time></trkpt><trkpt lat="45.59469877924362" lon="9.279237532350106"><ele>174.0</ele><time>2026-04-09T08:14:08.018Z</time></trkpt><trkpt lat="45.59475756931201" lon="9.279197444733564"><ele>174.0</ele><time>2026-04-09T08:14:13.018Z</time></trkpt><trkpt lat="45.59480602719378" lon="9.27913580364238"><ele>174.57142857142856</ele><time>2026-04-09T08:14:18.018Z</time></trkpt><trkpt lat="45.594863139936756" lon="9.279070515076272"><ele>175.14285714285714</ele><time>2026-04-09T08:14:23.018Z</time></trkpt><trkpt lat="45.59491400141919" lon="9.279002281538055"><ele>175.71428571428572</ele><time>2026-04-09T08:14:27.018Z</time></trkpt><trkpt lat="45.59496549635153" lon="9.278932546424803"><ele>176.28571428571428</ele><time>2026-04-09T08:14:32.018Z</time></trkpt><trkpt lat="45.59501502132239" lon="9.278872249835084"><ele>176.85714285714286</ele><time>2026-04-09T08:14:37.018Z</time></trkpt><trkpt lat="45.59506509210646" lon="9.278795968812227"><ele>177.42857142857142</ele><time>2026-04-09T08:14:42.018Z</time></trkpt><trkpt lat="45.595112683252715" lon="9.278720588078965"><ele>178.0</ele><time>2026-04-09T08:14:48.018Z</time></trkpt><trkpt lat="45.595157510911264" lon="9.278653491351383"><ele>177.99999999999997</ele><time>2026-04-09T08:14:52.018Z</time></trkpt><trkpt lat="45.59519397647272" lon="9.278578208936336"><ele>178.0</ele><time>2026-04-09T08:14:56.018Z</time></trkpt><trkpt lat="45.595259329661936" lon="9.278528363125085"><ele>178.0</ele><time>2026-04-09T08:15:02.017Z</time></trkpt><trkpt lat="45.59532481086013" lon="9.278579084469719"><ele>178.0</ele><time>2026-04-09T08:15:09.017Z</time></trkpt><trkpt lat="45.59533782591884" lon="9.278668218412905"><ele>178.0</ele><time>2026-04-09T08:15:15.019Z</time></trkpt><trkpt lat="45.59537423671252" lon="9.278753540889777"><ele>177.99999999999997</ele><time>2026-04-09T08:15:19.019Z</time></trkpt><trkpt lat="45.59538353755884" lon="9.278842831861965"><ele>178.0</ele><time>2026-04-09T08:15:24.019Z</time></trkpt><trkpt lat="45.59539840814934" lon="9.278939119408948"><ele>177.7142857142857</ele><time>2026-04-09T08:15:29.019Z</time></trkpt><trkpt lat="45.59542211436073" lon="9.279044005526854"><ele>177.42857142857142</ele><time>2026-04-09T08:15:35.019Z</time></trkpt><trkpt lat="45.59544709530913" lon="9.279131533540891"><ele>177.14285714285714</ele><time>2026-04-09T08:15:40.019Z</time></trkpt><trkpt lat="45.59546035927151" lon="9.279221961962554"><ele>176.85714285714283</ele><time>2026-04-09T08:15:45.019Z</time></trkpt><trkpt lat="45.59547151607291" lon="9.279314781681832"><ele>176.57142857142856</ele><time>2026-04-09T08:15:50.019Z</time></trkpt><trkpt lat="45.59549107863266" lon="9.279410829604227"><ele>176.28571428571428</ele><time>2026-04-09T08:15:55.019Z</time></trkpt><trkpt lat="45.59550170470377" lon="9.279523634094128"><ele>176.0</ele><time>2026-04-09T08:16:01.019Z</time></trkpt><trkpt lat="45.59551291356293" lon="9.279615453662188"><ele>176.0</ele><time>2026-04-09T08:16:05.019Z</time></trkpt><trkpt lat="45.59551349715756" lon="9.27972335457653"><ele>176.0</ele><time>2026-04-09T08:16:11.018Z</time></trkpt><trkpt lat="45.59552805321383" lon="9.279821183178502"><ele>176.0</ele><time>2026-04-09T08:16:16.018Z</time></trkpt><trkpt lat="45.59554321333962" lon="9.279932268242604"><ele>176.0</ele><time>2026-04-09T08:16:20.018Z</time></trkpt><trkpt lat="45.59555321519889" lon="9.280027369635231"><ele>176.0</ele><time>2026-04-09T08:16:26.018Z</time></trkpt><trkpt lat="45.59556544393439" lon="9.280130556784934"><ele>176.0</ele><time>2026-04-09T08:16:31.018Z</time></trkpt><trkpt lat="45.59558494085393" lon="9.280223414650617"><ele>176.0</ele><time>2026-04-09T08:16:36.018Z</time></trkpt><trkpt lat="45.595603306732826" lon="9.28032339541914"><ele>176.28571428571428</ele><time>2026-04-09T08:16:41.018Z</time></trkpt><trkpt lat="45.59561805863589" lon="9.280422348366738"><ele>176.57142857142856</ele><time>2026-04-09T08:16:46.018Z</time></trkpt><trkpt lat="45.595641067871654" lon="9.280523545297791"><ele>176.85714285714283</ele><time>2026-04-09T08:16:51.018Z</time></trkpt><trkpt lat="45.59562595772651" lon="9.28061266038679"><ele>177.14285714285714</ele><time>2026-04-09T08:16:56.018Z</time></trkpt><trkpt lat="45.59564047851349" lon="9.280707603740426"><ele>177.42857142857142</ele><time>2026-04-09T08:17:01.018Z</time></trkpt><trkpt lat="45.595649524201676" lon="9.280804845148204"><ele>177.7142857142857</ele><time>2026-04-09T08:17:06.018Z</time></trkpt><trkpt lat="45.59568573087757" lon="9.280898002176801"><ele>178.0</ele><time>2026-04-09T08:17:11.018Z</time></trkpt><trkpt lat="45.59572443608347" lon="9.280991317525567"><ele>177.99999999999997</ele><time>2026-04-09T08:17:17.018Z</time></trkpt><trkpt lat="45.595786825216955" lon="9.281039873581761"><ele>178.0</ele><time>2026-04-09T08:17:23.02Z</time></trkpt><trkpt lat="45.59583899702054" lon="9.28110176850705"><ele>178.0</ele><time>2026-04-09T08:17:29.02Z</time></trkpt><trkpt lat="45.595891041504196" lon="9.281155318878309"><ele>178.0</ele><time>2026-04-09T08:17:34.02Z</time></trkpt><trkpt lat="45.595948224646556" lon="9.281203949107038"><ele>178.0</ele><time>2026-04-09T08:17:39.02Z</time></trkpt><trkpt lat="45.5960148414083" lon="9.28123809607563"><ele>177.99999999999997</ele><time>2026-04-09T08:17:45.02Z</time></trkpt><trkpt lat="45.59607413559185" lon="9.281297085920663"><ele>178.0</ele><time>2026-04-09T08:17:51.02Z</time></trkpt><trkpt lat="45.596140743615415" lon="9.281346058102876"><ele>177.85714285714283</ele><time>2026-04-09T08:17:56.02Z</time></trkpt><trkpt lat="45.59620038987362" lon="9.281398214748544"><ele>177.71428571428572</ele><time>2026-04-09T08:18:00.02Z</time></trkpt><trkpt lat="45.596266540444" lon="9.281453419824208"><ele>177.57142857142856</ele><time>2026-04-09T08:18:05.02Z</time></trkpt><trkpt lat="45.59633389140146" lon="9.281497863344214"><ele>177.42857142857142</ele><time>2026-04-09T08:18:11.02Z</time></trkpt><trkpt lat="45.59639705922832" lon="9.281523193197708"><ele>177.28571428571428</ele><time>2026-04-09T08:18:16.02Z</time></trkpt><trkpt lat="45.59646937252895" lon="9.281582566745646"><ele>177.14285714285714</ele><time>2026-04-09T08:18:22.02Z</time></trkpt><trkpt lat="45.59652619167203" lon="9.281629657603041"><ele>177.0</ele><time>2026-04-09T08:18:26.02Z</time></trkpt><trkpt lat="45.59659055632962" lon="9.281675827117125"><ele>177.0</ele><time>2026-04-09T08:18:32.02Z</time></trkpt><trkpt lat="45.59665267515693" lon="9.281711983315219"><ele>177.0</ele><time>2026-04-09T08:18:37.02Z</time></trkpt><trkpt lat="45.596710660714585" lon="9.281748855083505"><ele>177.0</ele><time>2026-04-09T08:18:41.02Z</time></trkpt><trkpt lat="45.5967790329596" lon="9.281793364489822"><ele>177.0</ele><time>2026-04-09T08:18:46.02Z</time></trkpt><trkpt lat="45.596843736305686" lon="9.281837995489068"><ele>177.0</ele><time>2026-04-09T08:18:52.019Z</time></trkpt><trkpt lat="45.59691199040495" lon="9.281886044194355"><ele>177.0</ele><time>2026-04-09T08:18:57.019Z</time></trkpt><trkpt lat="45.596969146687606" lon="9.281923877702168"><ele>177.0</ele><time>2026-04-09T08:19:02.019Z</time></trkpt><trkpt lat="45.59703840889239" lon="9.281969361693262"><ele>177.0</ele><time>2026-04-09T08:19:07.019Z</time></trkpt><trkpt lat="45.59709088301787" lon="9.282019707569477"><ele>177.0</ele><time>2026-04-09T08:19:11.019Z</time></trkpt><trkpt lat="45.59714980208692" lon="9.282065322162905"><ele>177.0</ele><time>2026-04-09T08:19:16.019Z</time></trkpt><trkpt lat="45.59710221676544" lon="9.282126589031503"><ele>177.0</ele><time>2026-04-09T08:19:22.019Z</time></trkpt><trkpt lat="45.59702167790716" lon="9.282119650276671"><ele>177.0</ele><time>2026-04-09T08:19:29.021Z</time></trkpt><trkpt lat="45.59695912305039" lon="9.282138106606897"><ele>177.0</ele><time>2026-04-09T08:19:33.021Z</time></trkpt><trkpt lat="45.596896823946516" lon="9.282155537369785"><ele>177.0</ele><time>2026-04-09T08:19:37.021Z</time></trkpt><trkpt lat="45.59682412096979" lon="9.282151624810073"><ele>177.0</ele><time>2026-04-09T08:19:42.021Z</time></trkpt><trkpt lat="45.59675482947413" lon="9.282151938691948"><ele>177.0</ele><time>2026-04-09T08:19:47.021Z</time></trkpt><trkpt lat="45.59667667340304" lon="9.282158165390124"><ele>177.0</ele><time>2026-04-09T08:19:52.021Z</time></trkpt><trkpt lat="45.59660797451241" lon="9.282145955564554"><ele>177.0</ele><time>2026-04-09T08:19:56.021Z</time></trkpt><trkpt lat="45.59653580967695" lon="9.282149917664128"><ele>177.0</ele><time>2026-04-09T08:20:01.021Z</time></trkpt><trkpt lat="45.59645724487589" lon="9.282147645515932"><ele>177.0</ele><time>2026-04-09T08:20:07.021Z</time></trkpt><trkpt lat="45.59638155408483" lon="9.28212963356257"><ele>177.0</ele><time>2026-04-09T08:20:12.021Z</time></trkpt><trkpt lat="45.59631059928292" lon="9.282116115622012"><ele>177.0</ele><time>2026-04-09T08:20:17.02Z</time></trkpt><trkpt lat="45.59623838570302" lon="9.282111498908804"><ele>177.0</ele><time>2026-04-09T08:20:22.02Z</time></trkpt><trkpt lat="45.596172956347424" lon="9.28210003168291"><ele>177.0</ele><time>2026-04-09T08:20:27.02Z</time></trkpt><trkpt lat="45.59610334592105" lon="9.2820863132992"><ele>177.0</ele><time>2026-04-09T08:20:32.02Z</time></trkpt><trkpt lat="45.59602895004255" lon="9.282070181623217"><ele>177.0</ele><time>2026-04-09T08:20:37.02Z</time></trkpt><trkpt lat="45.59595548763913" lon="9.28206504395185"><ele>177.0</ele><time>2026-04-09T08:20:42.02Z</time></trkpt><trkpt lat="45.59589190723008" lon="9.28207641839827"><ele>177.0</ele><time>2026-04-09T08:20:46.02Z</time></trkpt><trkpt lat="45.595823762341844" lon="9.282072809775968"><ele>177.0</ele><time>2026-04-09T08:20:51.02Z</time></trkpt><trkpt lat="45.59576060517228" lon="9.282080970124065"><ele>177.0</ele><time>2026-04-09T08:20:56.02Z</time></trkpt><trkpt lat="45.5956937421033" lon="9.28207802269557"><ele>177.0</ele><time>2026-04-09T08:21:01.02Z</time></trkpt><trkpt lat="45.595616575638566" lon="9.282069230600785"><ele>177.0</ele><time>2026-04-09T08:21:06.02Z</time></trkpt><trkpt lat="45.59554985913531" lon="9.282043779397023"><ele>177.0</ele><time>2026-04-09T08:21:12.02Z</time></trkpt><trkpt lat="45.5954838384313" lon="9.282069290910803"><ele>177.0</ele><time>2026-04-09T08:21:16.02Z</time></trkpt><trkpt lat="45.59544894885113" lon="9.282153088898555"><ele>177.0</ele><time>2026-04-09T08:21:23.02Z</time></trkpt><trkpt lat="45.59545359067795" lon="9.28225325978907"><ele>176.42857142857144</ele><time>2026-04-09T08:21:29.02Z</time></trkpt><trkpt lat="45.59547800446453" lon="9.282338522116234"><ele>175.85714285714283</ele><time>2026-04-09T08:21:34.022Z</time></trkpt><trkpt lat="45.595506697369196" lon="9.282424992678255"><ele>175.28571428571428</ele><time>2026-04-09T08:21:39.021Z</time></trkpt><trkpt lat="45.595538388331555" lon="9.282504524651928"><ele>174.71428571428572</ele><time>2026-04-09T08:21:45.021Z</time></trkpt><trkpt lat="45.59558050706797" lon="9.282589965224044"><ele>174.14285714285717</ele><time>2026-04-09T08:21:50.021Z</time></trkpt><trkpt lat="45.5956367146511" lon="9.28267887393178"><ele>173.57142857142856</ele><time>2026-04-09T08:21:56.021Z</time></trkpt><trkpt lat="45.59567403098613" lon="9.282777818282076"><ele>173.0</ele><time>2026-04-09T08:22:01.021Z</time></trkpt><trkpt lat="45.59571695437228" lon="9.282866546594509"><ele>173.0</ele><time>2026-04-09T08:22:06.021Z</time></trkpt><trkpt lat="45.59573963984263" lon="9.282951478005852"><ele>173.0</ele><time>2026-04-09T08:22:11.021Z</time></trkpt><trkpt lat="45.59576255317425" lon="9.283036046277665"><ele>173.0</ele><time>2026-04-09T08:22:16.021Z</time></trkpt><trkpt lat="45.595779572670416" lon="9.28312685957879"><ele>173.0</ele><time>2026-04-09T08:22:21.021Z</time></trkpt><trkpt lat="45.59580341770836" lon="9.283220335635562"><ele>173.0</ele><time>2026-04-09T08:22:26.021Z</time></trkpt><trkpt lat="45.59582713334666" lon="9.283317647295942"><ele>173.0</ele><time>2026-04-09T08:22:32.021Z</time></trkpt><trkpt lat="45.59582858119054" lon="9.283410836364043"><ele>173.0</ele><time>2026-04-09T08:22:37.021Z</time></trkpt><trkpt lat="45.59582750163326" lon="9.283503804746397"><ele>173.0</ele><time>2026-04-09T08:22:42.021Z</time></trkpt><trkpt lat="45.59582994172305" lon="9.283610271638505"><ele>173.0</ele><time>2026-04-09T08:22:46.021Z</time></trkpt><trkpt lat="45.59581144523226" lon="9.28369639258207"><ele>173.0</ele><time>2026-04-09T08:22:51.021Z</time></trkpt><trkpt lat="45.59577971412735" lon="9.283789558370179"><ele>173.0</ele><time>2026-04-09T08:22:56.021Z</time></trkpt><trkpt lat="45.595741768851184" lon="9.283884398982574"><ele>173.0</ele><time>2026-04-09T08:23:02.021Z</time></trkpt><trkpt lat="45.59569852721487" lon="9.283965826331094"><ele>173.0</ele><time>2026-04-09T08:23:07.021Z</time></trkpt><trkpt lat="45.59565231603555" lon="9.284027240696524"><ele>173.0</ele><time>2026-04-09T08:23:12.02Z</time></trkpt><trkpt lat="45.59561274979093" lon="9.284103391904244"><ele>173.0</ele><time>2026-04-09T08:23:17.02Z</time></trkpt><trkpt lat="45.59557050937513" lon="9.284190106258812"><ele>173.0</ele><time>2026-04-09T08:23:22.02Z</time></trkpt><trkpt lat="45.59552454179428" lon="9.284261355324162"><ele>173.0</ele><time>2026-04-09T08:23:27.02Z</time></trkpt><trkpt lat="45.59545980551113" lon="9.284305273048295"><ele>173.0</ele><time>2026-04-09T08:23:33.02Z</time></trkpt><trkpt lat="45.59538932762064" lon="9.284328670261043"><ele>173.0</ele><time>2026-04-09T08:23:38.023Z</time></trkpt><trkpt lat="45.59531818981462" lon="9.284374917112322"><ele>173.0</ele><time>2026-04-09T08:23:43.022Z</time></trkpt><trkpt lat="45.59525702000224" lon="9.2844147616969"><ele>173.0</ele><time>2026-04-09T08:23:48.023Z</time></trkpt><trkpt lat="45.59519407589268" lon="9.2844435027989"><ele>172.85714285714286</ele><time>2026-04-09T08:23:52.022Z</time></trkpt><trkpt lat="45.595124900921334" lon="9.284472103777812"><ele>172.71428571428572</ele><time>2026-04-09T08:23:56.022Z</time></trkpt><trkpt lat="45.59506456420638" lon="9.284514797831344"><ele>172.57142857142858</ele><time>2026-04-09T08:24:00.022Z</time></trkpt><trkpt lat="45.595002707155196" lon="9.284574639868918"><ele>172.42857142857144</ele><time>2026-04-09T08:24:05.021Z</time></trkpt><trkpt lat="45.594960073655514" lon="9.284652143243871"><ele>172.28571428571428</ele><time>2026-04-09T08:24:09.021Z</time></trkpt><trkpt lat="45.59492089407493" lon="9.284727360536182"><ele>172.14285714285717</ele><time>2026-04-09T08:24:13.021Z</time></trkpt><trkpt lat="45.59488025262619" lon="9.284808630096105"><ele>172.0</ele><time>2026-04-09T08:24:18.021Z</time></trkpt><trkpt lat="45.594861651089204" lon="9.284909655431813"><ele>172.00000000000003</ele><time>2026-04-09T08:24:24.021Z</time></trkpt><trkpt lat="45.59488546088527" lon="9.28499657273495"><ele>172.0</ele><time>2026-04-09T08:24:30.021Z</time></trkpt><trkpt lat="45.59491240012791" lon="9.285083350759448"><ele>172.0</ele><time>2026-04-09T08:24:35.021Z</time></trkpt><trkpt lat="45.59494118029985" lon="9.28517990015206"><ele>172.0</ele><time>2026-04-09T08:24:40.021Z</time></trkpt><trkpt lat="45.59498449094013" lon="9.285266713811195"><ele>172.0</ele><time>2026-04-09T08:24:45.021Z</time></trkpt><trkpt lat="45.595013655322894" lon="9.285349344980302"><ele>172.00000000000003</ele><time>2026-04-09T08:24:49.021Z</time></trkpt><trkpt lat="45.59504690061923" lon="9.285437637800415"><ele>172.0</ele><time>2026-04-09T08:24:54.021Z</time></trkpt><trkpt lat="45.5950774689312" lon="9.28552779074729"><ele>171.71428571428572</ele><time>2026-04-09T08:24:59.021Z</time></trkpt><trkpt lat="45.59509480073037" lon="9.28562787776171"><ele>171.42857142857144</ele><time>2026-04-09T08:25:04.021Z</time></trkpt><trkpt lat="45.59511810530733" lon="9.2857271798426"><ele>171.14285714285717</ele><time>2026-04-09T08:25:10.021Z</time></trkpt><trkpt lat="45.595137296645945" lon="9.285828024243587"><ele>170.85714285714286</ele><time>2026-04-09T08:25:15.021Z</time></trkpt><trkpt lat="45.59516171038084" lon="9.28592783984752"><ele>170.57142857142856</ele><time>2026-04-09T08:25:21.021Z</time></trkpt><trkpt lat="45.595184234347755" lon="9.286018709289348"><ele>170.2857142857143</ele><time>2026-04-09T08:25:26.021Z</time></trkpt><trkpt lat="45.59520440708457" lon="9.286121898651382"><ele>170.0</ele><time>2026-04-09T08:25:32.021Z</time></trkpt><trkpt lat="45.595217943997596" lon="9.286211717133565"><ele>170.0</ele><time>2026-04-09T08:25:36.021Z</time></trkpt><trkpt lat="45.59522509264545" lon="9.286316121676364"><ele>170.0</ele><time>2026-04-09T08:25:41.021Z</time></trkpt><trkpt lat="45.59523561919376" lon="9.286407834309895"><ele>170.0</ele><time>2026-04-09T08:25:46.023Z</time></trkpt><trkpt lat="45.59525304934742" lon="9.286503893460898"><ele>170.0</ele><time>2026-04-09T08:25:50.959Z</time></trkpt><trkpt lat="45.59528722862835" lon="9.286596664367677"><ele>170.0</ele><time>2026-04-09T08:25:55.959Z</time></trkpt><trkpt lat="45.595309913940184" lon="9.28668332473306"><ele>170.0</ele><time>2026-04-09T08:26:00.958Z</time></trkpt><trkpt lat="45.59535296126592" lon="9.286771487153601"><ele>170.0</ele><time>2026-04-09T08:26:06.958Z</time></trkpt><trkpt lat="45.595392244300896" lon="9.286849361470939"><ele>169.57142857142858</ele><time>2026-04-09T08:26:11.958Z</time></trkpt><trkpt lat="45.595429344628116" lon="9.286941549159515"><ele>169.14285714285714</ele><time>2026-04-09T08:26:17.958Z</time></trkpt><trkpt lat="45.59546300794077" lon="9.287021919911162"><ele>168.71428571428572</ele><time>2026-04-09T08:26:22.958Z</time></trkpt><trkpt lat="45.595497285220404" lon="9.287106668695055"><ele>168.28571428571428</ele><time>2026-04-09T08:26:27.958Z</time></trkpt><trkpt lat="45.59553635882997" lon="9.287195800855676"><ele>167.85714285714286</ele><time>2026-04-09T08:26:33.957Z</time></trkpt><trkpt lat="45.595565692090645" lon="9.287294207191762"><ele>167.42857142857142</ele><time>2026-04-09T08:26:39.957Z</time></trkpt><trkpt lat="45.59560225254259" lon="9.287383937597987"><ele>167.0</ele><time>2026-04-09T08:26:44.957Z</time></trkpt><trkpt lat="45.59564829759145" lon="9.287467641773056"><ele>167.0</ele><time>2026-04-09T08:26:49.957Z</time></trkpt><trkpt lat="45.59569724278475" lon="9.28755719721616"><ele>167.0</ele><time>2026-04-09T08:26:54.957Z</time></trkpt><trkpt lat="45.595738342225225" lon="9.287645414861224"><ele>167.0</ele><time>2026-04-09T08:26:59.957Z</time></trkpt><trkpt lat="45.59578604740535" lon="9.287725996913393"><ele>167.0</ele><time>2026-04-09T08:27:05.957Z</time></trkpt><trkpt lat="45.59581820694078" lon="9.287811630850603"><ele>167.0</ele><time>2026-04-09T08:27:09.956Z</time></trkpt><trkpt lat="45.59586218692745" lon="9.287895780960284"><ele>167.0</ele><time>2026-04-09T08:27:14.956Z</time></trkpt><trkpt lat="45.59589800696611" lon="9.287992207752286"><ele>167.0</ele><time>2026-04-09T08:27:20.956Z</time></trkpt><trkpt lat="45.595929731811964" lon="9.288071388344372"><ele>167.28571428571428</ele><time>2026-04-09T08:27:25.956Z</time></trkpt><trkpt lat="45.5959681931359" lon="9.28815763551999"><ele>167.57142857142858</ele><time>2026-04-09T08:27:30.956Z</time></trkpt><trkpt lat="45.59601375101648" lon="9.288242406667996"><ele>167.85714285714286</ele><time>2026-04-09T08:27:35.956Z</time></trkpt><trkpt lat="45.5960593076152" lon="9.288333227307154"><ele>168.14285714285714</ele><time>2026-04-09T08:27:41.955Z</time></trkpt><trkpt lat="45.5960909614547" lon="9.288412939818587"><ele>168.42857142857142</ele><time>2026-04-09T08:27:46.955Z</time></trkpt><trkpt lat="45.59613168501056" lon="9.288503452542184"><ele>168.71428571428572</ele><time>2026-04-09T08:27:51.958Z</time></trkpt><trkpt lat="45.596162531913144" lon="9.288589549195652"><ele>169.0</ele><time>2026-04-09T08:27:56.958Z</time></trkpt><trkpt lat="45.59619886568286" lon="9.28867322344934"><ele>169.71428571428572</ele><time>2026-04-09T08:28:00.957Z</time></trkpt><trkpt lat="45.59624431482188" lon="9.288747475608442"><ele>170.42857142857142</ele><time>2026-04-09T08:28:06.958Z</time></trkpt><trkpt lat="45.59628988286791" lon="9.288836990306601"><ele>171.14285714285714</ele><time>2026-04-09T08:28:12.957Z</time></trkpt><trkpt lat="45.59633248273469" lon="9.288915165792378"><ele>171.85714285714286</ele><time>2026-04-09T08:28:16.957Z</time></trkpt><trkpt lat="45.59637020059349" lon="9.288997592346108"><ele>172.57142857142858</ele><time>2026-04-09T08:28:21.957Z</time></trkpt><trkpt lat="45.5964054108155" lon="9.2890789681535"><ele>173.28571428571428</ele><time>2026-04-09T08:28:26.957Z</time></trkpt><trkpt lat="45.596448734296196" lon="9.28915707332237"><ele>174.0</ele><time>2026-04-09T08:28:31.957Z</time></trkpt><trkpt lat="45.59648193119925" lon="9.289245124095777"><ele>174.0</ele><time>2026-04-09T08:28:36.957Z</time></trkpt><trkpt lat="45.59651827379456" lon="9.289338200021419"><ele>174.0</ele><time>2026-04-09T08:28:42.957Z</time></trkpt><trkpt lat="45.59655049113307" lon="9.289417285521584"><ele>174.0</ele><time>2026-04-09T08:28:47.956Z</time></trkpt><trkpt lat="45.59658947104422" lon="9.28950637590938"><ele>174.0</ele><time>2026-04-09T08:28:52.956Z</time></trkpt><trkpt lat="45.5966301284926" lon="9.289599081555755"><ele>174.0</ele><time>2026-04-09T08:28:58.956Z</time></trkpt><trkpt lat="45.596669313489734" lon="9.289686205163811"><ele>174.0</ele><time>2026-04-09T08:29:03.956Z</time></trkpt><trkpt lat="45.59670338915469" lon="9.289763361874108"><ele>174.0</ele><time>2026-04-09T08:29:08.956Z</time></trkpt><trkpt lat="45.596748046032715" lon="9.289842012993063"><ele>173.57142857142856</ele><time>2026-04-09T08:29:13.956Z</time></trkpt><trkpt lat="45.59678250523767" lon="9.289920014714744"><ele>173.14285714285714</ele><time>2026-04-09T08:29:18.955Z</time></trkpt><trkpt lat="45.59682404623706" lon="9.29001170070757"><ele>172.71428571428572</ele><time>2026-04-09T08:29:23.955Z</time></trkpt><trkpt lat="45.59685537221463" lon="9.29010225090279"><ele>172.28571428571428</ele><time>2026-04-09T08:29:28.955Z</time></trkpt><trkpt lat="45.596895928854835" lon="9.29019227485581"><ele>171.85714285714286</ele><time>2026-04-09T08:29:33.955Z</time></trkpt><trkpt lat="45.59693607125963" lon="9.290272296432757"><ele>171.42857142857142</ele><time>2026-04-09T08:29:38.955Z</time></trkpt><trkpt lat="45.59697044915906" lon="9.290359702347313"><ele>171.0</ele><time>2026-04-09T08:29:43.955Z</time></trkpt><trkpt lat="45.597010780524904" lon="9.290436046254415"><ele>170.99999999999997</ele><time>2026-04-09T08:29:48.955Z</time></trkpt><trkpt lat="45.59705986836339" lon="9.290517174535028"><ele>171.0</ele><time>2026-04-09T08:29:53.954Z</time></trkpt><trkpt lat="45.597093790492124" lon="9.290597553292676"><ele>171.0</ele><time>2026-04-09T08:29:58.956Z</time></trkpt><trkpt lat="45.597132722811025" lon="9.290684035130555"><ele>171.0</ele><time>2026-04-09T08:30:03.955Z</time></trkpt><trkpt lat="45.59717612705622" lon="9.290761076973816"><ele>171.0</ele><time>2026-04-09T08:30:08.956Z</time></trkpt><trkpt lat="45.597216688477" lon="9.29084035524455"><ele>170.99999999999997</ele><time>2026-04-09T08:30:13.956Z</time></trkpt><trkpt lat="45.59725562074374" lon="9.29091366085536"><ele>171.0</ele><time>2026-04-09T08:30:18.956Z</time></trkpt><trkpt lat="45.59729373883706" lon="9.290998015377932"><ele>171.28571428571428</ele><time>2026-04-09T08:30:23.956Z</time></trkpt><trkpt lat="45.59733232214076" lon="9.291075028784588"><ele>171.57142857142856</ele><time>2026-04-09T08:30:28.956Z</time></trkpt><trkpt lat="45.597370041598346" lon="9.291152108556807"><ele>171.85714285714283</ele><time>2026-04-09T08:30:32.955Z</time></trkpt><trkpt lat="45.59740146485788" lon="9.291240195122095"><ele>172.14285714285714</ele><time>2026-04-09T08:30:37.955Z</time></trkpt><trkpt lat="45.59743579608672" lon="9.291325407014035"><ele>172.42857142857144</ele><time>2026-04-09T08:30:42.955Z</time></trkpt><trkpt lat="45.59748119291097" lon="9.291414853133611"><ele>172.7142857142857</ele><time>2026-04-09T08:30:47.955Z</time></trkpt><trkpt lat="45.597525662617414" lon="9.291486902342768"><ele>173.0</ele><time>2026-04-09T08:30:53.955Z</time></trkpt><trkpt lat="45.597547686171254" lon="9.291576165717327"><ele>173.28571428571428</ele><time>2026-04-09T08:31:17.954Z</time></trkpt><trkpt lat="45.59759917266087" lon="9.29164803309514"><ele>173.57142857142858</ele><time>2026-04-09T08:31:22.954Z</time></trkpt><trkpt lat="45.59763995093558" lon="9.291726355639756"><ele>173.85714285714286</ele><time>2026-04-09T08:31:27.954Z</time></trkpt><trkpt lat="45.59767679120402" lon="9.29180587270411"><ele>174.14285714285714</ele><time>2026-04-09T08:31:32.954Z</time></trkpt><trkpt lat="45.59771924125152" lon="9.2918906175451"><ele>174.42857142857144</ele><time>2026-04-09T08:31:37.953Z</time></trkpt><trkpt lat="45.59776936948445" lon="9.291964343333303"><ele>174.71428571428572</ele><time>2026-04-09T08:31:43.953Z</time></trkpt><trkpt lat="45.59779787443872" lon="9.292049198673121"><ele>175.0</ele><time>2026-04-09T08:31:49.953Z</time></trkpt><trkpt lat="45.59784568222106" lon="9.292126931676588"><ele>175.0</ele><time>2026-04-09T08:31:54.953Z</time></trkpt><trkpt lat="45.597881567442485" lon="9.292216447261255"><ele>175.0</ele><time>2026-04-09T08:31:59.953Z</time></trkpt><trkpt lat="45.59791066940526" lon="9.292297744406557"><ele>175.0</ele><time>2026-04-09T08:32:04.954Z</time></trkpt><trkpt lat="45.59795110214934" lon="9.292385642909196"><ele>175.0</ele><time>2026-04-09T08:32:10.954Z</time></trkpt><trkpt lat="45.59798139277014" lon="9.292477851504106"><ele>175.0</ele><time>2026-04-09T08:32:16.954Z</time></trkpt><trkpt lat="45.598007925838864" lon="9.292561012025498"><ele>175.0</ele><time>2026-04-09T08:32:21.954Z</time></trkpt><trkpt lat="45.59804637983279" lon="9.292651718502755"><ele>175.0</ele><time>2026-04-09T08:32:26.953Z</time></trkpt><trkpt lat="45.59809127127803" lon="9.292739251221755"><ele>175.0</ele><time>2026-04-09T08:32:31.953Z</time></trkpt><trkpt lat="45.59812686904751" lon="9.292817822931196"><ele>175.0</ele><time>2026-04-09T08:32:35.953Z</time></trkpt><trkpt lat="45.598168549964186" lon="9.292899265724701"><ele>175.0</ele><time>2026-04-09T08:32:40.953Z</time></trkpt><trkpt lat="45.59821305750256" lon="9.292989978987531"><ele>175.0</ele><time>2026-04-09T08:32:45.953Z</time></trkpt><trkpt lat="45.59825151150935" lon="9.293073569505474"><ele>175.0</ele><time>2026-04-09T08:32:50.953Z</time></trkpt><trkpt lat="45.5982950523424" lon="9.293154100791693"><ele>175.0</ele><time>2026-04-09T08:32:55.953Z</time></trkpt><trkpt lat="45.59835468736444" lon="9.293227053112455"><ele>175.0</ele><time>2026-04-09T08:33:15.952Z</time></trkpt><trkpt lat="45.59838407460094" lon="9.29332459814351"><ele>174.5</ele><time>2026-04-09T08:33:19.952Z</time></trkpt><trkpt lat="45.598422322667304" lon="9.293418577682454"><ele>174.0</ele><time>2026-04-09T08:33:24.952Z</time></trkpt><trkpt lat="45.598463009899135" lon="9.293516876137124"><ele>173.5</ele><time>2026-04-09T08:33:29.952Z</time></trkpt><trkpt lat="45.598497581510564" lon="9.29359662625047"><ele>173.0</ele><time>2026-04-09T08:33:34.951Z</time></trkpt><trkpt lat="45.59853081891726" lon="9.29368238925472"><ele>172.5</ele><time>2026-04-09T08:33:38.951Z</time></trkpt><trkpt lat="45.5985706881722" lon="9.293763546773933"><ele>172.0</ele><time>2026-04-09T08:33:44.951Z</time></trkpt><trkpt lat="45.59869805997625" lon="9.293992578287227"><ele>173.00000000000003</ele><time>2026-04-09T08:33:59.951Z</time></trkpt><trkpt lat="45.5987411649212" lon="9.294076796725564"><ele>174.0</ele><time>2026-04-09T08:34:04.951Z</time></trkpt><trkpt lat="45.59877839247508" lon="9.294149557225252"><ele>175.0</ele><time>2026-04-09T08:34:09.952Z</time></trkpt><trkpt lat="45.59881494478803" lon="9.294240129247928"><ele>176.0</ele><time>2026-04-09T08:34:14.952Z</time></trkpt><trkpt lat="45.598848722909274" lon="9.294317866624768"><ele>177.0</ele><time>2026-04-09T08:34:19.952Z</time></trkpt><trkpt lat="45.59889336989167" lon="9.294381555656193"><ele>178.00000000000003</ele><time>2026-04-09T08:34:24.952Z</time></trkpt><trkpt lat="45.59892008723671" lon="9.294476451324618"><ele>179.0</ele><time>2026-04-09T08:34:29.952Z</time></trkpt><trkpt lat="45.59895705556527" lon="9.294576579307675"><ele>179.00000000000003</ele><time>2026-04-09T08:34:35.951Z</time></trkpt><trkpt lat="45.59898807441752" lon="9.294654896120543"><ele>179.0</ele><time>2026-04-09T08:34:40.951Z</time></trkpt><trkpt lat="45.599026797685646" lon="9.294741483135496"><ele>179.0</ele><time>2026-04-09T08:34:46.951Z</time></trkpt><trkpt lat="45.59905379984302" lon="9.294832695263366"><ele>179.0</ele><time>2026-04-09T08:34:50.951Z</time></trkpt><trkpt lat="45.59909120934063" lon="9.294916670845845"><ele>179.0</ele><time>2026-04-09T08:34:55.951Z</time></trkpt><trkpt lat="45.599133579922885" lon="9.295001488578567"><ele>179.00000000000003</ele><time>2026-04-09T08:35:00.951Z</time></trkpt><trkpt lat="45.59916845850116" lon="9.295090186825508"><ele>179.0</ele><time>2026-04-09T08:35:06.951Z</time></trkpt><trkpt lat="45.59921247726669" lon="9.29518693320243"><ele>179.14285714285717</ele><time>2026-04-09T08:35:11.95Z</time></trkpt><trkpt lat="45.59926058954919" lon="9.295292591508074"><ele>179.28571428571428</ele><time>2026-04-09T08:35:17.95Z</time></trkpt><trkpt lat="45.599305607096476" lon="9.295357462555218"><ele>179.42857142857144</ele><time>2026-04-09T08:35:21.95Z</time></trkpt><trkpt lat="45.59933509047966" lon="9.295439908479864"><ele>179.57142857142858</ele><time>2026-04-09T08:35:25.95Z</time></trkpt><trkpt lat="45.59936891240206" lon="9.295519779827611"><ele>179.71428571428572</ele><time>2026-04-09T08:35:30.95Z</time></trkpt><trkpt lat="45.59940603867927" lon="9.295603528563346"><ele>179.85714285714286</ele><time>2026-04-09T08:35:35.95Z</time></trkpt><trkpt lat="45.59944882992396" lon="9.295681341998389"><ele>180.0</ele><time>2026-04-09T08:35:41.949Z</time></trkpt><trkpt lat="45.59948366370916" lon="9.295776178451312"><ele>180.14285714285714</ele><time>2026-04-09T08:35:46.949Z</time></trkpt><trkpt lat="45.59952602302066" lon="9.295869225846019"><ele>180.2857142857143</ele><time>2026-04-09T08:35:53.949Z</time></trkpt><trkpt lat="45.599571976442846" lon="9.295944773970813"><ele>180.42857142857144</ele><time>2026-04-09T08:35:58.949Z</time></trkpt><trkpt lat="45.599610785033356" lon="9.296026469752185"><ele>180.57142857142856</ele><time>2026-04-09T08:36:03.949Z</time></trkpt><trkpt lat="45.59965179531713" lon="9.29609978000333"><ele>180.71428571428572</ele><time>2026-04-09T08:36:08.949Z</time></trkpt><trkpt lat="45.599693790242064" lon="9.296174247145492"><ele>180.85714285714286</ele><time>2026-04-09T08:36:13.951Z</time></trkpt><trkpt lat="45.59974582800821" lon="9.296232280587171"><ele>181.0</ele><time>2026-04-09T08:36:18.951Z</time></trkpt><trkpt lat="45.59981236195146" lon="9.296290302861655"><ele>181.0</ele><time>2026-04-09T08:36:24.95Z</time></trkpt><trkpt lat="45.59986428039184" lon="9.296347130381216"><ele>181.0</ele><time>2026-04-09T08:36:29.951Z</time></trkpt><trkpt lat="45.599935881255725" lon="9.296382397972414"><ele>181.0</ele><time>2026-04-09T08:36:34.951Z</time></trkpt><trkpt lat="45.59999901594809" lon="9.296404661595279"><ele>181.0</ele><time>2026-04-09T08:36:39.95Z</time></trkpt><trkpt lat="45.60006707426518" lon="9.296448372904385"><ele>181.0</ele><time>2026-04-09T08:36:44.95Z</time></trkpt><trkpt lat="45.60014041880368" lon="9.296492616393442"><ele>181.0</ele><time>2026-04-09T08:36:49.95Z</time></trkpt><trkpt lat="45.60021134478167" lon="9.296525157809363"><ele>181.0</ele><time>2026-04-09T08:36:55.95Z</time></trkpt><trkpt lat="45.60027652930297" lon="9.296567688678902"><ele>181.0</ele><time>2026-04-09T08:37:00.95Z</time></trkpt><trkpt lat="45.6003437198154" lon="9.296607153502306"><ele>181.0</ele><time>2026-04-09T08:37:05.95Z</time></trkpt><trkpt lat="45.60040724128155" lon="9.296639768991774"><ele>181.0</ele><time>2026-04-09T08:37:09.949Z</time></trkpt><trkpt lat="45.60054418634352" lon="9.296747473508443"><ele>181.0</ele><time>2026-04-09T08:37:19.949Z</time></trkpt><trkpt lat="45.60060633694007" lon="9.296801305033773"><ele>181.0</ele><time>2026-04-09T08:37:24.949Z</time></trkpt><trkpt lat="45.60066796376548" lon="9.296842776080464"><ele>181.0</ele><time>2026-04-09T08:37:29.949Z</time></trkpt><trkpt lat="45.60072024448424" lon="9.296894138483024"><ele>181.0</ele><time>2026-04-09T08:37:34.949Z</time></trkpt><trkpt lat="45.60077769471908" lon="9.296943311998572"><ele>181.0</ele><time>2026-04-09T08:37:39.949Z</time></trkpt><trkpt lat="45.60083473954505" lon="9.297002939855764"><ele>181.0</ele><time>2026-04-09T08:37:45.948Z</time></trkpt><trkpt lat="45.60088408187448" lon="9.297077017492283"><ele>181.0</ele><time>2026-04-09T08:37:50.948Z</time></trkpt><trkpt lat="45.600923268064804" lon="9.297153832625181"><ele>181.0</ele><time>2026-04-09T08:37:55.948Z</time></trkpt><trkpt lat="45.60097054563218" lon="9.297222582133307"><ele>181.0</ele><time>2026-04-09T08:38:00.948Z</time></trkpt><trkpt lat="45.60100294390073" lon="9.297301709371267"><ele>181.0</ele><time>2026-04-09T08:38:05.948Z</time></trkpt><trkpt lat="45.60104969383478" lon="9.297374751431478"><ele>180.57142857142856</ele><time>2026-04-09T08:38:10.948Z</time></trkpt><trkpt lat="45.60110492980048" lon="9.297435162243717"><ele>180.14285714285714</ele><time>2026-04-09T08:38:16.948Z</time></trkpt><trkpt lat="45.601163224723656" lon="9.297490479505283"><ele>179.71428571428572</ele><time>2026-04-09T08:38:20.949Z</time></trkpt><trkpt lat="45.60123783902008" lon="9.297512164965424"><ele>179.28571428571428</ele><time>2026-04-09T08:38:25.949Z</time></trkpt><trkpt lat="45.60130366174015" lon="9.297549436157738"><ele>178.85714285714286</ele><time>2026-04-09T08:38:30.948Z</time></trkpt><trkpt lat="45.601358539932924" lon="9.297603328427169"><ele>178.42857142857142</ele><time>2026-04-09T08:38:35.948Z</time></trkpt><trkpt lat="45.60140308204432" lon="9.297669310144894"><ele>178.0</ele><time>2026-04-09T08:38:40.948Z</time></trkpt><trkpt lat="45.60146548624561" lon="9.297716427376745"><ele>177.7142857142857</ele><time>2026-04-09T08:38:45.948Z</time></trkpt><trkpt lat="45.60153433087917" lon="9.297746381821568"><ele>177.42857142857142</ele><time>2026-04-09T08:38:51.948Z</time></trkpt><trkpt lat="45.60159671376279" lon="9.297795179351533"><ele>177.14285714285714</ele><time>2026-04-09T08:38:57.948Z</time></trkpt><trkpt lat="45.60165446508402" lon="9.297838823646236"><ele>176.85714285714283</ele><time>2026-04-09T08:39:01.948Z</time></trkpt><trkpt lat="45.60172261788264" lon="9.297880741880583"><ele>176.57142857142856</ele><time>2026-04-09T08:39:06.948Z</time></trkpt><trkpt lat="45.60178440307145" lon="9.297914405850571"><ele>176.28571428571428</ele><time>2026-04-09T08:39:11.947Z</time></trkpt><trkpt lat="45.601862443759934" lon="9.29796544441073"><ele>176.0</ele><time>2026-04-09T08:39:17.947Z</time></trkpt><trkpt lat="45.60192439658406" lon="9.297988600218009"><ele>176.0</ele><time>2026-04-09T08:39:22.947Z</time></trkpt><trkpt lat="45.60198513943253" lon="9.298028222239227"><ele>176.0</ele><time>2026-04-09T08:39:27.947Z</time></trkpt><trkpt lat="45.60204651138634" lon="9.29806637676969"><ele>176.0</ele><time>2026-04-09T08:39:32.947Z</time></trkpt><trkpt lat="45.60211101703496" lon="9.298112937229325"><ele>176.0</ele><time>2026-04-09T08:39:37.947Z</time></trkpt><trkpt lat="45.60216781477293" lon="9.29816245784641"><ele>176.0</ele><time>2026-04-09T08:39:41.947Z</time></trkpt><trkpt lat="45.60222189225" lon="9.298212790454954"><ele>176.0</ele><time>2026-04-09T08:39:45.946Z</time></trkpt><trkpt lat="45.60227375635576" lon="9.298267367349942"><ele>176.0</ele><time>2026-04-09T08:39:50.946Z</time></trkpt><trkpt lat="45.60233157178893" lon="9.298324950035244"><ele>176.28571428571428</ele><time>2026-04-09T08:39:56.946Z</time></trkpt><trkpt lat="45.60238907488986" lon="9.298372925649351"><ele>176.57142857142856</ele><time>2026-04-09T08:40:02.946Z</time></trkpt><trkpt lat="45.60244382747527" lon="9.298438454661818"><ele>176.85714285714283</ele><time>2026-04-09T08:40:07.946Z</time></trkpt><trkpt lat="45.602502746775" lon="9.298489588724868"><ele>177.14285714285714</ele><time>2026-04-09T08:40:13.946Z</time></trkpt><trkpt lat="45.60255873681761" lon="9.298557647506476"><ele>177.42857142857142</ele><time>2026-04-09T08:40:18.945Z</time></trkpt><trkpt lat="45.60261494205147" lon="9.298598521815888"><ele>177.7142857142857</ele><time>2026-04-09T08:40:23.945Z</time></trkpt><trkpt lat="45.60267629834472" lon="9.298635780310558"><ele>178.0</ele><time>2026-04-09T08:40:28.947Z</time></trkpt><trkpt lat="45.602759550522656" lon="9.2986538184267"><ele>177.99999999999997</ele><time>2026-04-09T08:40:34.947Z</time></trkpt><trkpt lat="45.602819857849695" lon="9.29862284515569"><ele>178.0</ele><time>2026-04-09T08:40:38.946Z</time></trkpt><trkpt lat="45.60287697320936" lon="9.29858103409364"><ele>178.0</ele><time>2026-04-09T08:40:42.946Z</time></trkpt><trkpt lat="45.602935776551604" lon="9.298503879879584"><ele>178.0</ele><time>2026-04-09T08:40:47.946Z</time></trkpt><trkpt lat="45.60299055705062" lon="9.29843364304716"><ele>178.0</ele><time>2026-04-09T08:40:52.946Z</time></trkpt><trkpt lat="45.60304373047792" lon="9.298370409040606"><ele>177.99999999999997</ele><time>2026-04-09T08:40:58.946Z</time></trkpt><trkpt lat="45.603097531113725" lon="9.298285945146157"><ele>178.0</ele><time>2026-04-09T08:41:04.946Z</time></trkpt><trkpt lat="45.603150752415175" lon="9.298226490984774"><ele>177.42857142857142</ele><time>2026-04-09T08:41:09.945Z</time></trkpt><trkpt lat="45.603191201917156" lon="9.29815544106413"><ele>176.85714285714286</ele><time>2026-04-09T08:41:14.945Z</time></trkpt><trkpt lat="45.60323451212608" lon="9.29807707917203"><ele>176.28571428571428</ele><time>2026-04-09T08:41:19.945Z</time></trkpt><trkpt lat="45.603285641121005" lon="9.297993187178333"><ele>175.71428571428572</ele><time>2026-04-09T08:41:24.945Z</time></trkpt><trkpt lat="45.603318835768924" lon="9.297912453899903"><ele>175.14285714285714</ele><time>2026-04-09T08:41:28.945Z</time></trkpt><trkpt lat="45.60335647362077" lon="9.297826825796148"><ele>174.57142857142856</ele><time>2026-04-09T08:41:33.945Z</time></trkpt><trkpt lat="45.603407018091225" lon="9.297769935669205"><ele>174.0</ele><time>2026-04-09T08:41:39.945Z</time></trkpt><trkpt lat="45.60346921990676" lon="9.297806336336517"><ele>173.71428571428572</ele><time>2026-04-09T08:41:44.944Z</time></trkpt><trkpt lat="45.60349998795217" lon="9.297885298504216"><ele>173.42857142857144</ele><time>2026-04-09T08:41:49.944Z</time></trkpt><trkpt lat="45.60357425028148" lon="9.29784219949727"><ele>173.14285714285717</ele><time>2026-04-09T08:41:57.93Z</time></trkpt><trkpt lat="45.60362606657602" lon="9.297776640534236"><ele>172.85714285714286</ele><time>2026-04-09T08:42:03.923Z</time></trkpt><trkpt lat="45.60368042954365" lon="9.297710902069735"><ele>172.57142857142858</ele><time>2026-04-09T08:42:09.918Z</time></trkpt><trkpt lat="45.60372953641904" lon="9.297633266494246"><ele>172.2857142857143</ele><time>2026-04-09T08:42:14.915Z</time></trkpt><trkpt lat="45.60377910881291" lon="9.29756276123381"><ele>172.0</ele><time>2026-04-09T08:42:19.913Z</time></trkpt><trkpt lat="45.6038373675862" lon="9.297514478160327"><ele>171.57142857142858</ele><time>2026-04-09T08:42:24.912Z</time></trkpt><trkpt lat="45.60390367880009" lon="9.29747077035544"><ele>171.14285714285714</ele><time>2026-04-09T08:42:30.91Z</time></trkpt><trkpt lat="45.60396567708155" lon="9.297489376841822"><ele>170.71428571428572</ele><time>2026-04-09T08:42:35.912Z</time></trkpt><trkpt lat="45.60403569374241" lon="9.29752829767166"><ele>170.28571428571428</ele><time>2026-04-09T08:42:40.911Z</time></trkpt><trkpt lat="45.604109636736496" lon="9.297560802289226"><ele>169.85714285714286</ele><time>2026-04-09T08:42:45.911Z</time></trkpt><trkpt lat="45.604173845911326" lon="9.297594632618559"><ele>169.42857142857144</ele><time>2026-04-09T08:42:50.91Z</time></trkpt><trkpt lat="45.60423617724481" lon="9.297639754437435"><ele>169.0</ele><time>2026-04-09T08:42:55.91Z</time></trkpt><trkpt lat="45.60429554938007" lon="9.297701208838337"><ele>169.0</ele><time>2026-04-09T08:43:00.909Z</time></trkpt><trkpt lat="45.60436062198665" lon="9.29775023318251"><ele>169.0</ele><time>2026-04-09T08:43:05.909Z</time></trkpt><trkpt lat="45.604428256270566" lon="9.297796442675418"><ele>169.0</ele><time>2026-04-09T08:43:10.909Z</time></trkpt><trkpt lat="45.604481319017346" lon="9.297856695902594"><ele>169.0</ele><time>2026-04-09T08:43:15.909Z</time></trkpt><trkpt lat="45.60454242578081" lon="9.297915225199173"><ele>169.0</ele><time>2026-04-09T08:43:20.908Z</time></trkpt><trkpt lat="45.60460174728352" lon="9.297976871567641"><ele>169.0</ele><time>2026-04-09T08:43:25.908Z</time></trkpt><trkpt lat="45.60464522839919" lon="9.298058810255014"><ele>169.0</ele><time>2026-04-09T08:43:30.908Z</time></trkpt><trkpt lat="45.60471114231676" lon="9.29810728327015"><ele>169.14285714285714</ele><time>2026-04-09T08:43:35.908Z</time></trkpt><trkpt lat="45.604781966153524" lon="9.298145864029157"><ele>169.28571428571428</ele><time>2026-04-09T08:43:41.907Z</time></trkpt><trkpt lat="45.60484430658023" lon="9.298167740049049"><ele>169.42857142857144</ele><time>2026-04-09T08:43:46.907Z</time></trkpt><trkpt lat="45.60491007819765" lon="9.298201351756529"><ele>169.57142857142856</ele><time>2026-04-09T08:43:51.907Z</time></trkpt><trkpt lat="45.60497094638824" lon="9.29823742594744"><ele>169.7142857142857</ele><time>2026-04-09T08:43:56.907Z</time></trkpt><trkpt lat="45.60503637553354" lon="9.29827281936214"><ele>169.85714285714286</ele><time>2026-04-09T08:44:01.907Z</time></trkpt><trkpt lat="45.605107314801025" lon="9.298321234673798"><ele>170.0</ele><time>2026-04-09T08:44:06.906Z</time></trkpt><trkpt lat="45.60516213990348" lon="9.298370362372305"><ele>170.0</ele><time>2026-04-09T08:44:11.906Z</time></trkpt><trkpt lat="45.60523073444082" lon="9.298411549640726"><ele>170.0</ele><time>2026-04-09T08:44:16.906Z</time></trkpt><trkpt lat="45.60529856096005" lon="9.298449078246012"><ele>170.0</ele><time>2026-04-09T08:44:21.906Z</time></trkpt><trkpt lat="45.60536410417413" lon="9.298477677326158"><ele>170.0</ele><time>2026-04-09T08:44:26.906Z</time></trkpt><trkpt lat="45.60542892267738" lon="9.298524010826155"><ele>170.0</ele><time>2026-04-09T08:44:32.905Z</time></trkpt><trkpt lat="45.60548833353361" lon="9.298569649988316"><ele>170.0</ele><time>2026-04-09T08:44:37.908Z</time></trkpt><trkpt lat="45.60554550505743" lon="9.298618282193504"><ele>170.0</ele><time>2026-04-09T08:44:43.907Z</time></trkpt><trkpt lat="45.60560339779213" lon="9.298687685979782"><ele>169.71428571428572</ele><time>2026-04-09T08:44:47.907Z</time></trkpt><trkpt lat="45.60564113545644" lon="9.29876524923638"><ele>169.42857142857142</ele><time>2026-04-09T08:44:51.907Z</time></trkpt><trkpt lat="45.605688149645665" lon="9.298839565515646"><ele>169.14285714285714</ele><time>2026-04-09T08:44:56.907Z</time></trkpt><trkpt lat="45.60573519925729" lon="9.298914277912289"><ele>168.85714285714286</ele><time>2026-04-09T08:45:01.907Z</time></trkpt><trkpt lat="45.60577431773478" lon="9.29901000652607"><ele>168.57142857142856</ele><time>2026-04-09T08:45:06.907Z</time></trkpt><trkpt lat="45.60581130930315" lon="9.299107697016028"><ele>168.28571428571428</ele><time>2026-04-09T08:45:12.906Z</time></trkpt><trkpt lat="45.6058332921972" lon="9.299209640295024"><ele>168.0</ele><time>2026-04-09T08:45:17.906Z</time></trkpt><trkpt lat="45.605857029205694" lon="9.299307523567688"><ele>168.0</ele><time>2026-04-09T08:45:22.906Z</time></trkpt><trkpt lat="45.605888049277844" lon="9.299403184989782"><ele>168.0</ele><time>2026-04-09T08:45:27.906Z</time></trkpt><trkpt lat="45.605920468411526" lon="9.299487288246027"><ele>168.0</ele><time>2026-04-09T08:45:32.906Z</time></trkpt><trkpt lat="45.60595498824475" lon="9.299568209283924"><ele>168.0</ele><time>2026-04-09T08:45:37.906Z</time></trkpt><trkpt lat="45.60602571815927" lon="9.29963098857101"><ele>168.0</ele><time>2026-04-09T08:45:42.905Z</time></trkpt><trkpt lat="45.60608803966145" lon="9.299647018974518"><ele>168.0</ele><time>2026-04-09T08:45:46.905Z</time></trkpt><trkpt lat="45.606161492001945" lon="9.29965786934878"><ele>168.0</ele><time>2026-04-09T08:45:53.905Z</time></trkpt><trkpt lat="45.60623669053193" lon="9.299652555440533"><ele>168.42857142857142</ele><time>2026-04-09T08:45:58.905Z</time></trkpt><trkpt lat="45.60630508208167" lon="9.299651995835411"><ele>168.85714285714286</ele><time>2026-04-09T08:46:03.905Z</time></trkpt><trkpt lat="45.606383770712995" lon="9.299639838293572"><ele>169.28571428571428</ele><time>2026-04-09T08:46:09.904Z</time></trkpt><trkpt lat="45.60644931270666" lon="9.299627207559446"><ele>169.71428571428572</ele><time>2026-04-09T08:46:14.904Z</time></trkpt><trkpt lat="45.60652589485881" lon="9.29962185581159"><ele>170.14285714285714</ele><time>2026-04-09T08:46:19.904Z</time></trkpt><trkpt lat="45.60659909090158" lon="9.299615746559956"><ele>170.57142857142856</ele><time>2026-04-09T08:46:25.904Z</time></trkpt><trkpt lat="45.60666256175944" lon="9.299622452972487"><ele>171.0</ele><time>2026-04-09T08:46:30.903Z</time></trkpt><trkpt lat="45.60673536094971" lon="9.299606224601344"><ele>170.99999999999997</ele><time>2026-04-09T08:46:36.903Z</time></trkpt><trkpt lat="45.60680083922288" lon="9.29955712592327"><ele>171.0</ele><time>2026-04-09T08:46:42.903Z</time></trkpt><trkpt lat="45.606862268390955" lon="9.299510119630408"><ele>171.0</ele><time>2026-04-09T08:46:47.903Z</time></trkpt><trkpt lat="45.60691608295333" lon="9.299448768641597"><ele>171.0</ele><time>2026-04-09T08:46:52.903Z</time></trkpt><trkpt lat="45.60697705783074" lon="9.299407734541015"><ele>171.0</ele><time>2026-04-09T08:46:57.904Z</time></trkpt><trkpt lat="45.60702933233222" lon="9.299352956683114"><ele>170.99999999999997</ele><time>2026-04-09T08:47:02.904Z</time></trkpt><trkpt lat="45.6070872562533" lon="9.299316899622987"><ele>171.0</ele><time>2026-04-09T08:47:07.904Z</time></trkpt><trkpt lat="45.607149687068365" lon="9.299292762277943"><ele>170.99999999999997</ele><time>2026-04-09T08:47:12.903Z</time></trkpt><trkpt lat="45.6072133828082" lon="9.2993022422022"><ele>171.0</ele><time>2026-04-09T08:47:18.903Z</time></trkpt><trkpt lat="45.60727433324639" lon="9.29934839120867"><ele>171.0</ele><time>2026-04-09T08:47:24.903Z</time></trkpt><trkpt lat="45.60734808008059" lon="9.299384175206036"><ele>171.0</ele><time>2026-04-09T08:47:29.903Z</time></trkpt><trkpt lat="45.60741992474174" lon="9.299420589684084"><ele>171.0</ele><time>2026-04-09T08:47:35.902Z</time></trkpt><trkpt lat="45.60749120391992" lon="9.29937148429211"><ele>170.99999999999997</ele><time>2026-04-09T08:47:43.902Z</time></trkpt><trkpt lat="45.60756862165335" lon="9.299353557729436"><ele>171.0</ele><time>2026-04-09T08:47:49.902Z</time></trkpt><trkpt lat="45.60763030113365" lon="9.299383321736322"><ele>171.0</ele><time>2026-04-09T08:47:55.902Z</time></trkpt><trkpt lat="45.60774129361566" lon="9.29929524225483"><ele>171.0</ele><time>2026-04-09T08:50:32.897Z</time></trkpt><trkpt lat="45.60780381828757" lon="9.299353117839635"><ele>171.0</ele><time>2026-04-09T08:50:50.896Z</time></trkpt><trkpt lat="45.60782705871598" lon="9.299456838502724"><ele>171.0</ele><time>2026-04-09T09:08:02.874Z</time></trkpt><trkpt lat="45.60774289777475" lon="9.299476382563928"><ele>171.0</ele><time>2026-04-09T09:08:25.873Z</time></trkpt><trkpt lat="45.607677693266226" lon="9.299415197429443"><ele>171.0</ele><time>2026-04-09T09:08:33.872Z</time></trkpt><trkpt lat="45.607618199757994" lon="9.299356737670127"><ele>170.99999999999997</ele><time>2026-04-09T09:08:39.872Z</time></trkpt><trkpt lat="45.60754586790583" lon="9.299370694000935"><ele>171.0</ele><time>2026-04-09T09:08:45.872Z</time></trkpt><trkpt lat="45.60751692767345" lon="9.2992729499168"><ele>171.0</ele><time>2026-04-09T09:08:52.872Z</time></trkpt><trkpt lat="45.60751698743565" lon="9.29917833535804"><ele>171.0</ele><time>2026-04-09T09:08:58.871Z</time></trkpt><trkpt lat="45.607510024946976" lon="9.299085978876702"><ele>171.0</ele><time>2026-04-09T09:09:03.871Z</time></trkpt><trkpt lat="45.60753271244727" lon="9.298993738611887"><ele>170.99999999999997</ele><time>2026-04-09T09:09:08.871Z</time></trkpt><trkpt lat="45.60755516483856" lon="9.298903564271146"><ele>171.0</ele><time>2026-04-09T09:09:13.871Z</time></trkpt><trkpt lat="45.607564997474356" lon="9.29879120954092"><ele>170.85714285714283</ele><time>2026-04-09T09:09:19.871Z</time></trkpt><trkpt lat="45.607569661939195" lon="9.298691560900735"><ele>170.71428571428572</ele><time>2026-04-09T09:09:24.87Z</time></trkpt><trkpt lat="45.60758568341238" lon="9.298586617611157"><ele>170.57142857142856</ele><time>2026-04-09T09:09:29.87Z</time></trkpt><trkpt lat="45.607606806464446" lon="9.298496026783374"><ele>170.42857142857142</ele><time>2026-04-09T09:09:34.87Z</time></trkpt><trkpt lat="45.607635928562544" lon="9.298406874921694"><ele>170.28571428571428</ele><time>2026-04-09T09:09:39.87Z</time></trkpt><trkpt lat="45.607664564305146" lon="9.298318944907072"><ele>170.14285714285714</ele><time>2026-04-09T09:09:44.87Z</time></trkpt><trkpt lat="45.60770069650793" lon="9.298229032809518"><ele>170.0</ele><time>2026-04-09T09:09:49.871Z</time></trkpt><trkpt lat="45.60771636783542" lon="9.29812079518593"><ele>170.42857142857144</ele><time>2026-04-09T09:09:53.871Z</time></trkpt><trkpt lat="45.60775501617748" lon="9.298036364695525"><ele>170.85714285714283</ele><time>2026-04-09T09:09:58.871Z</time></trkpt><trkpt lat="45.6077823517202" lon="9.297946518271495"><ele>171.28571428571428</ele><time>2026-04-09T09:10:03.871Z</time></trkpt><trkpt lat="45.60782111413728" lon="9.29785919889108"><ele>171.71428571428572</ele><time>2026-04-09T09:10:09.871Z</time></trkpt><trkpt lat="45.60785732503391" lon="9.297784135481306"><ele>172.14285714285717</ele><time>2026-04-09T09:10:14.871Z</time></trkpt><trkpt lat="45.60792397913082" lon="9.297744057325337"><ele>172.57142857142856</ele><time>2026-04-09T09:10:21.87Z</time></trkpt><trkpt lat="45.60798626938798" lon="9.297726909505936"><ele>173.0</ele><time>2026-04-09T09:10:27.87Z</time></trkpt><trkpt lat="45.60804893005714" lon="9.297687052530128"><ele>173.0</ele><time>2026-04-09T09:10:33.87Z</time></trkpt><trkpt lat="45.60811373018394" lon="9.297626666754937"><ele>173.0</ele><time>2026-04-09T09:10:39.87Z</time></trkpt><trkpt lat="45.608163038655185" lon="9.297550663346572"><ele>173.0</ele><time>2026-04-09T09:10:43.869Z</time></trkpt><trkpt lat="45.60821299491163" lon="9.297473585123033"><ele>173.0</ele><time>2026-04-09T09:10:48.869Z</time></trkpt><trkpt lat="45.60826111043052" lon="9.297396009154943"><ele>173.0</ele><time>2026-04-09T09:10:53.869Z</time></trkpt><trkpt lat="45.60832495242725" lon="9.297333302420371"><ele>173.0</ele><time>2026-04-09T09:10:58.869Z</time></trkpt><trkpt lat="45.60839253713009" lon="9.297309472142103"><ele>173.0</ele><time>2026-04-09T09:11:03.869Z</time></trkpt><trkpt lat="45.60846958443642" lon="9.297337549638977"><ele>173.0</ele><time>2026-04-09T09:11:10.868Z</time></trkpt><trkpt lat="45.60854296647845" lon="9.29737920216199"><ele>173.0</ele><time>2026-04-09T09:11:16.868Z</time></trkpt><trkpt lat="45.60861313800567" lon="9.297432664720736"><ele>173.0</ele><time>2026-04-09T09:11:20.868Z</time></trkpt><trkpt lat="45.60867068921093" lon="9.297477508749289"><ele>173.0</ele><time>2026-04-09T09:11:24.868Z</time></trkpt><trkpt lat="45.60874207606784" lon="9.297526345623618"><ele>173.0</ele><time>2026-04-09T09:11:30.868Z</time></trkpt><trkpt lat="45.60879951080398" lon="9.297574708084461"><ele>173.0</ele><time>2026-04-09T09:11:34.868Z</time></trkpt><trkpt lat="45.608862015041495" lon="9.297630049419642"><ele>173.0</ele><time>2026-04-09T09:11:40.867Z</time></trkpt><trkpt lat="45.608931303704324" lon="9.297682919519723"><ele>173.28571428571428</ele><time>2026-04-09T09:11:45.867Z</time></trkpt><trkpt lat="45.608990796210854" lon="9.29772691597488"><ele>173.57142857142858</ele><time>2026-04-09T09:11:49.867Z</time></trkpt><trkpt lat="45.60905783852702" lon="9.297751852782419"><ele>173.85714285714286</ele><time>2026-04-09T09:11:54.869Z</time></trkpt><trkpt lat="45.60913118891647" lon="9.297787349428395"><ele>174.14285714285714</ele><time>2026-04-09T09:11:59.868Z</time></trkpt><trkpt lat="45.60919095495079" lon="9.297824482749945"><ele>174.42857142857144</ele><time>2026-04-09T09:12:04.869Z</time></trkpt><trkpt lat="45.60925391212749" lon="9.297848323188713"><ele>174.71428571428572</ele><time>2026-04-09T09:12:09.868Z</time></trkpt><trkpt lat="45.60931810646739" lon="9.29786781686484"><ele>175.0</ele><time>2026-04-09T09:12:14.868Z</time></trkpt><trkpt lat="45.609388014473545" lon="9.297885672452978"><ele>175.0</ele><time>2026-04-09T09:12:19.868Z</time></trkpt><trkpt lat="45.60945892857312" lon="9.29789623281172"><ele>175.0</ele><time>2026-04-09T09:12:24.868Z</time></trkpt><trkpt lat="45.60953100839627" lon="9.29790875886814"><ele>175.0</ele><time>2026-04-09T09:12:30.868Z</time></trkpt><trkpt lat="45.6096085877777" lon="9.297912860543136"><ele>175.0</ele><time>2026-04-09T09:12:35.867Z</time></trkpt><trkpt lat="45.60967435023578" lon="9.297916709754851"><ele>175.0</ele><time>2026-04-09T09:12:39.867Z</time></trkpt><trkpt lat="45.609746130765366" lon="9.297909015106233"><ele>175.0</ele><time>2026-04-09T09:12:44.867Z</time></trkpt><trkpt lat="45.609816730056004" lon="9.297914166146809"><ele>175.0</ele><time>2026-04-09T09:12:49.867Z</time></trkpt><trkpt lat="45.60988260196636" lon="9.297910508687597"><ele>174.57142857142858</ele><time>2026-04-09T09:12:54.867Z</time></trkpt><trkpt lat="45.60995544890632" lon="9.297905338574573"><ele>174.14285714285714</ele><time>2026-04-09T09:13:00.867Z</time></trkpt><trkpt lat="45.61003461944946" lon="9.29789865010503"><ele>173.71428571428572</ele><time>2026-04-09T09:13:06.866Z</time></trkpt><trkpt lat="45.61009726653338" lon="9.297878450679486"><ele>173.28571428571428</ele><time>2026-04-09T09:13:11.866Z</time></trkpt><trkpt lat="45.610168354301706" lon="9.297864108124468"><ele>172.85714285714286</ele><time>2026-04-09T09:13:16.866Z</time></trkpt><trkpt lat="45.610232545643555" lon="9.297851042450844"><ele>172.42857142857144</ele><time>2026-04-09T09:13:21.866Z</time></trkpt><trkpt lat="45.61029994242651" lon="9.297843935307014"><ele>172.0</ele><time>2026-04-09T09:13:25.866Z</time></trkpt><trkpt lat="45.61037451238776" lon="9.297823299719104"><ele>172.00000000000003</ele><time>2026-04-09T09:13:30.865Z</time></trkpt><trkpt lat="45.61044302407525" lon="9.29778928874909"><ele>172.0</ele><time>2026-04-09T09:13:36.865Z</time></trkpt><trkpt lat="45.61049944499051" lon="9.297749195200264"><ele>172.0</ele><time>2026-04-09T09:13:40.865Z</time></trkpt><trkpt lat="45.610556598448284" lon="9.297700860260973"><ele>172.0</ele><time>2026-04-09T09:13:45.865Z</time></trkpt><trkpt lat="45.610629323332056" lon="9.29765825186098"><ele>172.0</ele><time>2026-04-09T09:13:51.865Z</time></trkpt><trkpt lat="45.610697520822214" lon="9.297627832937247"><ele>172.00000000000003</ele><time>2026-04-09T09:13:56.864Z</time></trkpt><trkpt lat="45.610760817808284" lon="9.297589759555219"><ele>172.0</ele><time>2026-04-09T09:14:01.865Z</time></trkpt><trkpt lat="45.61081260721227" lon="9.297512308798368"><ele>172.00000000000003</ele><time>2026-04-09T09:14:06.866Z</time></trkpt><trkpt lat="45.61086812630017" lon="9.297431981445333"><ele>172.0</ele><time>2026-04-09T09:14:11.865Z</time></trkpt><trkpt lat="45.610927254468585" lon="9.297397209178817"><ele>172.0</ele><time>2026-04-09T09:14:16.865Z</time></trkpt><trkpt lat="45.61099724955582" lon="9.29734834363873"><ele>172.0</ele><time>2026-04-09T09:14:21.865Z</time></trkpt><trkpt lat="45.611066259389375" lon="9.297315333518169"><ele>172.0</ele><time>2026-04-09T09:14:27.865Z</time></trkpt><trkpt lat="45.61112839043047" lon="9.297285916178803"><ele>172.00000000000003</ele><time>2026-04-09T09:14:32.864Z</time></trkpt><trkpt lat="45.6111939429903" lon="9.297263249350456"><ele>172.0</ele><time>2026-04-09T09:14:37.864Z</time></trkpt><trkpt lat="45.6112634800723" lon="9.29723141537798"><ele>172.14285714285717</ele><time>2026-04-09T09:14:42.864Z</time></trkpt><trkpt lat="45.61132957638821" lon="9.297198409502966"><ele>172.28571428571428</ele><time>2026-04-09T09:14:47.864Z</time></trkpt><trkpt lat="45.61140166925138" lon="9.297191635990117"><ele>172.42857142857144</ele><time>2026-04-09T09:14:52.864Z</time></trkpt><trkpt lat="45.61146994632898" lon="9.2971737439076"><ele>172.57142857142858</ele><time>2026-04-09T09:14:57.863Z</time></trkpt><trkpt lat="45.61154820593565" lon="9.297171488945203"><ele>172.71428571428572</ele><time>2026-04-09T09:15:03.863Z</time></trkpt><trkpt lat="45.611620773466555" lon="9.297151889119634"><ele>172.85714285714286</ele><time>2026-04-09T09:15:08.863Z</time></trkpt><trkpt lat="45.611687293406035" lon="9.297123078082445"><ele>173.0</ele><time>2026-04-09T09:15:14.863Z</time></trkpt><trkpt lat="45.61176183530675" lon="9.29709706706757"><ele>173.0</ele><time>2026-04-09T09:15:21.862Z</time></trkpt><trkpt lat="45.61182336972052" lon="9.297075761027585"><ele>173.0</ele><time>2026-04-09T09:15:25.862Z</time></trkpt><trkpt lat="45.61189563801484" lon="9.297061360361353"><ele>173.0</ele><time>2026-04-09T09:15:30.862Z</time></trkpt><trkpt lat="45.611956718421496" lon="9.297031662163171"><ele>173.0</ele><time>2026-04-09T09:15:35.862Z</time></trkpt><trkpt lat="45.61202038296808" lon="9.297001182334787"><ele>173.0</ele><time>2026-04-09T09:15:39.862Z</time></trkpt><trkpt lat="45.612091438817345" lon="9.296961250135961"><ele>173.0</ele><time>2026-04-09T09:15:44.862Z</time></trkpt><trkpt lat="45.612153178537284" lon="9.296917135745451"><ele>173.0</ele><time>2026-04-09T09:15:49.861Z</time></trkpt><trkpt lat="45.61221050551084" lon="9.296875823575833"><ele>173.0</ele><time>2026-04-09T09:15:55.861Z</time></trkpt><trkpt lat="45.612268995226145" lon="9.296826008671578"><ele>173.0</ele><time>2026-04-09T09:16:00.861Z</time></trkpt><trkpt lat="45.61233618546958" lon="9.296777734832245"><ele>173.0</ele><time>2026-04-09T09:16:07.863Z</time></trkpt><trkpt lat="45.61239463098327" lon="9.296718018285134"><ele>173.0</ele><time>2026-04-09T09:16:11.863Z</time></trkpt><trkpt lat="45.612449400965716" lon="9.296657533011517"><ele>173.0</ele><time>2026-04-09T09:16:16.862Z</time></trkpt><trkpt lat="45.612505778162884" lon="9.296599715682415"><ele>173.0</ele><time>2026-04-09T09:16:21.863Z</time></trkpt><trkpt lat="45.61255905639166" lon="9.296537794937413"><ele>173.0</ele><time>2026-04-09T09:16:26.862Z</time></trkpt><trkpt lat="45.61261482736557" lon="9.296461783037827"><ele>173.42857142857142</ele><time>2026-04-09T09:16:31.862Z</time></trkpt><trkpt lat="45.61266109324093" lon="9.296378330742813"><ele>173.85714285714286</ele><time>2026-04-09T09:16:37.862Z</time></trkpt><trkpt lat="45.612703746969544" lon="9.296296227833574"><ele>174.28571428571428</ele><time>2026-04-09T09:16:42.862Z</time></trkpt><trkpt lat="45.61272471973733" lon="9.296199480862425"><ele>174.71428571428572</ele><time>2026-04-09T09:16:48.862Z</time></trkpt><trkpt lat="45.61274721546402" lon="9.296109871859686"><ele>175.14285714285714</ele><time>2026-04-09T09:16:53.861Z</time></trkpt><trkpt lat="45.61277303605011" lon="9.296010187294584"><ele>175.57142857142858</ele><time>2026-04-09T09:16:58.861Z</time></trkpt><trkpt lat="45.61279472829336" lon="9.295921476034435"><ele>176.0</ele><time>2026-04-09T09:17:03.861Z</time></trkpt><trkpt lat="45.61283739332707" lon="9.295823488764404"><ele>176.14285714285714</ele><time>2026-04-09T09:17:08.861Z</time></trkpt><trkpt lat="45.61285035460227" lon="9.295727565172472"><ele>176.28571428571428</ele><time>2026-04-09T09:17:13.861Z</time></trkpt><trkpt lat="45.612861639313856" lon="9.29562602781756"><ele>176.42857142857144</ele><time>2026-04-09T09:17:21.86Z</time></trkpt><trkpt lat="45.612875099881265" lon="9.295531897960686"><ele>176.57142857142856</ele><time>2026-04-09T09:17:27.86Z</time></trkpt><trkpt lat="45.61288184913984" lon="9.295430288255954"><ele>176.7142857142857</ele><time>2026-04-09T09:17:32.86Z</time></trkpt><trkpt lat="45.61287840374785" lon="9.295338447632293"><ele>176.85714285714286</ele><time>2026-04-09T09:17:36.86Z</time></trkpt><trkpt lat="45.61287347778029" lon="9.295234206853715"><ele>177.0</ele><time>2026-04-09T09:17:42.86Z</time></trkpt><trkpt lat="45.612862532154004" lon="9.295140084254244"><ele>177.42857142857144</ele><time>2026-04-09T09:17:47.859Z</time></trkpt><trkpt lat="45.612883888160084" lon="9.295046005289596"><ele>177.85714285714283</ele><time>2026-04-09T09:17:52.859Z</time></trkpt><trkpt lat="45.612922940488914" lon="9.294962618863975"><ele>178.28571428571428</ele><time>2026-04-09T09:17:57.859Z</time></trkpt><trkpt lat="45.612972085862694" lon="9.294896308585562"><ele>178.71428571428572</ele><time>2026-04-09T09:18:01.859Z</time></trkpt><trkpt lat="45.61302147605459" lon="9.294815651932058"><ele>179.14285714285717</ele><time>2026-04-09T09:18:06.859Z</time></trkpt><trkpt lat="45.613055106602545" lon="9.2947333785825"><ele>179.57142857142856</ele><time>2026-04-09T09:18:11.858Z</time></trkpt><trkpt lat="45.6131127762367" lon="9.294670349729927"><ele>180.0</ele><time>2026-04-09T09:18:16.86Z</time></trkpt><trkpt lat="45.61316605037004" lon="9.294603049579374"><ele>180.0</ele><time>2026-04-09T09:18:21.861Z</time></trkpt><trkpt lat="45.61323358110673" lon="9.294558452913419"><ele>180.0</ele><time>2026-04-09T09:18:26.86Z</time></trkpt><trkpt lat="45.61330034729952" lon="9.294515750180818"><ele>180.0</ele><time>2026-04-09T09:18:31.86Z</time></trkpt><trkpt lat="45.61336596463738" lon="9.2944754637435"><ele>180.0</ele><time>2026-04-09T09:18:36.859Z</time></trkpt><trkpt lat="45.61344037845868" lon="9.294442441813953"><ele>180.0</ele><time>2026-04-09T09:18:42.859Z</time></trkpt><trkpt lat="45.61351291276856" lon="9.294423463923223"><ele>180.0</ele><time>2026-04-09T09:18:47.859Z</time></trkpt><trkpt lat="45.61357380142982" lon="9.294400423792407"><ele>180.0</ele><time>2026-04-09T09:18:52.859Z</time></trkpt><trkpt lat="45.613648081233" lon="9.29438202586178"><ele>180.42857142857142</ele><time>2026-04-09T09:18:58.859Z</time></trkpt><trkpt lat="45.613712757183144" lon="9.29437171461832"><ele>180.85714285714286</ele><time>2026-04-09T09:19:04.858Z</time></trkpt><trkpt lat="45.61378901166062" lon="9.294369187292341"><ele>181.28571428571428</ele><time>2026-04-09T09:19:10.858Z</time></trkpt><trkpt lat="45.61385658791245" lon="9.294372000678685"><ele>181.71428571428572</ele><time>2026-04-09T09:19:14.858Z</time></trkpt><trkpt lat="45.61392897179077" lon="9.294376628063034"><ele>182.14285714285717</ele><time>2026-04-09T09:19:19.858Z</time></trkpt><trkpt lat="45.61400299958622" lon="9.294384468108403"><ele>182.57142857142858</ele><time>2026-04-09T09:19:25.858Z</time></trkpt><trkpt lat="45.61407765744018" lon="9.294400421570147"><ele>183.0</ele><time>2026-04-09T09:19:30.857Z</time></trkpt><trkpt lat="45.614147632233326" lon="9.294407726423234"><ele>183.0</ele><time>2026-04-09T09:19:35.857Z</time></trkpt><trkpt lat="45.61421955176215" lon="9.294401466766514"><ele>183.0</ele><time>2026-04-09T09:19:40.857Z</time></trkpt><trkpt lat="45.614283863147264" lon="9.29441925865079"><ele>183.0</ele><time>2026-04-09T09:19:45.857Z</time></trkpt><trkpt lat="45.614364144450384" lon="9.294426746424596"><ele>183.0</ele><time>2026-04-09T09:19:50.857Z</time></trkpt><trkpt lat="45.614429938451025" lon="9.294431183631097"><ele>183.0</ele><time>2026-04-09T09:19:55.856Z</time></trkpt><trkpt lat="45.61450071053354" lon="9.294444378549741"><ele>183.0</ele><time>2026-04-09T09:20:01.856Z</time></trkpt><trkpt lat="45.61456443252661" lon="9.29444447982406"><ele>183.0</ele><time>2026-04-09T09:20:05.856Z</time></trkpt><trkpt lat="45.61463776442677" lon="9.294429738830145"><ele>183.0</ele><time>2026-04-09T09:20:11.856Z</time></trkpt><trkpt lat="45.61471235190345" lon="9.294433210223113"><ele>183.0</ele><time>2026-04-09T09:20:17.856Z</time></trkpt><trkpt lat="45.61477754521873" lon="9.294450221550722"><ele>183.0</ele><time>2026-04-09T09:20:22.857Z</time></trkpt><trkpt lat="45.61484944998986" lon="9.294455544407374"><ele>183.0</ele><time>2026-04-09T09:20:27.858Z</time></trkpt><trkpt lat="45.61491774804839" lon="9.294461385689154"><ele>183.0</ele><time>2026-04-09T09:20:33.858Z</time></trkpt><trkpt lat="45.6149861344818" lon="9.294440768627169"><ele>183.0</ele><time>2026-04-09T09:20:38.857Z</time></trkpt><trkpt lat="45.615043813033815" lon="9.294402542397965"><ele>183.0</ele><time>2026-04-09T09:20:42.857Z</time></trkpt><trkpt lat="45.61510060321858" lon="9.294362279798372"><ele>183.0</ele><time>2026-04-09T09:20:47.857Z</time></trkpt><trkpt lat="45.615149252333765" lon="9.294290129968592"><ele>183.0</ele><time>2026-04-09T09:20:53.857Z</time></trkpt><trkpt lat="45.61520512534492" lon="9.294223146027912"><ele>183.0</ele><time>2026-04-09T09:20:59.857Z</time></trkpt><trkpt lat="45.61521912301873" lon="9.294132725628126"><ele>183.0</ele><time>2026-04-09T09:21:04.856Z</time></trkpt><trkpt lat="45.61524677529213" lon="9.2940509012796"><ele>183.0</ele><time>2026-04-09T09:21:08.856Z</time></trkpt><trkpt lat="45.61526502297764" lon="9.29394341904034"><ele>183.0</ele><time>2026-04-09T09:21:12.856Z</time></trkpt><trkpt lat="45.61528323674837" lon="9.293847200443729"><ele>183.0</ele><time>2026-04-09T09:21:16.856Z</time></trkpt><trkpt lat="45.61529888537684" lon="9.293748147524987"><ele>182.71428571428572</ele><time>2026-04-09T09:21:21.856Z</time></trkpt><trkpt lat="45.61531330230617" lon="9.293640977244683"><ele>182.42857142857144</ele><time>2026-04-09T09:21:26.856Z</time></trkpt><trkpt lat="45.61533602046644" lon="9.293555650437272"><ele>182.14285714285714</ele><time>2026-04-09T09:21:31.855Z</time></trkpt><trkpt lat="45.61535466623181" lon="9.293455315030538"><ele>181.85714285714286</ele><time>2026-04-09T09:21:37.855Z</time></trkpt><trkpt lat="45.615367969006385" lon="9.293354967099283"><ele>181.57142857142856</ele><time>2026-04-09T09:21:42.855Z</time></trkpt><trkpt lat="45.61537042941203" lon="9.293259227260702"><ele>181.28571428571428</ele><time>2026-04-09T09:21:47.855Z</time></trkpt><trkpt lat="45.61537643322" lon="9.293167402416035"><ele>181.0</ele><time>2026-04-09T09:21:52.855Z</time></trkpt><trkpt lat="45.61538671479051" lon="9.29307232254111"><ele>180.85714285714286</ele><time>2026-04-09T09:21:58.854Z</time></trkpt><trkpt lat="45.61539418353947" lon="9.292982395258846"><ele>180.71428571428572</ele><time>2026-04-09T09:22:03.854Z</time></trkpt><trkpt lat="45.61541082657419" lon="9.292872807525503"><ele>180.57142857142856</ele><time>2026-04-09T09:22:08.854Z</time></trkpt><trkpt lat="45.61542216995249" lon="9.292773245630343"><ele>180.42857142857144</ele><time>2026-04-09T09:22:14.854Z</time></trkpt><trkpt lat="45.61543865523374" lon="9.29267240384374"><ele>180.2857142857143</ele><time>2026-04-09T09:22:21.853Z</time></trkpt><trkpt lat="45.61545079609946" lon="9.292577726857564"><ele>180.14285714285714</ele><time>2026-04-09T09:22:27.855Z</time></trkpt><trkpt lat="45.61546359366296" lon="9.292477546041283"><ele>180.0</ele><time>2026-04-09T09:22:32.855Z</time></trkpt><trkpt lat="45.61547037788943" lon="9.292388010605443"><ele>180.0</ele><time>2026-04-09T09:22:37.854Z</time></trkpt><trkpt lat="45.615482507484245" lon="9.292297811427588"><ele>180.0</ele><time>2026-04-09T09:22:42.854Z</time></trkpt><trkpt lat="45.61548206993169" lon="9.29220054560423"><ele>180.0</ele><time>2026-04-09T09:22:46.854Z</time></trkpt><trkpt lat="45.61547542253492" lon="9.292097642328574"><ele>180.0</ele><time>2026-04-09T09:22:50.854Z</time></trkpt><trkpt lat="45.6154720865881" lon="9.291984536692267"><ele>180.0</ele><time>2026-04-09T09:22:56.853Z</time></trkpt><trkpt lat="45.61547436078949" lon="9.291877199073353"><ele>180.0</ele><time>2026-04-09T09:23:00.853Z</time></trkpt><trkpt lat="45.615484881348934" lon="9.291783929801165"><ele>180.0</ele><time>2026-04-09T09:23:04.853Z</time></trkpt><trkpt lat="45.615485104736706" lon="9.291687160760437"><ele>180.7142857142857</ele><time>2026-04-09T09:23:09.853Z</time></trkpt><trkpt lat="45.61549681050716" lon="9.291583741170841"><ele>181.42857142857144</ele><time>2026-04-09T09:23:15.853Z</time></trkpt><trkpt lat="45.615501884386525" lon="9.291474055490285"><ele>182.14285714285714</ele><time>2026-04-09T09:23:20.852Z</time></trkpt><trkpt lat="45.61550657050368" lon="9.291383216877069"><ele>182.85714285714283</ele><time>2026-04-09T09:23:25.852Z</time></trkpt><trkpt lat="45.61552064942256" lon="9.291292306339322"><ele>183.57142857142856</ele><time>2026-04-09T09:23:31.852Z</time></trkpt><trkpt lat="45.615528578977575" lon="9.29119906121334"><ele>184.28571428571428</ele><time>2026-04-09T09:23:37.852Z</time></trkpt><trkpt lat="45.61554171704194" lon="9.291106269750804"><ele>185.0</ele><time>2026-04-09T09:23:43.851Z</time></trkpt><trkpt lat="45.61555146482366" lon="9.291005603679922"><ele>185.14285714285714</ele><time>2026-04-09T09:23:48.851Z</time></trkpt><trkpt lat="45.61555332036303" lon="9.29090627665919"><ele>185.28571428571428</ele><time>2026-04-09T09:23:53.851Z</time></trkpt><trkpt lat="45.615567922456776" lon="9.290809866635891"><ele>185.42857142857144</ele><time>2026-04-09T09:23:58.851Z</time></trkpt><trkpt lat="45.61557321502484" lon="9.290717997177653"><ele>185.57142857142856</ele><time>2026-04-09T09:24:03.851Z</time></trkpt><trkpt lat="45.615585805943084" lon="9.290625497164735"><ele>185.71428571428572</ele><time>2026-04-09T09:24:08.851Z</time></trkpt><trkpt lat="45.61559549954723" lon="9.290523739416265"><ele>185.85714285714286</ele><time>2026-04-09T09:24:13.85Z</time></trkpt><trkpt lat="45.61559673903697" lon="9.290426071156395"><ele>186.0</ele><time>2026-04-09T09:24:18.85Z</time></trkpt><trkpt lat="45.61559905186847" lon="9.29032838248765"><ele>186.00000000000003</ele><time>2026-04-09T09:24:23.85Z</time></trkpt><trkpt lat="45.615602623467204" lon="9.29023314158082"><ele>186.0</ele><time>2026-04-09T09:24:28.85Z</time></trkpt><trkpt lat="45.61562071409799" lon="9.290145703458206"><ele>186.0</ele><time>2026-04-09T09:24:32.852Z</time></trkpt><trkpt lat="45.61562864668733" lon="9.290040472738697"><ele>186.0</ele><time>2026-04-09T09:24:38.852Z</time></trkpt><trkpt lat="45.61564827931411" lon="9.289946740405785"><ele>186.0</ele><time>2026-04-09T09:24:43.851Z</time></trkpt><trkpt lat="45.615664802260724" lon="9.289854123042087"><ele>186.00000000000003</ele><time>2026-04-09T09:24:49.851Z</time></trkpt><trkpt lat="45.61566872138709" lon="9.289748763989577"><ele>186.0</ele><time>2026-04-09T09:24:54.851Z</time></trkpt><trkpt lat="45.615698286371206" lon="9.289661751710288"><ele>185.71428571428572</ele><time>2026-04-09T09:25:00.851Z</time></trkpt><trkpt lat="45.615705118146806" lon="9.289555644057875"><ele>185.42857142857144</ele><time>2026-04-09T09:25:08.851Z</time></trkpt><trkpt lat="45.61570776790917" lon="9.289454157609805"><ele>185.14285714285717</ele><time>2026-04-09T09:25:14.85Z</time></trkpt><trkpt lat="45.61570026764573" lon="9.289342621450256"><ele>184.85714285714286</ele><time>2026-04-09T09:25:19.85Z</time></trkpt><trkpt lat="45.61571237112951" lon="9.289243418591855"><ele>184.57142857142856</ele><time>2026-04-09T09:25:24.85Z</time></trkpt><trkpt lat="45.615718055472065" lon="9.289151730456082"><ele>184.2857142857143</ele><time>2026-04-09T09:25:30.85Z</time></trkpt><trkpt lat="45.61566468450519" lon="9.289091743843485"><ele>184.0</ele><time>2026-04-09T09:25:37.849Z</time></trkpt><trkpt lat="45.61559766886828" lon="9.289088587476261"><ele>184.0</ele><time>2026-04-09T09:25:41.849Z</time></trkpt><trkpt lat="45.61553093265656" lon="9.289095179093806"><ele>184.0</ele><time>2026-04-09T09:25:46.849Z</time></trkpt><trkpt lat="45.61545070009633" lon="9.289090677286048"><ele>184.0</ele><time>2026-04-09T09:25:51.849Z</time></trkpt><trkpt lat="45.61538539323131" lon="9.289076379822365"><ele>184.0</ele><time>2026-04-09T09:25:56.849Z</time></trkpt><trkpt lat="45.615313972278585" lon="9.289060264978678"><ele>184.0</ele><time>2026-04-09T09:26:01.849Z</time></trkpt><trkpt lat="45.615237937947356" lon="9.28905237013591"><ele>184.0</ele><time>2026-04-09T09:26:06.848Z</time></trkpt><trkpt lat="45.61516768221623" lon="9.28903561046742"><ele>184.0</ele><time>2026-04-09T09:26:11.848Z</time></trkpt><trkpt lat="45.615103654318695" lon="9.289026473511992"><ele>184.57142857142858</ele><time>2026-04-09T09:26:15.848Z</time></trkpt><trkpt lat="45.61502927191543" lon="9.289014225057201"><ele>185.14285714285714</ele><time>2026-04-09T09:26:21.848Z</time></trkpt><trkpt lat="45.6149626883482" lon="9.288998281277687"><ele>185.71428571428572</ele><time>2026-04-09T09:26:26.848Z</time></trkpt><trkpt lat="45.614896752203656" lon="9.288987217112158"><ele>186.28571428571428</ele><time>2026-04-09T09:26:31.847Z</time></trkpt><trkpt lat="45.614831335851335" lon="9.288989586957795"><ele>186.85714285714283</ele><time>2026-04-09T09:26:36.85Z</time></trkpt><trkpt lat="45.61476144358924" lon="9.288984331495348"><ele>187.42857142857142</ele><time>2026-04-09T09:26:40.849Z</time></trkpt><trkpt lat="45.614681793011144" lon="9.288966894665691"><ele>188.0</ele><time>2026-04-09T09:26:46.849Z</time></trkpt><trkpt lat="45.61461683229836" lon="9.288963881521454"><ele>188.0</ele><time>2026-04-09T09:26:51.849Z</time></trkpt><trkpt lat="45.6145471964909" lon="9.288960501776629"><ele>188.0</ele><time>2026-04-09T09:26:57.849Z</time></trkpt><trkpt lat="45.61448635696131" lon="9.288916811399488"><ele>188.0</ele><time>2026-04-09T09:27:02.849Z</time></trkpt><trkpt lat="45.61441531953228" lon="9.288904468124478"><ele>188.0</ele><time>2026-04-09T09:27:08.848Z</time></trkpt><trkpt lat="45.61434327293419" lon="9.288898898702419"><ele>188.0</ele><time>2026-04-09T09:27:13.848Z</time></trkpt><trkpt lat="45.61427710623212" lon="9.288891396797126"><ele>188.0</ele><time>2026-04-09T09:27:17.848Z</time></trkpt><trkpt lat="45.61420605678076" lon="9.28886765085203"><ele>188.0</ele><time>2026-04-09T09:27:22.848Z</time></trkpt><trkpt lat="45.614140055378655" lon="9.28883993654944"><ele>187.57142857142856</ele><time>2026-04-09T09:27:27.848Z</time></trkpt><trkpt lat="45.61407304181711" lon="9.288824089688482"><ele>187.14285714285714</ele><time>2026-04-09T09:27:32.848Z</time></trkpt><trkpt lat="45.6140066751112" lon="9.288828597780832"><ele>186.71428571428572</ele><time>2026-04-09T09:27:37.847Z</time></trkpt><trkpt lat="45.6139313621319" lon="9.288830690349299"><ele>186.28571428571428</ele><time>2026-04-09T09:27:42.847Z</time></trkpt><trkpt lat="45.613858946232504" lon="9.288814252426855"><ele>185.85714285714286</ele><time>2026-04-09T09:27:47.847Z</time></trkpt><trkpt lat="45.61378175886467" lon="9.288795349369929"><ele>185.42857142857142</ele><time>2026-04-09T09:27:52.847Z</time></trkpt><trkpt lat="45.613712965555685" lon="9.288794404650364"><ele>185.0</ele><time>2026-04-09T09:27:56.847Z</time></trkpt><trkpt lat="45.61364384547169" lon="9.288787532679036"><ele>184.28571428571428</ele><time>2026-04-09T09:28:01.846Z</time></trkpt><trkpt lat="45.61357562266917" lon="9.288776330690864"><ele>183.57142857142856</ele><time>2026-04-09T09:28:06.846Z</time></trkpt><trkpt lat="45.6135062292143" lon="9.288778427863331"><ele>182.85714285714283</ele><time>2026-04-09T09:28:11.846Z</time></trkpt><trkpt lat="45.61343796157225" lon="9.288783556949724"><ele>182.14285714285714</ele><time>2026-04-09T09:28:15.846Z</time></trkpt><trkpt lat="45.61336941809142" lon="9.288778947578951"><ele>181.42857142857144</ele><time>2026-04-09T09:28:20.846Z</time></trkpt><trkpt lat="45.61331692440926" lon="9.288828625725602"><ele>180.7142857142857</ele><time>2026-04-09T09:28:26.845Z</time></trkpt><trkpt lat="45.61325459296887" lon="9.288813989409158"><ele>180.0</ele><time>2026-04-09T09:28:30.845Z</time></trkpt><trkpt lat="45.613187084113875" lon="9.288777558547297"><ele>180.0</ele><time>2026-04-09T09:28:35.845Z</time></trkpt><trkpt lat="45.613120277402096" lon="9.288749847033719"><ele>180.0</ele><time>2026-04-09T09:28:40.845Z</time></trkpt><trkpt lat="45.61305751997567" lon="9.288720356023918"><ele>180.0</ele><time>2026-04-09T09:28:46.846Z</time></trkpt><trkpt lat="45.61299391836699" lon="9.28869573520913"><ele>180.0</ele><time>2026-04-09T09:28:51.847Z</time></trkpt><trkpt lat="45.61292655972243" lon="9.288664145225251"><ele>180.0</ele><time>2026-04-09T09:28:56.846Z</time></trkpt><trkpt lat="45.61286259535521" lon="9.28863723104353"><ele>180.0</ele><time>2026-04-09T09:29:01.846Z</time></trkpt><trkpt lat="45.61279288237432" lon="9.288605862966302"><ele>180.0</ele><time>2026-04-09T09:29:06.846Z</time></trkpt><trkpt lat="45.612718096316605" lon="9.288583971619195"><ele>180.14285714285714</ele><time>2026-04-09T09:29:12.846Z</time></trkpt><trkpt lat="45.61264306916529" lon="9.288575929849838"><ele>180.2857142857143</ele><time>2026-04-09T09:29:17.855Z</time></trkpt><trkpt lat="45.61257172004701" lon="9.288546892625515"><ele>180.42857142857144</ele><time>2026-04-09T09:29:23.867Z</time></trkpt><trkpt lat="45.61250359251711" lon="9.288519985844932"><ele>180.57142857142856</ele><time>2026-04-09T09:29:28.875Z</time></trkpt><trkpt lat="45.61243552335224" lon="9.2885060003151"><ele>180.71428571428572</ele><time>2026-04-09T09:29:33.88Z</time></trkpt><trkpt lat="45.61237029577418" lon="9.288487416586243"><ele>180.85714285714286</ele><time>2026-04-09T09:29:38.884Z</time></trkpt><trkpt lat="45.61230876382618" lon="9.288456903956762"><ele>181.0</ele><time>2026-04-09T09:29:43.886Z</time></trkpt><trkpt lat="45.61224325574867" lon="9.28843064124788"><ele>181.0</ele><time>2026-04-09T09:29:48.888Z</time></trkpt><trkpt lat="45.61217495354329" lon="9.288403525596769"><ele>181.0</ele><time>2026-04-09T09:29:53.89Z</time></trkpt><trkpt lat="45.612105535157895" lon="9.28837404830329"><ele>181.0</ele><time>2026-04-09T09:29:58.89Z</time></trkpt><trkpt lat="45.61203204146021" lon="9.288345299486158"><ele>181.0</ele><time>2026-04-09T09:30:03.891Z</time></trkpt><trkpt lat="45.61196114682725" lon="9.288323596583083"><ele>181.0</ele><time>2026-04-09T09:30:08.892Z</time></trkpt><trkpt lat="45.6119029495898" lon="9.28828371320158"><ele>181.0</ele><time>2026-04-09T09:30:13.892Z</time></trkpt><trkpt lat="45.611842288451705" lon="9.288254355337482"><ele>181.0</ele><time>2026-04-09T09:30:17.892Z</time></trkpt><trkpt lat="45.6117741702724" lon="9.28820881524942"><ele>181.28571428571428</ele><time>2026-04-09T09:30:23.892Z</time></trkpt><trkpt lat="45.61170304833164" lon="9.28817423653879"><ele>181.57142857142856</ele><time>2026-04-09T09:30:29.892Z</time></trkpt><trkpt lat="45.611641897104235" lon="9.288144782528843"><ele>181.85714285714286</ele><time>2026-04-09T09:30:34.892Z</time></trkpt><trkpt lat="45.611578722612755" lon="9.288097000818048"><ele>182.14285714285714</ele><time>2026-04-09T09:30:39.892Z</time></trkpt><trkpt lat="45.611513089061006" lon="9.288048882888795"><ele>182.42857142857144</ele><time>2026-04-09T09:30:44.892Z</time></trkpt><trkpt lat="45.611450145602475" lon="9.28800724113318"><ele>182.71428571428572</ele><time>2026-04-09T09:30:49.894Z</time></trkpt><trkpt lat="45.61137906220084" lon="9.287961099397483"><ele>183.0</ele><time>2026-04-09T09:30:54.894Z</time></trkpt><trkpt lat="45.61132079682467" lon="9.28790199583309"><ele>183.0</ele><time>2026-04-09T09:30:59.894Z</time></trkpt><trkpt lat="45.61125791363006" lon="9.287852924089728"><ele>183.0</ele><time>2026-04-09T09:31:05.893Z</time></trkpt><trkpt lat="45.611205175808976" lon="9.287790008347631"><ele>183.0</ele><time>2026-04-09T09:31:10.893Z</time></trkpt><trkpt lat="45.61113213263145" lon="9.287748828016815"><ele>183.0</ele><time>2026-04-09T09:31:15.893Z</time></trkpt><trkpt lat="45.61107997840979" lon="9.2876822777751"><ele>183.0</ele><time>2026-04-09T09:31:21.893Z</time></trkpt><trkpt lat="45.61101220906455" lon="9.287622316373668"><ele>183.0</ele><time>2026-04-09T09:31:26.893Z</time></trkpt><trkpt lat="45.610962078701384" lon="9.287541517058884"><ele>183.0</ele><time>2026-04-09T09:31:31.892Z</time></trkpt><trkpt lat="45.61090131632776" lon="9.287466452024127"><ele>183.42857142857144</ele><time>2026-04-09T09:31:37.892Z</time></trkpt><trkpt lat="45.61084567720963" lon="9.287411448876105"><ele>183.85714285714286</ele><time>2026-04-09T09:31:42.892Z</time></trkpt><trkpt lat="45.61080139773389" lon="9.287333576911818"><ele>184.28571428571428</ele><time>2026-04-09T09:31:47.892Z</time></trkpt><trkpt lat="45.61075083014904" lon="9.28726027315791"><ele>184.71428571428572</ele><time>2026-04-09T09:31:52.892Z</time></trkpt><trkpt lat="45.61070566790407" lon="9.287178030177971"><ele>185.14285714285714</ele><time>2026-04-09T09:31:57.892Z</time></trkpt><trkpt lat="45.610659036427066" lon="9.287091667648815"><ele>185.57142857142858</ele><time>2026-04-09T09:32:03.891Z</time></trkpt><trkpt lat="45.61060597729096" lon="9.287023545999693"><ele>186.0</ele><time>2026-04-09T09:32:08.891Z</time></trkpt><trkpt lat="45.61056604394933" lon="9.286936421891006"><ele>186.00000000000003</ele><time>2026-04-09T09:32:14.891Z</time></trkpt><trkpt lat="45.61053152756947" lon="9.286857916083402"><ele>186.0</ele><time>2026-04-09T09:32:19.891Z</time></trkpt><trkpt lat="45.61049804172986" lon="9.286774447868224"><ele>186.0</ele><time>2026-04-09T09:32:25.891Z</time></trkpt><trkpt lat="45.61045459696414" lon="9.286690746807405"><ele>186.0</ele><time>2026-04-09T09:32:30.891Z</time></trkpt><trkpt lat="45.61040815413855" lon="9.286603716730966"><ele>186.0</ele><time>2026-04-09T09:32:35.89Z</time></trkpt><trkpt lat="45.61037586212471" lon="9.286513701728735"><ele>186.00000000000003</ele><time>2026-04-09T09:32:40.89Z</time></trkpt><trkpt lat="45.61032801631446" lon="9.286435468847747"><ele>186.0</ele><time>2026-04-09T09:32:46.89Z</time></trkpt><trkpt lat="45.6102811710963" lon="9.286345407247936"><ele>186.00000000000003</ele><time>2026-04-09T09:32:51.89Z</time></trkpt><trkpt lat="45.61024388980986" lon="9.286259500166297"><ele>186.0</ele><time>2026-04-09T09:32:57.892Z</time></trkpt><trkpt lat="45.61021058733124" lon="9.286181439926747"><ele>186.0</ele><time>2026-04-09T09:33:02.892Z</time></trkpt><trkpt lat="45.610182510255946" lon="9.28609294220616"><ele>186.0</ele><time>2026-04-09T09:33:07.892Z</time></trkpt><trkpt lat="45.610167077422" lon="9.286000655727433"><ele>186.0</ele><time>2026-04-09T09:33:11.892Z</time></trkpt><trkpt lat="45.610135594057546" lon="9.285916651708774"><ele>186.00000000000003</ele><time>2026-04-09T09:33:17.892Z</time></trkpt><trkpt lat="45.610117035539" lon="9.285829887608626"><ele>186.0</ele><time>2026-04-09T09:33:22.892Z</time></trkpt><trkpt lat="45.61015196136473" lon="9.285730956450235"><ele>186.00000000000003</ele><time>2026-04-09T09:33:27.892Z</time></trkpt><trkpt lat="45.61019685127485" lon="9.285645749696599"><ele>186.0</ele><time>2026-04-09T09:33:32.891Z</time></trkpt><trkpt lat="45.61025786956843" lon="9.285619160992631"><ele>186.0</ele><time>2026-04-09T09:33:37.891Z</time></trkpt><trkpt lat="45.6103232320814" lon="9.285638380046326"><ele>186.0</ele><time>2026-04-09T09:33:45.891Z</time></trkpt><trkpt lat="45.61039577505233" lon="9.285653330947147"><ele>186.0</ele><time>2026-04-09T09:33:51.891Z</time></trkpt><trkpt lat="45.61046906847179" lon="9.285644703264984"><ele>186.00000000000003</ele><time>2026-04-09T09:33:57.891Z</time></trkpt><trkpt lat="45.610535519274805" lon="9.285640594913465"><ele>186.0</ele><time>2026-04-09T09:34:03.89Z</time></trkpt><trkpt lat="45.61060514415049" lon="9.285643714407582"><ele>186.42857142857144</ele><time>2026-04-09T09:34:08.89Z</time></trkpt><trkpt lat="45.61067470266267" lon="9.285641523763738"><ele>186.85714285714286</ele><time>2026-04-09T09:34:14.89Z</time></trkpt><trkpt lat="45.61074823644332" lon="9.285656676711298"><ele>187.28571428571428</ele><time>2026-04-09T09:34:19.89Z</time></trkpt><trkpt lat="45.610814141774235" lon="9.285663150385371"><ele>187.71428571428572</ele><time>2026-04-09T09:34:24.89Z</time></trkpt><trkpt lat="45.61088853977858" lon="9.28566453421013"><ele>188.14285714285714</ele><time>2026-04-09T09:34:29.89Z</time></trkpt><trkpt lat="45.610964046135564" lon="9.285677125216287"><ele>188.57142857142858</ele><time>2026-04-09T09:34:34.89Z</time></trkpt><trkpt lat="45.61102901424774" lon="9.285668218307784"><ele>189.0</ele><time>2026-04-09T09:34:39.889Z</time></trkpt><trkpt lat="45.61109665912431" lon="9.285671003130986"><ele>189.0</ele><time>2026-04-09T09:34:44.889Z</time></trkpt><trkpt lat="45.61116499968977" lon="9.285682258888823"><ele>189.0</ele><time>2026-04-09T09:34:50.889Z</time></trkpt><trkpt lat="45.61123367835184" lon="9.285704628616786"><ele>189.0</ele><time>2026-04-09T09:34:56.889Z</time></trkpt><trkpt lat="45.61130449085989" lon="9.285710113242475"><ele>189.0</ele><time>2026-04-09T09:35:01.89Z</time></trkpt><trkpt lat="45.61137520073931" lon="9.28567684080397"><ele>189.0</ele><time>2026-04-09T09:35:06.89Z</time></trkpt><trkpt lat="45.61142890036604" lon="9.285607717795225"><ele>189.0</ele><time>2026-04-09T09:35:11.89Z</time></trkpt><trkpt lat="45.61145711074291" lon="9.285518867572682"><ele>189.0</ele><time>2026-04-09T09:35:16.889Z</time></trkpt><trkpt lat="45.61147605179996" lon="9.285421576246833"><ele>188.85714285714286</ele><time>2026-04-09T09:35:20.889Z</time></trkpt><trkpt lat="45.6114830723504" lon="9.285328067706978"><ele>188.71428571428572</ele><time>2026-04-09T09:35:24.889Z</time></trkpt><trkpt lat="45.61148259530044" lon="9.285232309276472"><ele>188.57142857142856</ele><time>2026-04-09T09:35:29.889Z</time></trkpt><trkpt lat="45.61148470135085" lon="9.285134835196226"><ele>188.42857142857144</ele><time>2026-04-09T09:35:34.889Z</time></trkpt><trkpt lat="45.611489163443764" lon="9.285040748680402"><ele>188.28571428571428</ele><time>2026-04-09T09:35:39.889Z</time></trkpt><trkpt lat="45.61150269623892" lon="9.284948027408737"><ele>188.14285714285714</ele><time>2026-04-09T09:35:44.889Z</time></trkpt><trkpt lat="45.61151293658168" lon="9.28484362161438"><ele>188.0</ele><time>2026-04-09T09:35:50.888Z</time></trkpt><trkpt lat="45.611527129419585" lon="9.284754223700897"><ele>187.28571428571428</ele><time>2026-04-09T09:35:54.888Z</time></trkpt><trkpt lat="45.61154151411808" lon="9.284659982388764"><ele>186.57142857142856</ele><time>2026-04-09T09:35:59.888Z</time></trkpt><trkpt lat="45.61154905165942" lon="9.284568347074147"><ele>185.85714285714286</ele><time>2026-04-09T09:36:03.888Z</time></trkpt><trkpt lat="45.611541782893354" lon="9.284472766424976"><ele>185.14285714285714</ele><time>2026-04-09T09:36:08.888Z</time></trkpt><trkpt lat="45.61150849011251" lon="9.284389756185425"><ele>184.42857142857144</ele><time>2026-04-09T09:36:14.888Z</time></trkpt><trkpt lat="45.61144670580805" lon="9.284339847740393"><ele>183.71428571428572</ele><time>2026-04-09T09:36:20.888Z</time></trkpt><trkpt lat="45.61137948940801" lon="9.284344844148727"><ele>183.0</ele><time>2026-04-09T09:36:25.887Z</time></trkpt><trkpt lat="45.6113016322641" lon="9.284342305101356"><ele>183.0</ele><time>2026-04-09T09:36:31.887Z</time></trkpt><trkpt lat="45.61123363264653" lon="9.28433053006649"><ele>183.0</ele><time>2026-04-09T09:36:37.887Z</time></trkpt><trkpt lat="45.611164309039474" lon="9.284312409966237"><ele>183.0</ele><time>2026-04-09T09:36:43.887Z</time></trkpt><trkpt lat="45.6110913743836" lon="9.284288123465267"><ele>183.0</ele><time>2026-04-09T09:36:50.887Z</time></trkpt><trkpt lat="45.61102939491491" lon="9.284265002962249"><ele>183.0</ele><time>2026-04-09T09:36:55.886Z</time></trkpt><trkpt lat="45.6109604591554" lon="9.284261148662239"><ele>183.0</ele><time>2026-04-09T09:37:00.886Z</time></trkpt><trkpt lat="45.61089129432717" lon="9.284248669580602"><ele>183.0</ele><time>2026-04-09T09:37:09.889Z</time></trkpt><trkpt lat="45.61081896055855" lon="9.284224169146846"><ele>183.0</ele><time>2026-04-09T09:37:15.888Z</time></trkpt><trkpt lat="45.61075223907253" lon="9.284225781463132"><ele>183.0</ele><time>2026-04-09T09:37:18.888Z</time></trkpt><trkpt lat="45.610682546334914" lon="9.28421031115872"><ele>183.0</ele><time>2026-04-09T09:37:22.888Z</time></trkpt><trkpt lat="45.61061598549256" lon="9.28419728053832"><ele>183.0</ele><time>2026-04-09T09:37:27.888Z</time></trkpt><trkpt lat="45.610552598264725" lon="9.28420740501782"><ele>183.0</ele><time>2026-04-09T09:37:31.888Z</time></trkpt><trkpt lat="45.610483774630005" lon="9.284210062620852"><ele>183.0</ele><time>2026-04-09T09:37:35.888Z</time></trkpt><trkpt lat="45.61041044445103" lon="9.28419154391169"><ele>183.0</ele><time>2026-04-09T09:37:42.888Z</time></trkpt><trkpt lat="45.6103433360531" lon="9.284176485249791"><ele>183.0</ele><time>2026-04-09T09:37:47.887Z</time></trkpt><trkpt lat="45.61027904460143" lon="9.284158957152119"><ele>183.0</ele><time>2026-04-09T09:37:53.887Z</time></trkpt><trkpt lat="45.61020297082113" lon="9.284145727881262"><ele>183.0</ele><time>2026-04-09T09:38:00.887Z</time></trkpt><trkpt lat="45.610140872012714" lon="9.284122668212415"><ele>183.0</ele><time>2026-04-09T09:38:05.887Z</time></trkpt><trkpt lat="45.61006660446411" lon="9.284105777317498"><ele>183.0</ele><time>2026-04-09T09:38:10.887Z</time></trkpt><trkpt lat="45.61000047998276" lon="9.284071848519178"><ele>183.0</ele><time>2026-04-09T09:38:18.886Z</time></trkpt><trkpt lat="45.609928903986386" lon="9.28405119154618"><ele>183.0</ele><time>2026-04-09T09:38:23.886Z</time></trkpt><trkpt lat="45.60986337678806" lon="9.284038233525965"><ele>183.0</ele><time>2026-04-09T09:38:27.886Z</time></trkpt><trkpt lat="45.60979970690194" lon="9.284058415516425"><ele>183.0</ele><time>2026-04-09T09:38:31.886Z</time></trkpt><trkpt lat="45.60973668705474" lon="9.284075140430511"><ele>183.0</ele><time>2026-04-09T09:38:35.886Z</time></trkpt><trkpt lat="45.609671301870044" lon="9.28406929342309"><ele>183.0</ele><time>2026-04-09T09:38:40.886Z</time></trkpt><trkpt lat="45.609605288080886" lon="9.28406577144163"><ele>183.0</ele><time>2026-04-09T09:38:45.886Z</time></trkpt><trkpt lat="45.609541769325126" lon="9.28406406486232"><ele>183.0</ele><time>2026-04-09T09:38:49.886Z</time></trkpt><trkpt lat="45.609476356111955" lon="9.284057785424116"><ele>183.0</ele><time>2026-04-09T09:38:54.885Z</time></trkpt><trkpt lat="45.60941248153794" lon="9.284040981933902"><ele>183.14285714285714</ele><time>2026-04-09T09:38:59.885Z</time></trkpt><trkpt lat="45.609346287031265" lon="9.284035899223419"><ele>183.28571428571428</ele><time>2026-04-09T09:39:05.885Z</time></trkpt><trkpt lat="45.609277128739585" lon="9.28402422640431"><ele>183.42857142857144</ele><time>2026-04-09T09:39:10.885Z</time></trkpt><trkpt lat="45.60919807973156" lon="9.284011676981637"><ele>183.57142857142856</ele><time>2026-04-09T09:39:15.887Z</time></trkpt><trkpt lat="45.609133743087696" lon="9.284028012614899"><ele>183.7142857142857</ele><time>2026-04-09T09:39:19.887Z</time></trkpt><trkpt lat="45.609059246442" lon="9.284029848017598"><ele>183.85714285714286</ele><time>2026-04-09T09:39:24.887Z</time></trkpt><trkpt lat="45.60899202247018" lon="9.28401033344306"><ele>184.0</ele><time>2026-04-09T09:39:29.887Z</time></trkpt><trkpt lat="45.608927607288074" lon="9.284018397046035"><ele>184.0</ele><time>2026-04-09T09:39:34.887Z</time></trkpt><trkpt lat="45.60885734907586" lon="9.284004012520793"><ele>184.0</ele><time>2026-04-09T09:39:40.886Z</time></trkpt><trkpt lat="45.60879465392339" lon="9.283984227814884"><ele>184.0</ele><time>2026-04-09T09:39:44.886Z</time></trkpt><trkpt lat="45.608731767269916" lon="9.283989426076117"><ele>184.0</ele><time>2026-04-09T09:39:48.886Z</time></trkpt><trkpt lat="45.60866822387723" lon="9.283993659950356"><ele>184.0</ele><time>2026-04-09T09:39:52.886Z</time></trkpt><trkpt lat="45.60860985275957" lon="9.283957062446232"><ele>184.0</ele><time>2026-04-09T09:39:56.886Z</time></trkpt><trkpt lat="45.608543117383874" lon="9.28393417997905"><ele>184.0</ele><time>2026-04-09T09:40:01.886Z</time></trkpt><trkpt lat="45.60847265756148" lon="9.283914055335961"><ele>184.0</ele><time>2026-04-09T09:40:06.886Z</time></trkpt><trkpt lat="45.60840658348416" lon="9.283904237632887"><ele>184.0</ele><time>2026-04-09T09:40:11.886Z</time></trkpt><trkpt lat="45.6083433481582" lon="9.28387760004169"><ele>184.0</ele><time>2026-04-09T09:40:16.885Z</time></trkpt><trkpt lat="45.60827120347241" lon="9.283857178136332"><ele>184.0</ele><time>2026-04-09T09:40:22.885Z</time></trkpt><trkpt lat="45.608201146439924" lon="9.283859794374814"><ele>184.0</ele><time>2026-04-09T09:40:27.885Z</time></trkpt><trkpt lat="45.6081332851502" lon="9.283850661633872"><ele>184.0</ele><time>2026-04-09T09:40:32.885Z</time></trkpt><trkpt lat="45.60806285321492" lon="9.283820226229174"><ele>184.0</ele><time>2026-04-09T09:40:40.885Z</time></trkpt><trkpt lat="45.60799247496892" lon="9.28382343615045"><ele>184.0</ele><time>2026-04-09T09:40:45.885Z</time></trkpt><trkpt lat="45.60792406501224" lon="9.283817799011604"><ele>184.0</ele><time>2026-04-09T09:40:50.885Z</time></trkpt><trkpt lat="45.60785290083789" lon="9.2838030066713"><ele>184.0</ele><time>2026-04-09T09:40:56.884Z</time></trkpt><trkpt lat="45.60778406880306" lon="9.283791725812085"><ele>184.0</ele><time>2026-04-09T09:41:01.884Z</time></trkpt><trkpt lat="45.60771768402789" lon="9.283781020882639"><ele>184.0</ele><time>2026-04-09T09:41:06.884Z</time></trkpt><trkpt lat="45.60765477682314" lon="9.283771267978997"><ele>184.0</ele><time>2026-04-09T09:41:11.884Z</time></trkpt><trkpt lat="45.60758160499991" lon="9.283760410478358"><ele>184.0</ele><time>2026-04-09T09:41:17.885Z</time></trkpt><trkpt lat="45.607513427434434" lon="9.28374797406738"><ele>183.57142857142858</ele><time>2026-04-09T09:41:22.885Z</time></trkpt><trkpt lat="45.60744493615748" lon="9.283733247191508"><ele>183.14285714285714</ele><time>2026-04-09T09:41:27.886Z</time></trkpt><trkpt lat="45.60737528191786" lon="9.283736310375051"><ele>182.71428571428572</ele><time>2026-04-09T09:41:32.885Z</time></trkpt><trkpt lat="45.60730360103207" lon="9.283735783813418"><ele>182.28571428571428</ele><time>2026-04-09T09:41:37.885Z</time></trkpt><trkpt lat="45.60722359786413" lon="9.283717785040396"><ele>181.85714285714283</ele><time>2026-04-09T09:41:43.885Z</time></trkpt><trkpt lat="45.60715098510795" lon="9.283704927168852"><ele>181.42857142857142</ele><time>2026-04-09T09:41:48.885Z</time></trkpt><trkpt lat="45.607086169803296" lon="9.283701251593207"><ele>181.0</ele><time>2026-04-09T09:41:53.885Z</time></trkpt><trkpt lat="45.60701872256093" lon="9.283687790830774"><ele>180.42857142857142</ele><time>2026-04-09T09:41:58.885Z</time></trkpt><trkpt lat="45.60694983514723" lon="9.283682326401879"><ele>179.85714285714283</ele><time>2026-04-09T09:42:03.885Z</time></trkpt><trkpt lat="45.606875325425726" lon="9.283672501021442"><ele>179.28571428571428</ele><time>2026-04-09T09:42:09.884Z</time></trkpt><trkpt lat="45.60680961027108" lon="9.28366361117506"><ele>178.71428571428572</ele><time>2026-04-09T09:42:14.884Z</time></trkpt><trkpt lat="45.60674613567531" lon="9.283645956512718"><ele>178.14285714285714</ele><time>2026-04-09T09:42:19.884Z</time></trkpt><trkpt lat="45.60668109611628" lon="9.283613067589862"><ele>177.57142857142858</ele><time>2026-04-09T09:42:32.884Z</time></trkpt><trkpt lat="45.60661062263652" lon="9.283598809300146"><ele>177.0</ele><time>2026-04-09T09:42:38.883Z</time></trkpt><trkpt lat="45.60653572982135" lon="9.283589471417102"><ele>177.0</ele><time>2026-04-09T09:42:44.883Z</time></trkpt><trkpt lat="45.606465327468875" lon="9.283568901490137"><ele>177.0</ele><time>2026-04-09T09:42:50.883Z</time></trkpt><trkpt lat="45.606392202251605" lon="9.283574606595177"><ele>177.0</ele><time>2026-04-09T09:42:55.883Z</time></trkpt><trkpt lat="45.60632615677377" lon="9.283562245960402"><ele>177.0</ele><time>2026-04-09T09:43:01.883Z</time></trkpt><trkpt lat="45.60625170498926" lon="9.28355268182853"><ele>177.0</ele><time>2026-04-09T09:43:06.883Z</time></trkpt><trkpt lat="45.60618610728914" lon="9.283527969996353"><ele>177.0</ele><time>2026-04-09T09:43:11.883Z</time></trkpt><trkpt lat="45.60611584424419" lon="9.283508320919523"><ele>177.0</ele><time>2026-04-09T09:43:16.882Z</time></trkpt><trkpt lat="45.60604882340954" lon="9.283508432326043"><ele>177.2857142857143</ele><time>2026-04-09T09:43:21.882Z</time></trkpt><trkpt lat="45.60597595806936" lon="9.283491321883872"><ele>177.57142857142856</ele><time>2026-04-09T09:43:26.883Z</time></trkpt><trkpt lat="45.605907749691895" lon="9.283483986673554"><ele>177.85714285714286</ele><time>2026-04-09T09:43:31.884Z</time></trkpt><trkpt lat="45.60584145109686" lon="9.283486320016863"><ele>178.14285714285717</ele><time>2026-04-09T09:43:36.883Z</time></trkpt><trkpt lat="45.60577115943067" lon="9.283472765793936"><ele>178.42857142857144</ele><time>2026-04-09T09:43:41.883Z</time></trkpt><trkpt lat="45.605707950153544" lon="9.283462104719776"><ele>178.71428571428572</ele><time>2026-04-09T09:43:46.883Z</time></trkpt><trkpt lat="45.605638841874914" lon="9.283462583439357"><ele>179.0</ele><time>2026-04-09T09:43:51.882Z</time></trkpt><trkpt lat="45.60556831739956" lon="9.283453526726316"><ele>179.00000000000003</ele><time>2026-04-09T09:43:56.882Z</time></trkpt><trkpt lat="45.60549414118967" lon="9.283453560254907"><ele>179.0</ele><time>2026-04-09T09:44:02.882Z</time></trkpt><trkpt lat="45.60543169973159" lon="9.283432555990734"><ele>179.0</ele><time>2026-04-09T09:44:07.882Z</time></trkpt><trkpt lat="45.60536752466642" lon="9.283402736377766"><ele>179.0</ele><time>2026-04-09T09:44:12.882Z</time></trkpt><trkpt lat="45.60530093311506" lon="9.283408915933872"><ele>179.0</ele><time>2026-04-09T09:44:16.882Z</time></trkpt><trkpt lat="45.6052295096665" lon="9.28339497053116"><ele>179.00000000000003</ele><time>2026-04-09T09:44:22.882Z</time></trkpt><trkpt lat="45.60515656613622" lon="9.283385748936153"><ele>179.0</ele><time>2026-04-09T09:44:28.881Z</time></trkpt><trkpt lat="45.605086879375015" lon="9.283364964158658"><ele>178.85714285714286</ele><time>2026-04-09T09:44:33.881Z</time></trkpt><trkpt lat="45.60501674163588" lon="9.283360167138024"><ele>178.71428571428572</ele><time>2026-04-09T09:44:38.881Z</time></trkpt><trkpt lat="45.60494806064238" lon="9.28334285373993"><ele>178.57142857142856</ele><time>2026-04-09T09:44:43.881Z</time></trkpt><trkpt lat="45.60487453995288" lon="9.283342584902833"><ele>178.42857142857144</ele><time>2026-04-09T09:44:49.881Z</time></trkpt><trkpt lat="45.60480894987666" lon="9.283316860084089"><ele>178.28571428571428</ele><time>2026-04-09T09:44:54.881Z</time></trkpt><trkpt lat="45.60473640124289" lon="9.283307916639984"><ele>178.14285714285714</ele><time>2026-04-09T09:44:59.88Z</time></trkpt><trkpt lat="45.604659004362276" lon="9.283312024057452"><ele>178.0</ele><time>2026-04-09T09:45:05.88Z</time></trkpt><trkpt lat="45.60458065212008" lon="9.283315879556405"><ele>177.99999999999997</ele><time>2026-04-09T09:45:10.88Z</time></trkpt><trkpt lat="45.60451728488773" lon="9.283296493650282"><ele>178.0</ele><time>2026-04-09T09:45:15.88Z</time></trkpt><trkpt lat="45.60444684825686" lon="9.283292407271912"><ele>178.0</ele><time>2026-04-09T09:45:20.882Z</time></trkpt><trkpt lat="45.60437767254658" lon="9.283269470377775"><ele>178.0</ele><time>2026-04-09T09:45:25.883Z</time></trkpt><trkpt lat="45.60430580165863" lon="9.283246568475585"><ele>178.0</ele><time>2026-04-09T09:45:30.885Z</time></trkpt><trkpt lat="45.6042331033626" lon="9.28324210139801"><ele>177.99999999999997</ele><time>2026-04-09T09:45:36.885Z</time></trkpt><trkpt lat="45.60415796972987" lon="9.283230726860149"><ele>178.0</ele><time>2026-04-09T09:45:41.886Z</time></trkpt><trkpt lat="45.60409111278717" lon="9.283222341528523"><ele>177.85714285714283</ele><time>2026-04-09T09:45:46.886Z</time></trkpt><trkpt lat="45.6040209380351" lon="9.28321458433206"><ele>177.71428571428572</ele><time>2026-04-09T09:45:51.886Z</time></trkpt><trkpt lat="45.60394284991081" lon="9.283202528708825"><ele>177.57142857142856</ele><time>2026-04-09T09:45:57.886Z</time></trkpt><trkpt lat="45.603879646861394" lon="9.283194152202782"><ele>177.42857142857142</ele><time>2026-04-09T09:46:02.886Z</time></trkpt><trkpt lat="45.60380849813019" lon="9.28318013830841"><ele>177.28571428571428</ele><time>2026-04-09T09:46:07.886Z</time></trkpt><trkpt lat="45.603740301893566" lon="9.283167387544657"><ele>177.14285714285714</ele><time>2026-04-09T09:46:12.886Z</time></trkpt><trkpt lat="45.60367605756591" lon="9.283164320034357"><ele>177.0</ele><time>2026-04-09T09:46:17.886Z</time></trkpt><trkpt lat="45.60360429221225" lon="9.28315908752324"><ele>176.85714285714286</ele><time>2026-04-09T09:46:22.886Z</time></trkpt><trkpt lat="45.6035239481175" lon="9.283145817075237"><ele>176.7142857142857</ele><time>2026-04-09T09:46:28.886Z</time></trkpt><trkpt lat="45.60345668353769" lon="9.283141745682704"><ele>176.57142857142856</ele><time>2026-04-09T09:46:33.886Z</time></trkpt><trkpt lat="45.603394552881554" lon="9.283118338641371"><ele>176.42857142857144</ele><time>2026-04-09T09:46:38.886Z</time></trkpt><trkpt lat="45.60332106226196" lon="9.283112445994744"><ele>176.28571428571428</ele><time>2026-04-09T09:46:43.885Z</time></trkpt><trkpt lat="45.60325035827437" lon="9.283101723344275"><ele>176.14285714285714</ele><time>2026-04-09T09:46:48.885Z</time></trkpt><trkpt lat="45.60318073291734" lon="9.283103461956962"><ele>176.0</ele><time>2026-04-09T09:46:53.885Z</time></trkpt><trkpt lat="45.603118172772454" lon="9.283085804001875"><ele>175.85714285714286</ele><time>2026-04-09T09:46:58.885Z</time></trkpt><trkpt lat="45.60303907641656" lon="9.28306900096188"><ele>175.71428571428572</ele><time>2026-04-09T09:47:04.885Z</time></trkpt><trkpt lat="45.60297556332255" lon="9.283058226120307"><ele>175.57142857142856</ele><time>2026-04-09T09:47:09.885Z</time></trkpt><trkpt lat="45.60290971480162" lon="9.283048121853025"><ele>175.42857142857144</ele><time>2026-04-09T09:47:14.885Z</time></trkpt><trkpt lat="45.60283396280935" lon="9.28303059227932"><ele>175.28571428571428</ele><time>2026-04-09T09:47:19.884Z</time></trkpt><trkpt lat="45.6027699097778" lon="9.283045645959595"><ele>175.14285714285714</ele><time>2026-04-09T09:47:24.884Z</time></trkpt><trkpt lat="45.60270076031977" lon="9.283028339334882"><ele>175.0</ele><time>2026-04-09T09:47:30.884Z</time></trkpt><trkpt lat="45.60263619772421" lon="9.28302998839199"><ele>175.0</ele><time>2026-04-09T09:47:35.885Z</time></trkpt><trkpt lat="45.602567600536695" lon="9.283022046526625"><ele>175.0</ele><time>2026-04-09T09:47:40.885Z</time></trkpt><trkpt lat="45.60249319809288" lon="9.283018162406856"><ele>175.0</ele><time>2026-04-09T09:47:45.885Z</time></trkpt><trkpt lat="45.602420455725884" lon="9.283003490978777"><ele>175.0</ele><time>2026-04-09T09:47:51.884Z</time></trkpt><trkpt lat="45.60234852211693" lon="9.28298854001125"><ele>175.0</ele><time>2026-04-09T09:47:56.884Z</time></trkpt><trkpt lat="45.6022801855144" lon="9.28298181704597"><ele>175.0</ele><time>2026-04-09T09:48:01.884Z</time></trkpt><trkpt lat="45.6022019846031" lon="9.282968811473086"><ele>175.0</ele><time>2026-04-09T09:48:07.884Z</time></trkpt><trkpt lat="45.60213449714566" lon="9.282960446525406"><ele>175.0</ele><time>2026-04-09T09:48:12.884Z</time></trkpt><trkpt lat="45.60206562444317" lon="9.282937537519663"><ele>175.0</ele><time>2026-04-09T09:48:17.884Z</time></trkpt><trkpt lat="45.601999005565595" lon="9.282942276101195"><ele>175.0</ele><time>2026-04-09T09:48:22.884Z</time></trkpt><trkpt lat="45.60192817956617" lon="9.282928939864446"><ele>175.0</ele><time>2026-04-09T09:48:27.883Z</time></trkpt><trkpt lat="45.60185809816286" lon="9.282913926567652"><ele>175.0</ele><time>2026-04-09T09:48:32.883Z</time></trkpt><trkpt lat="45.601786483888766" lon="9.282905669554859"><ele>175.0</ele><time>2026-04-09T09:48:38.883Z</time></trkpt><trkpt lat="45.60171518678363" lon="9.28290049830427"><ele>175.0</ele><time>2026-04-09T09:48:43.883Z</time></trkpt><trkpt lat="45.60164779650741" lon="9.282887666471986"><ele>175.14285714285714</ele><time>2026-04-09T09:48:48.883Z</time></trkpt><trkpt lat="45.601580981420085" lon="9.282879398385425"><ele>175.28571428571428</ele><time>2026-04-09T09:48:53.883Z</time></trkpt><trkpt lat="45.601513168938254" lon="9.28286947210049"><ele>175.42857142857144</ele><time>2026-04-09T09:48:58.882Z</time></trkpt><trkpt lat="45.601445632600196" lon="9.282845622039865"><ele>175.57142857142856</ele><time>2026-04-09T09:49:03.882Z</time></trkpt><trkpt lat="45.60137794197254" lon="9.282837096273308"><ele>175.71428571428572</ele><time>2026-04-09T09:49:08.882Z</time></trkpt><trkpt lat="45.601312629747966" lon="9.282827392142433"><ele>175.85714285714286</ele><time>2026-04-09T09:49:14.882Z</time></trkpt><trkpt lat="45.60124842356534" lon="9.282818495047684"><ele>176.0</ele><time>2026-04-09T09:49:18.882Z</time></trkpt><trkpt lat="45.60117828380955" lon="9.282800986279527"><ele>176.0</ele><time>2026-04-09T09:49:24.882Z</time></trkpt><trkpt lat="45.601105739779555" lon="9.282798614358345"><ele>176.0</ele><time>2026-04-09T09:49:29.882Z</time></trkpt><trkpt lat="45.601040694595575" lon="9.282783552927702"><ele>176.0</ele><time>2026-04-09T09:49:34.881Z</time></trkpt><trkpt lat="45.600974519329874" lon="9.282770048675717"><ele>176.0</ele><time>2026-04-09T09:49:39.883Z</time></trkpt><trkpt lat="45.60091043124445" lon="9.282760426455956"><ele>176.0</ele><time>2026-04-09T09:49:44.883Z</time></trkpt><trkpt lat="45.60083710437286" lon="9.28275324880632"><ele>176.0</ele><time>2026-04-09T09:49:49.883Z</time></trkpt><trkpt lat="45.60077116439619" lon="9.282744932742823"><ele>176.0</ele><time>2026-04-09T09:49:54.883Z</time></trkpt><trkpt lat="45.60070900539109" lon="9.28272530979393"><ele>176.0</ele><time>2026-04-09T09:49:59.883Z</time></trkpt><trkpt lat="45.60064321142511" lon="9.282714936363414"><ele>176.0</ele><time>2026-04-09T09:50:04.883Z</time></trkpt><trkpt lat="45.60057778681593" lon="9.282710896906673"><ele>176.0</ele><time>2026-04-09T09:50:09.882Z</time></trkpt><trkpt lat="45.60051062727213" lon="9.282709027580585"><ele>176.0</ele><time>2026-04-09T09:50:14.882Z</time></trkpt><trkpt lat="45.600436135103216" lon="9.282703387637188"><ele>176.0</ele><time>2026-04-09T09:50:19.882Z</time></trkpt><trkpt lat="45.60037210519056" lon="9.282690781046409"><ele>176.0</ele><time>2026-04-09T09:50:24.882Z</time></trkpt><trkpt lat="45.60030815500116" lon="9.282678554386866"><ele>176.0</ele><time>2026-04-09T09:50:29.882Z</time></trkpt><trkpt lat="45.600230294644895" lon="9.282662972331641"><ele>175.57142857142858</ele><time>2026-04-09T09:50:35.882Z</time></trkpt><trkpt lat="45.60015806493771" lon="9.28264286059383"><ele>175.14285714285714</ele><time>2026-04-09T09:50:41.881Z</time></trkpt><trkpt lat="45.6000952528296" lon="9.282627072141231"><ele>174.71428571428572</ele><time>2026-04-09T09:50:46.881Z</time></trkpt><trkpt lat="45.600022825862204" lon="9.282630641003784"><ele>174.28571428571428</ele><time>2026-04-09T09:50:51.881Z</time></trkpt><trkpt lat="45.599956757113496" lon="9.282624296004794"><ele>173.85714285714286</ele><time>2026-04-09T09:50:56.881Z</time></trkpt><trkpt lat="45.599889441668594" lon="9.282615056671935"><ele>173.42857142857142</ele><time>2026-04-09T09:51:01.881Z</time></trkpt><trkpt lat="45.59982457747734" lon="9.282603168857397"><ele>173.0</ele><time>2026-04-09T09:51:06.881Z</time></trkpt><trkpt lat="45.599760087806665" lon="9.282593945703903"><ele>173.0</ele><time>2026-04-09T09:51:11.881Z</time></trkpt><trkpt lat="45.59969460687871" lon="9.282583996695804"><ele>173.0</ele><time>2026-04-09T09:51:16.88Z</time></trkpt><trkpt lat="45.599622913302426" lon="9.282566610674968"><ele>173.0</ele><time>2026-04-09T09:51:21.88Z</time></trkpt><trkpt lat="45.59955043073956" lon="9.28256307749573"><ele>173.0</ele><time>2026-04-09T09:51:26.88Z</time></trkpt><trkpt lat="45.59948655964537" lon="9.28255453948128"><ele>173.0</ele><time>2026-04-09T09:51:31.88Z</time></trkpt><trkpt lat="45.59941555360016" lon="9.282540070085936"><ele>173.0</ele><time>2026-04-09T09:51:36.88Z</time></trkpt><trkpt lat="45.59934493331759" lon="9.282549327018076"><ele>173.0</ele><time>2026-04-09T09:51:41.88Z</time></trkpt><trkpt lat="45.59926855336005" lon="9.28254299640956"><ele>173.85714285714286</ele><time>2026-04-09T09:51:47.881Z</time></trkpt><trkpt lat="45.599195382982906" lon="9.282531701562515"><ele>174.71428571428572</ele><time>2026-04-09T09:51:52.882Z</time></trkpt><trkpt lat="45.59913248460914" lon="9.282510430246434"><ele>175.57142857142858</ele><time>2026-04-09T09:51:57.882Z</time></trkpt><trkpt lat="45.599062010812084" lon="9.282499970583677"><ele>176.42857142857144</ele><time>2026-04-09T09:52:03.881Z</time></trkpt><trkpt lat="45.598999349922536" lon="9.282484080865581"><ele>177.28571428571428</ele><time>2026-04-09T09:52:08.881Z</time></trkpt><trkpt lat="45.59893275412609" lon="9.282466223644944"><ele>178.14285714285717</ele><time>2026-04-09T09:52:13.881Z</time></trkpt><trkpt lat="45.59886091871167" lon="9.282456480481798"><ele>179.0</ele><time>2026-04-09T09:52:19.881Z</time></trkpt><trkpt lat="45.59879598579899" lon="9.282441424799186"><ele>179.00000000000003</ele><time>2026-04-09T09:52:23.881Z</time></trkpt><trkpt lat="45.59871906174579" lon="9.282435184417078"><ele>179.0</ele><time>2026-04-09T09:52:28.881Z</time></trkpt><trkpt lat="45.59865497000814" lon="9.28242872354372"><ele>179.0</ele><time>2026-04-09T09:52:33.881Z</time></trkpt><trkpt lat="45.59858021963836" lon="9.28240552449762"><ele>179.0</ele><time>2026-04-09T09:52:38.88Z</time></trkpt><trkpt lat="45.59851047713823" lon="9.28239099201649"><ele>179.0</ele><time>2026-04-09T09:52:43.88Z</time></trkpt><trkpt lat="45.59844082428613" lon="9.282389224345598"><ele>179.00000000000003</ele><time>2026-04-09T09:52:49.88Z</time></trkpt><trkpt lat="45.59837778272178" lon="9.282378349931244"><ele>179.0</ele><time>2026-04-09T09:52:53.88Z</time></trkpt><trkpt lat="45.59830580366068" lon="9.282375438443088"><ele>179.00000000000003</ele><time>2026-04-09T09:52:59.88Z</time></trkpt><trkpt lat="45.598240047994466" lon="9.28236474031708"><ele>179.0</ele><time>2026-04-09T09:53:04.88Z</time></trkpt><trkpt lat="45.59816883172606" lon="9.282354942927348"><ele>179.0</ele><time>2026-04-09T09:53:09.88Z</time></trkpt><trkpt lat="45.59810460387328" lon="9.282355119361306"><ele>179.0</ele><time>2026-04-09T09:53:14.879Z</time></trkpt><trkpt lat="45.59803779247061" lon="9.282345908141961"><ele>179.0</ele><time>2026-04-09T09:53:19.879Z</time></trkpt><trkpt lat="45.597965233909" lon="9.282327952851562"><ele>179.00000000000003</ele><time>2026-04-09T09:53:25.879Z</time></trkpt><trkpt lat="45.59789594367704" lon="9.282315440372663"><ele>179.0</ele><time>2026-04-09T09:53:30.879Z</time></trkpt><trkpt lat="45.59782930254142" lon="9.282303226234669"><ele>178.57142857142858</ele><time>2026-04-09T09:53:35.879Z</time></trkpt><trkpt lat="45.59776387905801" lon="9.282297628389385"><ele>178.14285714285714</ele><time>2026-04-09T09:53:40.879Z</time></trkpt><trkpt lat="45.59768762954785" lon="9.282280689558215"><ele>177.71428571428572</ele><time>2026-04-09T09:53:45.879Z</time></trkpt><trkpt lat="45.597621519541626" lon="9.282264235244627"><ele>177.28571428571428</ele><time>2026-04-09T09:53:50.878Z</time></trkpt><trkpt lat="45.597550545112455" lon="9.28224683878321"><ele>176.85714285714286</ele><time>2026-04-09T09:53:55.879Z</time></trkpt><trkpt lat="45.59747559100215" lon="9.282229824250878"><ele>176.42857142857144</ele><time>2026-04-09T09:54:01.879Z</time></trkpt><trkpt lat="45.5974114371092" lon="9.282227304423577"><ele>176.0</ele><time>2026-04-09T09:54:06.879Z</time></trkpt><trkpt lat="45.59734413783912" lon="9.282207523771033"><ele>176.14285714285714</ele><time>2026-04-09T09:54:11.879Z</time></trkpt><trkpt lat="45.59727231660034" lon="9.282173490874738"><ele>176.28571428571428</ele><time>2026-04-09T09:54:16.879Z</time></trkpt><trkpt lat="45.59721381538543" lon="9.282118850494044"><ele>176.42857142857144</ele><time>2026-04-09T09:54:21.879Z</time></trkpt><trkpt lat="45.59715361113593" lon="9.28205696943343"><ele>176.57142857142856</ele><time>2026-04-09T09:54:26.879Z</time></trkpt><trkpt lat="45.59709640630805" lon="9.282008481064649"><ele>176.7142857142857</ele><time>2026-04-09T09:54:31.879Z</time></trkpt><trkpt lat="45.59703501912222" lon="9.281959209097524"><ele>176.85714285714286</ele><time>2026-04-09T09:54:36.879Z</time></trkpt><trkpt lat="45.59696773551616" lon="9.281915954233916"><ele>177.0</ele><time>2026-04-09T09:54:41.878Z</time></trkpt><trkpt lat="45.59691481286697" lon="9.281865682672345"><ele>177.0</ele><time>2026-04-09T09:54:46.878Z</time></trkpt><trkpt lat="45.59684572952986" lon="9.281818831226932"><ele>177.0</ele><time>2026-04-09T09:54:53.878Z</time></trkpt><trkpt lat="45.59678337722457" lon="9.281783389037729"><ele>177.0</ele><time>2026-04-09T09:54:58.878Z</time></trkpt><trkpt lat="45.596714366834675" lon="9.281749771034866"><ele>177.0</ele><time>2026-04-09T09:55:03.878Z</time></trkpt><trkpt lat="45.596646924113145" lon="9.281716699456075"><ele>177.0</ele><time>2026-04-09T09:55:08.878Z</time></trkpt><trkpt lat="45.59657811784635" lon="9.281674111848965"><ele>177.0</ele><time>2026-04-09T09:55:13.878Z</time></trkpt><trkpt lat="45.59651438102831" lon="9.281634390975169"><ele>177.0</ele><time>2026-04-09T09:55:19.877Z</time></trkpt><trkpt lat="45.596452812356546" lon="9.281594288702527"><ele>177.0</ele><time>2026-04-09T09:55:24.877Z</time></trkpt><trkpt lat="45.59639147312143" lon="9.281547349813186"><ele>177.0</ele><time>2026-04-09T09:55:29.877Z</time></trkpt><trkpt lat="45.59632608519393" lon="9.281508978265492"><ele>177.0</ele><time>2026-04-09T09:55:34.877Z</time></trkpt><trkpt lat="45.59625867240501" lon="9.281477255367998"><ele>177.0</ele><time>2026-04-09T09:55:39.877Z</time></trkpt><trkpt lat="45.59619225626716" lon="9.281429510848948"><ele>177.0</ele><time>2026-04-09T09:55:44.877Z</time></trkpt><trkpt lat="45.59612563775829" lon="9.281378161121035"><ele>177.0</ele><time>2026-04-09T09:55:49.877Z</time></trkpt><trkpt lat="45.59605704311509" lon="9.281344689290554"><ele>177.0</ele><time>2026-04-09T09:55:55.876Z</time></trkpt><trkpt lat="45.59599178507637" lon="9.281307509200529"><ele>177.14285714285714</ele><time>2026-04-09T09:56:00.878Z</time></trkpt><trkpt lat="45.59592638962887" lon="9.281270435643744"><ele>177.28571428571428</ele><time>2026-04-09T09:56:05.877Z</time></trkpt><trkpt lat="45.59587081198872" lon="9.281208379570401"><ele>177.42857142857142</ele><time>2026-04-09T09:56:10.878Z</time></trkpt><trkpt lat="45.59581727436229" lon="9.281156550600382"><ele>177.57142857142856</ele><time>2026-04-09T09:56:15.878Z</time></trkpt><trkpt lat="45.595761229714434" lon="9.281086703426881"><ele>177.71428571428572</ele><time>2026-04-09T09:56:20.878Z</time></trkpt><trkpt lat="45.59571328243787" lon="9.281017521756736"><ele>177.85714285714283</ele><time>2026-04-09T09:56:25.878Z</time></trkpt><trkpt lat="45.59568088227312" lon="9.280928090936085"><ele>178.0</ele><time>2026-04-09T09:56:30.877Z</time></trkpt><trkpt lat="45.59566030501129" lon="9.28083070154523"><ele>177.99999999999997</ele><time>2026-04-09T09:56:35.877Z</time></trkpt><trkpt lat="45.59564283875654" lon="9.280732511623446"><ele>178.0</ele><time>2026-04-09T09:56:41.877Z</time></trkpt><trkpt lat="45.59563031365505" lon="9.280629311187642"><ele>178.0</ele><time>2026-04-09T09:56:47.877Z</time></trkpt><trkpt lat="45.595609898713455" lon="9.280528764585952"><ele>178.0</ele><time>2026-04-09T09:56:53.877Z</time></trkpt><trkpt lat="45.595590287225036" lon="9.280434037017237"><ele>178.0</ele><time>2026-04-09T09:56:58.877Z</time></trkpt><trkpt lat="45.59556978672207" lon="9.280331708161773"><ele>177.99999999999997</ele><time>2026-04-09T09:57:03.876Z</time></trkpt><trkpt lat="45.595561112034744" lon="9.28023171058789"><ele>178.0</ele><time>2026-04-09T09:57:09.876Z</time></trkpt><trkpt lat="45.59553804391415" lon="9.280139207120179"><ele>177.99999999999997</ele><time>2026-04-09T09:57:14.876Z</time></trkpt><trkpt lat="45.595529507809744" lon="9.280032659573438"><ele>178.0</ele><time>2026-04-09T09:57:19.876Z</time></trkpt><trkpt lat="45.595518677100976" lon="9.279926190586524"><ele>178.0</ele><time>2026-04-09T09:57:25.876Z</time></trkpt><trkpt lat="45.59550212949887" lon="9.279834141447715"><ele>178.0</ele><time>2026-04-09T09:57:30.876Z</time></trkpt><trkpt lat="45.59549424381189" lon="9.279738491028233"><ele>178.0</ele><time>2026-04-09T09:57:34.876Z</time></trkpt><trkpt lat="45.59547775532593" lon="9.279635330969805"><ele>177.99999999999997</ele><time>2026-04-09T09:57:39.875Z</time></trkpt><trkpt lat="45.59546008600655" lon="9.279535031711461"><ele>178.0</ele><time>2026-04-09T09:57:44.875Z</time></trkpt><trkpt lat="45.59544164755026" lon="9.279447013879096"><ele>177.85714285714283</ele><time>2026-04-09T09:57:48.875Z</time></trkpt><trkpt lat="45.59542010834681" lon="9.2793611787528"><ele>177.71428571428572</ele><time>2026-04-09T09:57:52.875Z</time></trkpt><trkpt lat="45.59540470161696" lon="9.279270535059828"><ele>177.57142857142856</ele><time>2026-04-09T09:57:57.875Z</time></trkpt><trkpt lat="45.595395174128996" lon="9.279179289948528"><ele>177.42857142857142</ele><time>2026-04-09T09:58:02.875Z</time></trkpt><trkpt lat="45.59537979612744" lon="9.279089975938385"><ele>177.28571428571428</ele><time>2026-04-09T09:58:07.876Z</time></trkpt><trkpt lat="45.59536990437696" lon="9.278987967587133"><ele>177.14285714285714</ele><time>2026-04-09T09:58:13.876Z</time></trkpt><trkpt lat="45.59536748475788" lon="9.278885433323866"><ele>177.0</ele><time>2026-04-09T09:58:56.875Z</time></trkpt><trkpt lat="45.59536147890513" lon="9.278791038068553"><ele>177.0</ele><time>2026-04-09T09:59:00.874Z</time></trkpt><trkpt lat="45.59536259570859" lon="9.278698208607132"><ele>177.0</ele><time>2026-04-09T09:59:05.874Z</time></trkpt><trkpt lat="45.59540024392792" lon="9.278614664637423"><ele>177.0</ele><time>2026-04-09T09:59:11.874Z</time></trkpt><trkpt lat="45.59544639596781" lon="9.27854270310837"><ele>177.0</ele><time>2026-04-09T09:59:16.874Z</time></trkpt><trkpt lat="45.59547560560719" lon="9.278462157589262"><ele>177.0</ele><time>2026-04-09T09:59:20.874Z</time></trkpt><trkpt lat="45.59552368869417" lon="9.278393381519205"><ele>177.0</ele><time>2026-04-09T09:59:24.874Z</time></trkpt><trkpt lat="45.595572086839404" lon="9.278314307229403"><ele>177.0</ele><time>2026-04-09T09:59:29.874Z</time></trkpt><trkpt lat="45.59561887766796" lon="9.278243578576506"><ele>177.0</ele><time>2026-04-09T09:59:34.873Z</time></trkpt><trkpt lat="45.59566314936611" lon="9.278170665870737"><ele>177.0</ele><time>2026-04-09T09:59:39.873Z</time></trkpt><trkpt lat="45.59570085074746" lon="9.278095438991482"><ele>177.0</ele><time>2026-04-09T09:59:44.873Z</time></trkpt><trkpt lat="45.59574744607451" lon="9.278009225643558"><ele>177.0</ele><time>2026-04-09T09:59:50.873Z</time></trkpt><trkpt lat="45.595780689411775" lon="9.277915422381685"><ele>177.0</ele><time>2026-04-09T09:59:56.873Z</time></trkpt><trkpt lat="45.59580973703006" lon="9.277834450225832"><ele>177.0</ele><time>2026-04-09T10:00:01.873Z</time></trkpt><trkpt lat="45.595831452631344" lon="9.277742875071894"><ele>177.0</ele><time>2026-04-09T10:00:06.873Z</time></trkpt><trkpt lat="45.59585161685113" lon="9.277651122789704"><ele>177.2857142857143</ele><time>2026-04-09T10:00:12.874Z</time></trkpt><trkpt lat="45.59587225804332" lon="9.277546545724556"><ele>177.57142857142856</ele><time>2026-04-09T10:00:17.875Z</time></trkpt><trkpt lat="45.59589405763039" lon="9.277450009233384"><ele>177.85714285714286</ele><time>2026-04-09T10:00:24.875Z</time></trkpt><trkpt lat="45.59593269375414" lon="9.277364155161514"><ele>178.14285714285717</ele><time>2026-04-09T10:00:29.875Z</time></trkpt><trkpt lat="45.59598344239577" lon="9.277307687299317"><ele>178.42857142857144</ele><time>2026-04-09T10:00:35.875Z</time></trkpt><trkpt lat="45.59603579396698" lon="9.277254361468355"><ele>178.71428571428572</ele><time>2026-04-09T10:00:39.875Z</time></trkpt><trkpt lat="45.5960995773765" lon="9.277213208423682"><ele>179.0</ele><time>2026-04-09T10:00:45.874Z</time></trkpt><trkpt lat="45.59617036692288" lon="9.277194046209397"><ele>179.0</ele><time>2026-04-09T10:00:50.874Z</time></trkpt><trkpt lat="45.59624539532009" lon="9.277174743833074"><ele>179.0</ele><time>2026-04-09T10:00:56.874Z</time></trkpt><trkpt lat="45.59631301993642" lon="9.27716123407013"><ele>179.0</ele><time>2026-04-09T10:01:01.874Z</time></trkpt><trkpt lat="45.59643547312472" lon="9.277161091190456"><ele>179.0</ele><time>2026-04-09T10:01:10.874Z</time></trkpt><trkpt lat="45.596498251909864" lon="9.277173460762803"><ele>179.0</ele><time>2026-04-09T10:01:14.874Z</time></trkpt><trkpt lat="45.596636021128624" lon="9.277179085200741"><ele>179.0</ele><time>2026-04-09T10:01:24.873Z</time></trkpt><trkpt lat="45.59670878807012" lon="9.277197270058146"><ele>179.0</ele><time>2026-04-09T10:01:29.873Z</time></trkpt><trkpt lat="45.5967763133944" lon="9.277217566252842"><ele>179.0</ele><time>2026-04-09T10:01:34.873Z</time></trkpt><trkpt lat="45.596854125930705" lon="9.27723622582782"><ele>179.0</ele><time>2026-04-09T10:01:39.873Z</time></trkpt><trkpt lat="45.5969289311735" lon="9.277254468872767"><ele>179.0</ele><time>2026-04-09T10:01:44.873Z</time></trkpt><trkpt lat="45.59701730330285" lon="9.277279994163576"><ele>179.0</ele><time>2026-04-09T10:01:51.872Z</time></trkpt><trkpt lat="45.597083036061356" lon="9.277295822692427"><ele>179.42857142857144</ele><time>2026-04-09T10:01:57.872Z</time></trkpt><trkpt lat="45.597151473739665" lon="9.277306011746118"><ele>179.85714285714286</ele><time>2026-04-09T10:02:03.872Z</time></trkpt><trkpt lat="45.5972166411141" lon="9.277313199437778"><ele>180.28571428571428</ele><time>2026-04-09T10:02:08.872Z</time></trkpt><trkpt lat="45.597284061539895" lon="9.277318943973897"><ele>180.71428571428572</ele><time>2026-04-09T10:02:12.872Z</time></trkpt><trkpt lat="45.59735357269735" lon="9.277350731250733"><ele>181.14285714285714</ele><time>2026-04-09T10:02:17.873Z</time></trkpt><trkpt lat="45.597421219382966" lon="9.277370333801933"><ele>181.57142857142858</ele><time>2026-04-09T10:02:21.873Z</time></trkpt><trkpt lat="45.597498621262645" lon="9.277382950691665"><ele>182.0</ele><time>2026-04-09T10:02:26.873Z</time></trkpt><trkpt lat="45.5975786251136" lon="9.277363114866038"><ele>182.0</ele><time>2026-04-09T10:02:31.872Z</time></trkpt><trkpt lat="45.5976495369758" lon="9.27733244054459"><ele>182.0</ele><time>2026-04-09T10:02:36.872Z</time></trkpt><trkpt lat="45.597703785487816" lon="9.277283550930225"><ele>182.0</ele><time>2026-04-09T10:02:40.872Z</time></trkpt><trkpt lat="45.59776038164506" lon="9.27721414232792"><ele>182.0</ele><time>2026-04-09T10:02:45.875Z</time></trkpt><trkpt lat="45.59779276409703" lon="9.277134832931171"><ele>182.0</ele><time>2026-04-09T10:02:51.885Z</time></trkpt><trkpt lat="45.59784191560193" lon="9.277056669434057"><ele>182.0</ele><time>2026-04-09T10:02:56.891Z</time></trkpt><trkpt lat="45.59789971126514" lon="9.276989998768238"><ele>182.0</ele><time>2026-04-09T10:03:01.895Z</time></trkpt><trkpt lat="45.59795368242151" lon="9.276937361242735"><ele>182.85714285714286</ele><time>2026-04-09T10:03:06.898Z</time></trkpt><trkpt lat="45.598015512150326" lon="9.27691153047751"><ele>183.71428571428572</ele><time>2026-04-09T10:03:13.901Z</time></trkpt><trkpt lat="45.5980762844427" lon="9.276857998338807"><ele>184.57142857142856</ele><time>2026-04-09T10:03:20.902Z</time></trkpt><trkpt lat="45.59814019913439" lon="9.276822248279489"><ele>185.42857142857144</ele><time>2026-04-09T10:03:25.903Z</time></trkpt><trkpt lat="45.598201246495606" lon="9.276800001452516"><ele>186.28571428571428</ele><time>2026-04-09T10:03:29.904Z</time></trkpt><trkpt lat="45.598266180955235" lon="9.276784723239718"><ele>187.14285714285714</ele><time>2026-04-09T10:03:35.904Z</time></trkpt><trkpt lat="45.59833969048379" lon="9.276740481388499"><ele>188.0</ele><time>2026-04-09T10:03:40.904Z</time></trkpt><trkpt lat="45.59838710452907" lon="9.276664304237032"><ele>188.0</ele><time>2026-04-09T10:03:45.904Z</time></trkpt><trkpt lat="45.59837605548937" lon="9.276563892084376"><ele>188.0</ele><time>2026-04-09T10:03:50.904Z</time></trkpt><trkpt lat="45.59836382808068" lon="9.276455611287412"><ele>188.0</ele><time>2026-04-09T10:03:56.904Z</time></trkpt><trkpt lat="45.598348924735205" lon="9.276352994339709"><ele>188.0</ele><time>2026-04-09T10:04:02.904Z</time></trkpt><trkpt lat="45.598325875171156" lon="9.276250699901546"><ele>188.0</ele><time>2026-04-09T10:04:07.904Z</time></trkpt><trkpt lat="45.598299329585224" lon="9.276150838768869"><ele>188.0</ele><time>2026-04-09T10:04:13.904Z</time></trkpt><trkpt lat="45.598287630269446" lon="9.276049489047633"><ele>188.0</ele><time>2026-04-09T10:04:18.904Z</time></trkpt><trkpt lat="45.59827755259094" lon="9.275944229198466"><ele>188.14285714285714</ele><time>2026-04-09T10:04:24.906Z</time></trkpt><trkpt lat="45.598271824293526" lon="9.275841276566993"><ele>188.28571428571428</ele><time>2026-04-09T10:04:29.906Z</time></trkpt><trkpt lat="45.598250627816974" lon="9.275735632426032"><ele>188.42857142857144</ele><time>2026-04-09T10:04:34.906Z</time></trkpt><trkpt lat="45.59823283468983" lon="9.275637366400154"><ele>188.57142857142856</ele><time>2026-04-09T10:04:40.906Z</time></trkpt><trkpt lat="45.598213614667856" lon="9.275536121299796"><ele>188.71428571428572</ele><time>2026-04-09T10:04:46.906Z</time></trkpt><trkpt lat="45.59820205238478" lon="9.275441494981393"><ele>188.85714285714286</ele><time>2026-04-09T10:04:50.906Z</time></trkpt><trkpt lat="45.59818554974268" lon="9.275350400517155"><ele>189.0</ele><time>2026-04-09T10:04:54.906Z</time></trkpt><trkpt lat="45.598182913913995" lon="9.275253557850862"><ele>189.0</ele><time>2026-04-09T10:04:59.906Z</time></trkpt><trkpt lat="45.59817363363333" lon="9.275143746358792"><ele>189.0</ele><time>2026-04-09T10:05:04.905Z</time></trkpt><trkpt lat="45.59814655221142" lon="9.275047380640938"><ele>189.0</ele><time>2026-04-09T10:05:10.905Z</time></trkpt><trkpt lat="45.59813411139806" lon="9.274953211950224"><ele>189.0</ele><time>2026-04-09T10:05:14.905Z</time></trkpt><trkpt lat="45.59812027314967" lon="9.274860421051546"><ele>189.0</ele><time>2026-04-09T10:05:19.905Z</time></trkpt><trkpt lat="45.598110100691024" lon="9.274763626684711"><ele>189.0</ele><time>2026-04-09T10:05:24.905Z</time></trkpt><trkpt lat="45.59810287590007" lon="9.2746712820159"><ele>189.0</ele><time>2026-04-09T10:05:29.905Z</time></trkpt><trkpt lat="45.59808715038361" lon="9.27458330764109"><ele>188.42857142857142</ele><time>2026-04-09T10:05:34.905Z</time></trkpt><trkpt lat="45.59807078026951" lon="9.27448529220373"><ele>187.85714285714286</ele><time>2026-04-09T10:05:40.905Z</time></trkpt><trkpt lat="45.598055885617235" lon="9.274385965406118"><ele>187.28571428571428</ele><time>2026-04-09T10:05:46.904Z</time></trkpt><trkpt lat="45.598038799952064" lon="9.274298051442514"><ele>186.71428571428572</ele><time>2026-04-09T10:05:51.904Z</time></trkpt><trkpt lat="45.59802661052243" lon="9.274207430135842"><ele>186.14285714285714</ele><time>2026-04-09T10:05:56.904Z</time></trkpt><trkpt lat="45.59802216988571" lon="9.274111703558157"><ele>185.57142857142856</ele><time>2026-04-09T10:06:01.904Z</time></trkpt><trkpt lat="45.59800945024195" lon="9.27401661850053"><ele>185.0</ele><time>2026-04-09T10:06:06.904Z</time></trkpt><trkpt lat="45.59799802849584" lon="9.273924704403644"><ele>184.57142857142856</ele><time>2026-04-09T10:06:10.904Z</time></trkpt><trkpt lat="45.597982864820736" lon="9.273819837985043"><ele>184.14285714285714</ele><time>2026-04-09T10:06:15.904Z</time></trkpt><trkpt lat="45.59797031910042" lon="9.273717619193121"><ele>183.71428571428572</ele><time>2026-04-09T10:06:21.904Z</time></trkpt><trkpt lat="45.597948971776944" lon="9.273617917802426"><ele>183.28571428571428</ele><time>2026-04-09T10:06:27.906Z</time></trkpt><trkpt lat="45.597931494192494" lon="9.273529500815926"><ele>182.85714285714286</ele><time>2026-04-09T10:06:31.905Z</time></trkpt><trkpt lat="45.597913914542815" lon="9.273436399824993"><ele>182.42857142857142</ele><time>2026-04-09T10:06:36.906Z</time></trkpt><trkpt lat="45.59789637997466" lon="9.273346708931847"><ele>182.0</ele><time>2026-04-09T10:06:42.905Z</time></trkpt><trkpt lat="45.59788493267699" lon="9.273255100759927"><ele>182.0</ele><time>2026-04-09T10:06:47.905Z</time></trkpt><trkpt lat="45.59784881304731" lon="9.273178309415389"><ele>182.0</ele><time>2026-04-09T10:06:53.905Z</time></trkpt><trkpt lat="45.59778259063886" lon="9.273207297239592"><ele>182.0</ele><time>2026-04-09T10:06:58.905Z</time></trkpt><trkpt lat="45.59771785728142" lon="9.273212363002964"><ele>182.0</ele><time>2026-04-09T10:07:04.905Z</time></trkpt><trkpt lat="45.59764531342024" lon="9.273208644296968"><ele>182.0</ele><time>2026-04-09T10:07:10.905Z</time></trkpt><trkpt lat="45.597581655301404" lon="9.27318500021911"><ele>182.0</ele><time>2026-04-09T10:07:15.905Z</time></trkpt><trkpt lat="45.59751363075444" lon="9.273180463597024"><ele>182.0</ele><time>2026-04-09T10:07:21.904Z</time></trkpt><trkpt lat="45.5974442049586" lon="9.273198621119278"><ele>181.85714285714286</ele><time>2026-04-09T10:07:30.904Z</time></trkpt><trkpt lat="45.597379869561195" lon="9.273199361248057"><ele>181.71428571428572</ele><time>2026-04-09T10:07:35.904Z</time></trkpt><trkpt lat="45.59731499401756" lon="9.273217168537915"><ele>181.57142857142856</ele><time>2026-04-09T10:07:40.904Z</time></trkpt><trkpt lat="45.597248557703416" lon="9.273232312264511"><ele>181.42857142857144</ele><time>2026-04-09T10:07:45.904Z</time></trkpt><trkpt lat="45.59718624823668" lon="9.273254934180812"><ele>181.28571428571428</ele><time>2026-04-09T10:07:50.904Z</time></trkpt><trkpt lat="45.59712467934669" lon="9.273285750786645"><ele>181.14285714285714</ele><time>2026-04-09T10:07:55.904Z</time></trkpt><trkpt lat="45.59706211172976" lon="9.273313620121716"><ele>181.0</ele><time>2026-04-09T10:08:01.904Z</time></trkpt><trkpt lat="45.59699968843158" lon="9.273330906202647"><ele>181.0</ele><time>2026-04-09T10:08:06.903Z</time></trkpt><trkpt lat="45.59692191601222" lon="9.273331821006183"><ele>181.0</ele><time>2026-04-09T10:08:12.903Z</time></trkpt><trkpt lat="45.59685931600672" lon="9.27334406725671"><ele>181.0</ele><time>2026-04-09T10:08:16.903Z</time></trkpt><trkpt lat="45.59678758851192" lon="9.2733679731125"><ele>181.0</ele><time>2026-04-09T10:08:21.903Z</time></trkpt><trkpt lat="45.59671307063108" lon="9.273399605623244"><ele>181.0</ele><time>2026-04-09T10:08:26.903Z</time></trkpt><trkpt lat="45.59664610240036" lon="9.273431123715982"><ele>181.0</ele><time>2026-04-09T10:08:31.903Z</time></trkpt><trkpt lat="45.59658376366819" lon="9.273446468937218"><ele>181.0</ele><time>2026-04-09T10:08:35.904Z</time></trkpt><trkpt lat="45.596511427878625" lon="9.273473149671279"><ele>181.0</ele><time>2026-04-09T10:08:41.904Z</time></trkpt><trkpt lat="45.59645016343313" lon="9.273513000444357"><ele>181.0</ele><time>2026-04-09T10:08:55.904Z</time></trkpt><trkpt lat="45.59638083185342" lon="9.273530903823465"><ele>181.0</ele><time>2026-04-09T10:09:06.904Z</time></trkpt><trkpt lat="45.596314860503206" lon="9.273527750418893"><ele>181.0</ele><time>2026-04-09T10:09:12.904Z</time></trkpt><trkpt lat="45.59624818903257" lon="9.273540829168585"><ele>181.0</ele><time>2026-04-09T10:09:18.904Z</time></trkpt><trkpt lat="45.59618497018327" lon="9.273562785784554"><ele>181.0</ele><time>2026-04-09T10:09:25.904Z</time></trkpt><trkpt lat="45.596112742918095" lon="9.273563358459214"><ele>181.0</ele><time>2026-04-09T10:09:31.904Z</time></trkpt><trkpt lat="45.59607280095892" lon="9.273477760663253"><ele>181.0</ele><time>2026-04-09T10:09:37.903Z</time></trkpt><trkpt lat="45.59604873284043" lon="9.273393017467871"><ele>181.0</ele><time>2026-04-09T10:09:41.903Z</time></trkpt><trkpt lat="45.596040526373756" lon="9.273297226255886"><ele>181.0</ele><time>2026-04-09T10:09:46.903Z</time></trkpt><trkpt lat="45.59601468121251" lon="9.273207970070857"><ele>181.0</ele><time>2026-04-09T10:09:51.903Z</time></trkpt><trkpt lat="45.59599254379685" lon="9.273119751044874"><ele>181.0</ele><time>2026-04-09T10:09:55.903Z</time></trkpt><trkpt lat="45.59597038758147" lon="9.273032095535445"><ele>181.0</ele><time>2026-04-09T10:10:00.903Z</time></trkpt><trkpt lat="45.59594941655645" lon="9.27292554513622"><ele>181.0</ele><time>2026-04-09T10:10:05.903Z</time></trkpt><trkpt lat="45.59592672205813" lon="9.272826483571905"><ele>181.0</ele><time>2026-04-09T10:10:10.903Z</time></trkpt><trkpt lat="45.59590161741387" lon="9.272730066873223"><ele>181.0</ele><time>2026-04-09T10:10:16.903Z</time></trkpt><trkpt lat="45.59589402238968" lon="9.272623272900606"><ele>181.0</ele><time>2026-04-09T10:10:21.902Z</time></trkpt><trkpt lat="45.59588689944725" lon="9.272521419919622"><ele>181.0</ele><time>2026-04-09T10:10:27.902Z</time></trkpt><trkpt lat="45.5958826026734" lon="9.272423394093675"><ele>181.0</ele><time>2026-04-09T10:10:33.902Z</time></trkpt><trkpt lat="45.595884123521195" lon="9.272331741058272"><ele>181.0</ele><time>2026-04-09T10:10:39.904Z</time></trkpt><trkpt lat="45.5958687439061" lon="9.272233851822739"><ele>181.0</ele><time>2026-04-09T10:10:45.904Z</time></trkpt><trkpt lat="45.595852000495015" lon="9.272138721056866"><ele>181.28571428571428</ele><time>2026-04-09T10:10:51.903Z</time></trkpt><trkpt lat="45.595803609443465" lon="9.272080670442008"><ele>181.57142857142856</ele><time>2026-04-09T10:10:57.904Z</time></trkpt><trkpt lat="45.5957339790272" lon="9.27209695106489"><ele>181.85714285714286</ele><time>2026-04-09T10:11:03.903Z</time></trkpt><trkpt lat="45.595669764392106" lon="9.272113635291426"><ele>182.14285714285714</ele><time>2026-04-09T10:11:09.903Z</time></trkpt><trkpt lat="45.59560079236634" lon="9.272135532924866"><ele>182.42857142857144</ele><time>2026-04-09T10:11:15.903Z</time></trkpt><trkpt lat="45.59552856266498" lon="9.272141930492475"><ele>182.71428571428572</ele><time>2026-04-09T10:11:20.903Z</time></trkpt><trkpt lat="45.595487343833824" lon="9.27205780331285"><ele>183.0</ele><time>2026-04-09T10:11:26.903Z</time></trkpt><trkpt lat="45.59547454990961" lon="9.271956501222771"><ele>183.0</ele><time>2026-04-09T10:11:31.903Z</time></trkpt><trkpt lat="45.59545871117103" lon="9.271866610617971"><ele>183.0</ele><time>2026-04-09T10:11:36.903Z</time></trkpt><trkpt lat="45.5954401572839" lon="9.271776479332845"><ele>183.0</ele><time>2026-04-09T10:11:42.903Z</time></trkpt><trkpt lat="45.595428231743774" lon="9.271671700530458"><ele>183.0</ele><time>2026-04-09T10:11:48.902Z</time></trkpt><trkpt lat="45.59538845303925" lon="9.271595030114518"><ele>183.0</ele><time>2026-04-09T10:11:53.902Z</time></trkpt><trkpt lat="45.59531854771802" lon="9.271613853206924"><ele>183.0</ele><time>2026-04-09T10:11:59.902Z</time></trkpt><trkpt lat="45.59541001226074" lon="9.27160817006991"><ele>183.0</ele><time>2026-04-09T10:12:09.902Z</time></trkpt><trkpt lat="45.59533030973818" lon="9.271603703966022"><ele>183.0</ele><time>2026-04-09T10:12:31.901Z</time></trkpt><trkpt lat="45.59525825528604" lon="9.271640637020484"><ele>183.0</ele><time>2026-04-09T10:12:38.901Z</time></trkpt><trkpt lat="45.59519089571533" lon="9.271704479765821"><ele>183.0</ele><time>2026-04-09T10:12:43.901Z</time></trkpt><trkpt lat="45.595129441110394" lon="9.271730443717383"><ele>183.0</ele><time>2026-04-09T10:12:47.903Z</time></trkpt><trkpt lat="45.595065623884665" lon="9.271764321231135"><ele>183.0</ele><time>2026-04-09T10:12:52.903Z</time></trkpt><trkpt lat="45.594999121764005" lon="9.271786563277088"><ele>183.0</ele><time>2026-04-09T10:12:57.903Z</time></trkpt><trkpt lat="45.59492772614387" lon="9.271807205337154"><ele>183.0</ele><time>2026-04-09T10:13:02.903Z</time></trkpt><trkpt lat="45.59486030667846" lon="9.271829120360298"><ele>183.0</ele><time>2026-04-09T10:13:08.902Z</time></trkpt><trkpt lat="45.5947860932045" lon="9.271818441132723"><ele>183.0</ele><time>2026-04-09T10:13:14.902Z</time></trkpt><trkpt lat="45.594720537276665" lon="9.271817322234643"><ele>183.0</ele><time>2026-04-09T10:13:19.902Z</time></trkpt><trkpt lat="45.59464622641132" lon="9.271840552160683"><ele>183.0</ele><time>2026-04-09T10:13:25.902Z</time></trkpt><trkpt lat="45.59458177698983" lon="9.271873193634997"><ele>183.0</ele><time>2026-04-09T10:13:30.902Z</time></trkpt><trkpt lat="45.59451145541651" lon="9.271879442433047"><ele>183.0</ele><time>2026-04-09T10:13:37.902Z</time></trkpt><trkpt lat="45.594444355466095" lon="9.271866997350967"><ele>183.0</ele><time>2026-04-09T10:13:42.902Z</time></trkpt><trkpt lat="45.59438349825566" lon="9.271792034546074"><ele>182.16666666666666</ele><time>2026-04-09T10:13:49.902Z</time></trkpt><trkpt lat="45.59435010440597" lon="9.271703935542922"><ele>181.33333333333334</ele><time>2026-04-09T10:13:54.901Z</time></trkpt><trkpt lat="45.5943140985135" lon="9.271614274675233"><ele>180.5</ele><time>2026-04-09T10:14:02.901Z</time></trkpt><trkpt lat="45.5942729852032" lon="9.271484230767236"><ele>179.66666666666669</ele><time>2026-04-09T10:14:12.901Z</time></trkpt><trkpt lat="45.59419807361545" lon="9.27148153437537"><ele>178.83333333333334</ele><time>2026-04-09T10:14:17.901Z</time></trkpt><trkpt lat="45.59413603684273" lon="9.271512178363581"><ele>178.0</ele><time>2026-04-09T10:14:22.901Z</time></trkpt><trkpt lat="45.594061757751504" lon="9.271534942306939"><ele>177.99999999999997</ele><time>2026-04-09T10:14:28.901Z</time></trkpt><trkpt lat="45.59399689325484" lon="9.271559418578548"><ele>178.0</ele><time>2026-04-09T10:14:33.901Z</time></trkpt><trkpt lat="45.59393689636863" lon="9.271591187643518"><ele>178.0</ele><time>2026-04-09T10:14:37.9Z</time></trkpt><trkpt lat="45.59386859845043" lon="9.27162357421138"><ele>178.0</ele><time>2026-04-09T10:14:42.9Z</time></trkpt><trkpt lat="45.59379274827817" lon="9.271641763283903"><ele>178.0</ele><time>2026-04-09T10:14:46.9Z</time></trkpt><trkpt lat="45.593727972559144" lon="9.271667146434819"><ele>177.99999999999997</ele><time>2026-04-09T10:14:51.902Z</time></trkpt><trkpt lat="45.593664581199654" lon="9.271680604324096"><ele>178.0</ele><time>2026-04-09T10:14:55.902Z</time></trkpt><trkpt lat="45.59359417714061" lon="9.271705943335702"><ele>177.7142857142857</ele><time>2026-04-09T10:15:01.902Z</time></trkpt><trkpt lat="45.59353183391154" lon="9.271721697890158"><ele>177.42857142857142</ele><time>2026-04-09T10:15:06.901Z</time></trkpt><trkpt lat="45.59346698741686" lon="9.271743605242627"><ele>177.14285714285714</ele><time>2026-04-09T10:15:10.901Z</time></trkpt><trkpt lat="45.593402368257216" lon="9.271751565403875"><ele>176.85714285714283</ele><time>2026-04-09T10:15:15.901Z</time></trkpt><trkpt lat="45.59333891375477" lon="9.27173018350649"><ele>176.57142857142856</ele><time>2026-04-09T10:15:23.901Z</time></trkpt><trkpt lat="45.59328814775486" lon="9.271675480342935"><ele>176.28571428571428</ele><time>2026-04-09T10:15:29.901Z</time></trkpt><trkpt lat="45.593248850560606" lon="9.271601144909669"><ele>176.0</ele><time>2026-04-09T10:15:36.901Z</time></trkpt><trkpt lat="45.593224755707695" lon="9.271504244542333"><ele>176.57142857142858</ele><time>2026-04-09T10:16:46.899Z</time></trkpt><trkpt lat="45.59325961030522" lon="9.271428375658909"><ele>177.14285714285714</ele><time>2026-04-09T10:16:58.901Z</time></trkpt><trkpt lat="45.593204248807126" lon="9.27137042160667"><ele>177.71428571428572</ele><time>2026-04-09T10:17:06.901Z</time></trkpt><trkpt lat="45.59319718204506" lon="9.271259191907815"><ele>178.28571428571428</ele><time>2026-04-09T10:17:12.901Z</time></trkpt><trkpt lat="45.59317740007177" lon="9.271169298680093"><ele>178.85714285714286</ele><time>2026-04-09T10:17:17.901Z</time></trkpt><trkpt lat="45.593161202369444" lon="9.27106880415905"><ele>179.42857142857142</ele><time>2026-04-09T10:17:23.901Z</time></trkpt><trkpt lat="45.59313589344156" lon="9.270976225202281"><ele>180.0</ele><time>2026-04-09T10:17:28.9Z</time></trkpt><trkpt lat="45.59312262425371" lon="9.27087383237095"><ele>180.0</ele><time>2026-04-09T10:17:33.9Z</time></trkpt><trkpt lat="45.59310231705291" lon="9.270768031600232"><ele>180.0</ele><time>2026-04-09T10:17:38.9Z</time></trkpt><trkpt lat="45.593084879353505" lon="9.270672843604732"><ele>180.0</ele><time>2026-04-09T10:17:43.9Z</time></trkpt><trkpt lat="45.593085465963576" lon="9.270571688621706"><ele>180.0</ele><time>2026-04-09T10:17:48.9Z</time></trkpt><trkpt lat="45.59307043573463" lon="9.270476396281092"><ele>180.0</ele><time>2026-04-09T10:17:53.9Z</time></trkpt><trkpt lat="45.5930703194275" lon="9.27038619325829"><ele>180.0</ele><time>2026-04-09T10:17:57.9Z</time></trkpt><trkpt lat="45.59306443233772" lon="9.27029435806466"><ele>180.0</ele><time>2026-04-09T10:18:01.9Z</time></trkpt><trkpt lat="45.59303671805516" lon="9.270190431544213"><ele>180.0</ele><time>2026-04-09T10:18:06.9Z</time></trkpt><trkpt lat="45.593016178710734" lon="9.270081372983643"><ele>180.0</ele><time>2026-04-09T10:18:11.899Z</time></trkpt><trkpt lat="45.59300957411389" lon="9.26997425257082"><ele>180.0</ele><time>2026-04-09T10:18:16.899Z</time></trkpt><trkpt lat="45.59300826981375" lon="9.269877473236567"><ele>180.0</ele><time>2026-04-09T10:18:21.899Z</time></trkpt><trkpt lat="45.59299595104752" lon="9.26976954032193"><ele>180.0</ele><time>2026-04-09T10:18:27.899Z</time></trkpt><trkpt lat="45.592982741757304" lon="9.26966531342601"><ele>180.0</ele><time>2026-04-09T10:18:32.899Z</time></trkpt><trkpt lat="45.59297328489818" lon="9.26956988985111"><ele>180.0</ele><time>2026-04-09T10:18:37.899Z</time></trkpt><trkpt lat="45.59296149939077" lon="9.269460844469698"><ele>179.85714285714286</ele><time>2026-04-09T10:18:42.899Z</time></trkpt><trkpt lat="45.59294656371631" lon="9.26936543979666"><ele>179.71428571428572</ele><time>2026-04-09T10:18:46.893Z</time></trkpt><trkpt lat="45.592931049014545" lon="9.26927223615328"><ele>179.57142857142858</ele><time>2026-04-09T10:18:51.884Z</time></trkpt><trkpt lat="45.59290745542979" lon="9.26917133244825"><ele>179.42857142857144</ele><time>2026-04-09T10:18:56.878Z</time></trkpt><trkpt lat="45.592892434418964" lon="9.269077011259547"><ele>179.28571428571428</ele><time>2026-04-09T10:19:00.874Z</time></trkpt><trkpt lat="45.592871627457804" lon="9.268974518069298"><ele>179.14285714285717</ele><time>2026-04-09T10:19:05.871Z</time></trkpt><trkpt lat="45.59286221219659" lon="9.268871883722205"><ele>179.0</ele><time>2026-04-09T10:19:10.868Z</time></trkpt><trkpt lat="45.59285508274643" lon="9.268770575168906"><ele>179.00000000000003</ele><time>2026-04-09T10:19:16.866Z</time></trkpt><trkpt lat="45.5928405519956" lon="9.268669463791024"><ele>179.0</ele><time>2026-04-09T10:19:21.865Z</time></trkpt><trkpt lat="45.59283404379486" lon="9.268575248746442"><ele>179.0</ele><time>2026-04-09T10:19:26.863Z</time></trkpt><trkpt lat="45.59281206552915" lon="9.268474716240771"><ele>179.0</ele><time>2026-04-09T10:19:31.863Z</time></trkpt><trkpt lat="45.592783621278684" lon="9.268386012975128"><ele>179.0</ele><time>2026-04-09T10:19:36.862Z</time></trkpt><trkpt lat="45.59276984687221" lon="9.268294796575237"><ele>179.00000000000003</ele><time>2026-04-09T10:19:41.861Z</time></trkpt><trkpt lat="45.592754888625564" lon="9.268193153969253"><ele>179.0</ele><time>2026-04-09T10:19:46.861Z</time></trkpt><trkpt lat="45.59273584672492" lon="9.268100413522795"><ele>178.71428571428572</ele><time>2026-04-09T10:19:51.861Z</time></trkpt><trkpt lat="45.59272538154891" lon="9.267999902575506"><ele>178.42857142857144</ele><time>2026-04-09T10:19:56.86Z</time></trkpt><trkpt lat="45.59270582050568" lon="9.267894178675322"><ele>178.14285714285717</ele><time>2026-04-09T10:20:01.86Z</time></trkpt><trkpt lat="45.59269419176349" lon="9.2677952134326"><ele>177.85714285714286</ele><time>2026-04-09T10:20:06.86Z</time></trkpt><trkpt lat="45.59268154195842" lon="9.267699140078067"><ele>177.57142857142856</ele><time>2026-04-09T10:20:11.86Z</time></trkpt><trkpt lat="45.592672185540785" lon="9.267603170339354"><ele>177.2857142857143</ele><time>2026-04-09T10:20:16.86Z</time></trkpt><trkpt lat="45.59265981295333" lon="9.267505816518636"><ele>177.0</ele><time>2026-04-09T10:20:21.859Z</time></trkpt><trkpt lat="45.59264576453214" lon="9.267416557218475"><ele>177.0</ele><time>2026-04-09T10:20:27.859Z</time></trkpt><trkpt lat="45.59262511055242" lon="9.267316745515126"><ele>177.0</ele><time>2026-04-09T10:20:32.859Z</time></trkpt><trkpt lat="45.59261869335623" lon="9.267224652647208"><ele>177.0</ele><time>2026-04-09T10:20:37.859Z</time></trkpt><trkpt lat="45.59261369961181" lon="9.267118842940304"><ele>177.0</ele><time>2026-04-09T10:20:41.859Z</time></trkpt><trkpt lat="45.592605466006596" lon="9.267015715684895"><ele>177.0</ele><time>2026-04-09T10:20:46.859Z</time></trkpt><trkpt lat="45.59258265260576" lon="9.266904936527482"><ele>177.0</ele><time>2026-04-09T10:20:51.859Z</time></trkpt><trkpt lat="45.59256411539712" lon="9.266801863021605"><ele>177.0</ele><time>2026-04-09T10:20:56.858Z</time></trkpt><trkpt lat="45.59254492984546" lon="9.266695737400855"><ele>176.85714285714286</ele><time>2026-04-09T10:21:02.858Z</time></trkpt><trkpt lat="45.592540551717896" lon="9.266599081479363"><ele>176.7142857142857</ele><time>2026-04-09T10:21:07.858Z</time></trkpt><trkpt lat="45.592527625307824" lon="9.2664970248865"><ele>176.57142857142856</ele><time>2026-04-09T10:21:12.86Z</time></trkpt><trkpt lat="45.592511481363154" lon="9.266393344092693"><ele>176.42857142857144</ele><time>2026-04-09T10:21:17.859Z</time></trkpt><trkpt lat="45.5924944020705" lon="9.26630169950385"><ele>176.28571428571428</ele><time>2026-04-09T10:21:22.859Z</time></trkpt><trkpt lat="45.592477876933316" lon="9.26621114889806"><ele>176.14285714285714</ele><time>2026-04-09T10:21:27.859Z</time></trkpt><trkpt lat="45.59246858354094" lon="9.266106018908568"><ele>176.0</ele><time>2026-04-09T10:21:32.859Z</time></trkpt><trkpt lat="45.59244854532109" lon="9.265998804485188"><ele>176.0</ele><time>2026-04-09T10:21:37.859Z</time></trkpt><trkpt lat="45.592428947233664" lon="9.265904452717404"><ele>176.0</ele><time>2026-04-09T10:21:41.859Z</time></trkpt><trkpt lat="45.59241290725829" lon="9.265806570291694"><ele>176.0</ele><time>2026-04-09T10:21:46.858Z</time></trkpt><trkpt lat="45.59239962190296" lon="9.265713657465842"><ele>176.0</ele><time>2026-04-09T10:21:53.858Z</time></trkpt><trkpt lat="45.5924033661173" lon="9.265622847297632"><ele>176.0</ele><time>2026-04-09T10:21:58.858Z</time></trkpt><trkpt lat="45.59238720793588" lon="9.265516735183095"><ele>176.0</ele><time>2026-04-09T10:22:04.858Z</time></trkpt><trkpt lat="45.592370921927596" lon="9.265413337720966"><ele>176.0</ele><time>2026-04-09T10:22:09.858Z</time></trkpt><trkpt lat="45.592361391333135" lon="9.265308692445481"><ele>176.0</ele><time>2026-04-09T10:22:14.858Z</time></trkpt><trkpt lat="45.59234262374122" lon="9.265202645601372"><ele>176.0</ele><time>2026-04-09T10:22:19.858Z</time></trkpt><trkpt lat="45.5923275020339" lon="9.265098000297154"><ele>176.0</ele><time>2026-04-09T10:22:24.857Z</time></trkpt><trkpt lat="45.592314204884204" lon="9.265001493491061"><ele>176.0</ele><time>2026-04-09T10:22:29.857Z</time></trkpt><trkpt lat="45.59230246292967" lon="9.264910614691507"><ele>176.0</ele><time>2026-04-09T10:22:33.857Z</time></trkpt><trkpt lat="45.59227787658278" lon="9.264811915013842"><ele>176.0</ele><time>2026-04-09T10:22:38.857Z</time></trkpt><trkpt lat="45.59226253037071" lon="9.264719251959287"><ele>176.0</ele><time>2026-04-09T10:22:43.857Z</time></trkpt><trkpt lat="45.592252307811464" lon="9.26462490084024"><ele>176.14285714285714</ele><time>2026-04-09T10:22:48.857Z</time></trkpt><trkpt lat="45.59224102979237" lon="9.264515296130531"><ele>176.28571428571428</ele><time>2026-04-09T10:22:54.857Z</time></trkpt><trkpt lat="45.59223001624175" lon="9.26440646664933"><ele>176.42857142857144</ele><time>2026-04-09T10:23:00.856Z</time></trkpt><trkpt lat="45.59220711113425" lon="9.264306088243229"><ele>176.57142857142856</ele><time>2026-04-09T10:23:05.856Z</time></trkpt><trkpt lat="45.59218277337329" lon="9.264214697038405"><ele>176.7142857142857</ele><time>2026-04-09T10:23:10.856Z</time></trkpt><trkpt lat="45.59216788722371" lon="9.264117197912785"><ele>176.85714285714286</ele><time>2026-04-09T10:23:15.858Z</time></trkpt><trkpt lat="45.59215893476802" lon="9.264025551401495"><ele>177.0</ele><time>2026-04-09T10:23:20.858Z</time></trkpt><trkpt lat="45.592150362019765" lon="9.263927153228371"><ele>177.0</ele><time>2026-04-09T10:23:25.859Z</time></trkpt><trkpt lat="45.59213909287464" lon="9.263835585361186"><ele>177.0</ele><time>2026-04-09T10:23:30.857Z</time></trkpt><trkpt lat="45.592130562525234" lon="9.26374434138684"><ele>177.0</ele><time>2026-04-09T10:23:35.857Z</time></trkpt><trkpt lat="45.59211547372641" lon="9.26365644042158"><ele>177.0</ele><time>2026-04-09T10:23:39.857Z</time></trkpt><trkpt lat="45.592120590220865" lon="9.263555744632049"><ele>177.0</ele><time>2026-04-09T10:23:44.857Z</time></trkpt><trkpt lat="45.59210877494329" lon="9.263448144254392"><ele>177.0</ele><time>2026-04-09T10:23:49.857Z</time></trkpt><trkpt lat="45.5920962326368" lon="9.26335182720352"><ele>177.0</ele><time>2026-04-09T10:23:54.857Z</time></trkpt><trkpt lat="45.59207980703023" lon="9.263251268678681"><ele>177.0</ele><time>2026-04-09T10:23:59.857Z</time></trkpt><trkpt lat="45.59206388936782" lon="9.263164007764331"><ele>177.0</ele><time>2026-04-09T10:24:03.857Z</time></trkpt><trkpt lat="45.59197523175298" lon="9.263058851437881"><ele>177.0</ele><time>2026-04-09T10:24:50.855Z</time></trkpt><trkpt lat="45.59197591994565" lon="9.262950042524045"><ele>177.0</ele><time>2026-04-09T10:24:57.855Z</time></trkpt><trkpt lat="45.5919808845831" lon="9.262859554874607"><ele>177.0</ele><time>2026-04-09T10:25:02.855Z</time></trkpt><trkpt lat="45.59199965407962" lon="9.26277063564094"><ele>177.0</ele><time>2026-04-09T10:25:07.855Z</time></trkpt><trkpt lat="45.591983694252846" lon="9.262673854977004"><ele>176.57142857142858</ele><time>2026-04-09T10:25:12.855Z</time></trkpt><trkpt lat="45.59196608466507" lon="9.262579372884394"><ele>176.14285714285714</ele><time>2026-04-09T10:25:18.854Z</time></trkpt><trkpt lat="45.59195032161932" lon="9.262487366559773"><ele>175.71428571428572</ele><time>2026-04-09T10:25:23.857Z</time></trkpt><trkpt lat="45.59193416223732" lon="9.262394171937597"><ele>175.28571428571428</ele><time>2026-04-09T10:25:28.857Z</time></trkpt><trkpt lat="45.59192125718031" lon="9.262290704569509"><ele>174.85714285714286</ele><time>2026-04-09T10:25:34.857Z</time></trkpt><trkpt lat="45.59190806583883" lon="9.262184628889395"><ele>174.42857142857142</ele><time>2026-04-09T10:25:39.856Z</time></trkpt><trkpt lat="45.591896257345674" lon="9.262085434176724"><ele>174.0</ele><time>2026-04-09T10:25:45.856Z</time></trkpt><trkpt lat="45.59189180564599" lon="9.261979667256485"><ele>174.0</ele><time>2026-04-09T10:25:50.856Z</time></trkpt><trkpt lat="45.591872345182885" lon="9.261887133852126"><ele>174.0</ele><time>2026-04-09T10:25:54.856Z</time></trkpt><trkpt lat="45.59185777279062" lon="9.261785428462108"><ele>174.0</ele><time>2026-04-09T10:26:00.856Z</time></trkpt><trkpt lat="45.59184885543195" lon="9.261689962793174"><ele>174.0</ele><time>2026-04-09T10:26:05.856Z</time></trkpt><trkpt lat="45.59183482236906" lon="9.261598413222996"><ele>174.0</ele><time>2026-04-09T10:26:09.856Z</time></trkpt><trkpt lat="45.591822663767616" lon="9.261509539483654"><ele>174.0</ele><time>2026-04-09T10:26:13.855Z</time></trkpt><trkpt lat="45.591813820934554" lon="9.261414750064827"><ele>174.0</ele><time>2026-04-09T10:26:17.855Z</time></trkpt><trkpt lat="45.59180946630739" lon="9.261324816273484"><ele>174.0</ele><time>2026-04-09T10:26:21.855Z</time></trkpt><trkpt lat="45.59178916217987" lon="9.261226571575278"><ele>174.0</ele><time>2026-04-09T10:26:27.855Z</time></trkpt><trkpt lat="45.59178131489669" lon="9.261134458536661"><ele>174.0</ele><time>2026-04-09T10:26:32.855Z</time></trkpt><trkpt lat="45.59177489302091" lon="9.261040820503448"><ele>174.0</ele><time>2026-04-09T10:26:37.855Z</time></trkpt><trkpt lat="45.591757028919815" lon="9.260942342878943"><ele>174.0</ele><time>2026-04-09T10:26:42.855Z</time></trkpt><trkpt lat="45.591743937644395" lon="9.260846724366571"><ele>174.0</ele><time>2026-04-09T10:26:47.854Z</time></trkpt><trkpt lat="45.591722794723665" lon="9.260761354917841"><ele>174.0</ele><time>2026-04-09T10:26:52.854Z</time></trkpt><trkpt lat="45.591700055036185" lon="9.26065232288379"><ele>174.14285714285714</ele><time>2026-04-09T10:26:56.854Z</time></trkpt><trkpt lat="45.59168279702017" lon="9.26054511164014"><ele>174.28571428571428</ele><time>2026-04-09T10:27:01.854Z</time></trkpt><trkpt lat="45.59168293454809" lon="9.260451490165222"><ele>174.42857142857144</ele><time>2026-04-09T10:27:07.854Z</time></trkpt><trkpt lat="45.59166935704577" lon="9.260346550104991"><ele>174.57142857142856</ele><time>2026-04-09T10:27:12.854Z</time></trkpt><trkpt lat="45.591659438565266" lon="9.260256250113505"><ele>174.71428571428572</ele><time>2026-04-09T10:27:17.854Z</time></trkpt><trkpt lat="45.59164708079728" lon="9.26014870807177"><ele>174.85714285714286</ele><time>2026-04-09T10:27:23.853Z</time></trkpt><trkpt lat="45.5916368799146" lon="9.260047699092208"><ele>175.0</ele><time>2026-04-09T10:27:28.854Z</time></trkpt><trkpt lat="45.59162614616035" lon="9.259947478781143"><ele>175.0</ele><time>2026-04-09T10:27:33.855Z</time></trkpt><trkpt lat="45.59160586464958" lon="9.259857093067058"><ele>175.0</ele><time>2026-04-09T10:27:38.855Z</time></trkpt><trkpt lat="45.591588426951276" lon="9.25976349697933"><ele>175.0</ele><time>2026-04-09T10:27:43.855Z</time></trkpt><trkpt lat="45.59156962628688" lon="9.259672933422852"><ele>175.0</ele><time>2026-04-09T10:27:48.855Z</time></trkpt><trkpt lat="45.591551603055834" lon="9.259567863560775"><ele>175.0</ele><time>2026-04-09T10:27:53.855Z</time></trkpt><trkpt lat="45.591545199381706" lon="9.259461191527178"><ele>175.0</ele><time>2026-04-09T10:27:59.855Z</time></trkpt><trkpt lat="45.59152998347555" lon="9.259358311595498"><ele>175.0</ele><time>2026-04-09T10:28:04.854Z</time></trkpt><trkpt lat="45.59151507789205" lon="9.259264543804946"><ele>175.0</ele><time>2026-04-09T10:28:09.854Z</time></trkpt><trkpt lat="45.591509042808234" lon="9.259164418442209"><ele>175.0</ele><time>2026-04-09T10:28:14.854Z</time></trkpt><trkpt lat="45.5914797713823" lon="9.259063632448585"><ele>175.0</ele><time>2026-04-09T10:28:19.854Z</time></trkpt><trkpt lat="45.59145975427914" lon="9.258957300972408"><ele>175.0</ele><time>2026-04-09T10:28:25.854Z</time></trkpt><trkpt lat="45.591450196261036" lon="9.25884638134249"><ele>175.0</ele><time>2026-04-09T10:28:30.854Z</time></trkpt><trkpt lat="45.59143309653056" lon="9.258750382055934"><ele>175.0</ele><time>2026-04-09T10:28:35.853Z</time></trkpt><trkpt lat="45.591424325582544" lon="9.258653831834478"><ele>175.0</ele><time>2026-04-09T10:28:40.853Z</time></trkpt><trkpt lat="45.591420749600296" lon="9.258542564457654"><ele>175.0</ele><time>2026-04-09T10:28:45.853Z</time></trkpt><trkpt lat="45.59140343802147" lon="9.25843432298943"><ele>175.0</ele><time>2026-04-09T10:28:50.853Z</time></trkpt><trkpt lat="45.59139955760902" lon="9.258343947630962"><ele>175.0</ele><time>2026-04-09T10:28:55.853Z</time></trkpt><trkpt lat="45.591384843781086" lon="9.25824356713066"><ele>175.0</ele><time>2026-04-09T10:29:00.853Z</time></trkpt><trkpt lat="45.5913723548694" lon="9.258149437301613"><ele>175.0</ele><time>2026-04-09T10:29:05.853Z</time></trkpt><trkpt lat="45.591348739802875" lon="9.258048862002894"><ele>175.0</ele><time>2026-04-09T10:29:10.852Z</time></trkpt><trkpt lat="45.59132996420746" lon="9.257962313639359"><ele>175.0</ele><time>2026-04-09T10:29:15.852Z</time></trkpt><trkpt lat="45.59130506451505" lon="9.257863014251834"><ele>175.28571428571428</ele><time>2026-04-09T10:29:20.852Z</time></trkpt><trkpt lat="45.59128568305061" lon="9.25776028545326"><ele>175.57142857142856</ele><time>2026-04-09T10:29:25.852Z</time></trkpt><trkpt lat="45.59127145728635" lon="9.257648955005216"><ele>175.85714285714286</ele><time>2026-04-09T10:29:31.852Z</time></trkpt><trkpt lat="45.59125723201736" lon="9.257555255244542"><ele>176.14285714285714</ele><time>2026-04-09T10:29:36.853Z</time></trkpt><trkpt lat="45.5912433587348" lon="9.257460235263949"><ele>176.42857142857142</ele><time>2026-04-09T10:29:41.853Z</time></trkpt><trkpt lat="45.59123583516856" lon="9.25735295876626"><ele>176.71428571428572</ele><time>2026-04-09T10:29:46.853Z</time></trkpt><trkpt lat="45.59122379094528" lon="9.257263694377206"><ele>177.0</ele><time>2026-04-09T10:29:51.853Z</time></trkpt><trkpt lat="45.59120751041188" lon="9.257164224281775"><ele>177.14285714285714</ele><time>2026-04-09T10:29:56.853Z</time></trkpt><trkpt lat="45.59118978390978" lon="9.257076541869697"><ele>177.28571428571428</ele><time>2026-04-09T10:30:00.853Z</time></trkpt><trkpt lat="45.591182627289655" lon="9.256972697963013"><ele>177.42857142857142</ele><time>2026-04-09T10:30:06.852Z</time></trkpt><trkpt lat="45.59116737176721" lon="9.256871367847765"><ele>177.57142857142856</ele><time>2026-04-09T10:30:11.852Z</time></trkpt><trkpt lat="45.59115285906434" lon="9.256772986945144"><ele>177.71428571428572</ele><time>2026-04-09T10:30:17.852Z</time></trkpt><trkpt lat="45.5911465911572" lon="9.256663457581793"><ele>177.85714285714283</ele><time>2026-04-09T10:30:23.852Z</time></trkpt><trkpt lat="45.591133271244885" lon="9.256558897379922"><ele>178.0</ele><time>2026-04-09T10:30:29.852Z</time></trkpt><trkpt lat="45.59111880776985" lon="9.25645799476475"><ele>177.85714285714283</ele><time>2026-04-09T10:30:34.852Z</time></trkpt><trkpt lat="45.5911063707277" lon="9.25635859782574"><ele>177.71428571428572</ele><time>2026-04-09T10:30:39.851Z</time></trkpt><trkpt lat="45.591100014930056" lon="9.256264247813135"><ele>177.57142857142856</ele><time>2026-04-09T10:30:44.851Z</time></trkpt><trkpt lat="45.59108215766381" lon="9.256176410761633"><ele>177.42857142857142</ele><time>2026-04-09T10:30:49.851Z</time></trkpt><trkpt lat="45.59107010352224" lon="9.256079838670336"><ele>177.28571428571428</ele><time>2026-04-09T10:30:54.851Z</time></trkpt><trkpt lat="45.59104675849426" lon="9.255989019657365"><ele>177.14285714285714</ele><time>2026-04-09T10:30:58.851Z</time></trkpt><trkpt lat="45.59102713138657" lon="9.255894132264524"><ele>177.0</ele><time>2026-04-09T10:31:03.851Z</time></trkpt><trkpt lat="45.59101885144292" lon="9.255797384449433"><ele>177.0</ele><time>2026-04-09T10:31:07.851Z</time></trkpt><trkpt lat="45.59101579538879" lon="9.255706184480585"><ele>177.0</ele><time>2026-04-09T10:31:11.851Z</time></trkpt><trkpt lat="45.59100939713783" lon="9.255609292531359"><ele>177.0</ele><time>2026-04-09T10:31:16.85Z</time></trkpt><trkpt lat="45.59099797566184" lon="9.255518419967729"><ele>177.0</ele><time>2026-04-09T10:31:20.85Z</time></trkpt><trkpt lat="45.59097808348238" lon="9.255420237458303"><ele>177.0</ele><time>2026-04-09T10:31:25.85Z</time></trkpt><trkpt lat="45.59096658075256" lon="9.255324393819196"><ele>177.0</ele><time>2026-04-09T10:31:30.85Z</time></trkpt><trkpt lat="45.59094764664265" lon="9.25522806113783"><ele>177.0</ele><time>2026-04-09T10:31:35.85Z</time></trkpt><trkpt lat="45.590943743706916" lon="9.255120316135638"><ele>177.0</ele><time>2026-04-09T10:31:41.851Z</time></trkpt><trkpt lat="45.590925184236404" lon="9.255016067977897"><ele>177.0</ele><time>2026-04-09T10:31:46.851Z</time></trkpt><trkpt lat="45.59091193542132" lon="9.254917641330355"><ele>177.0</ele><time>2026-04-09T10:31:51.851Z</time></trkpt><trkpt lat="45.59089984117279" lon="9.254826342386853"><ele>177.0</ele><time>2026-04-09T10:31:56.851Z</time></trkpt><trkpt lat="45.59087982094059" lon="9.254724772794932"><ele>177.0</ele><time>2026-04-09T10:32:01.851Z</time></trkpt><trkpt lat="45.59085837515639" lon="9.254639672368354"><ele>177.0</ele><time>2026-04-09T10:32:06.851Z</time></trkpt><trkpt lat="45.590839138693084" lon="9.254531764865964"><ele>177.0</ele><time>2026-04-09T10:32:11.851Z</time></trkpt><trkpt lat="45.59080026408571" lon="9.254435172601617"><ele>176.85714285714286</ele><time>2026-04-09T10:32:16.851Z</time></trkpt><trkpt lat="45.59073142200241" lon="9.25447954430859"><ele>176.7142857142857</ele><time>2026-04-09T10:32:31.85Z</time></trkpt><trkpt lat="45.59067348679033" lon="9.25453419283469"><ele>176.57142857142856</ele><time>2026-04-09T10:32:37.85Z</time></trkpt><trkpt lat="45.590601547585" lon="9.254553583657884"><ele>176.42857142857144</ele><time>2026-04-09T10:32:44.85Z</time></trkpt><trkpt lat="45.590536417313096" lon="9.254559418994193"><ele>176.28571428571428</ele><time>2026-04-09T10:33:47.849Z</time></trkpt><trkpt lat="45.59046194574245" lon="9.254579752404267"><ele>176.14285714285714</ele><time>2026-04-09T10:33:53.849Z</time></trkpt><trkpt lat="45.59039652110311" lon="9.254538105955056"><ele>176.0</ele><time>2026-04-09T10:33:59.849Z</time></trkpt><trkpt lat="45.59033411423591" lon="9.25449086444231"><ele>175.85714285714286</ele><time>2026-04-09T10:34:04.849Z</time></trkpt><trkpt lat="45.59026839648092" lon="9.254451193404535"><ele>175.71428571428572</ele><time>2026-04-09T10:34:10.849Z</time></trkpt><trkpt lat="45.59020918242814" lon="9.254419304662672"><ele>175.57142857142856</ele><time>2026-04-09T10:35:11.847Z</time></trkpt><trkpt lat="45.59015632265077" lon="9.254346753085175"><ele>175.42857142857144</ele><time>2026-04-09T10:35:17.847Z</time></trkpt><trkpt lat="45.59012972163858" lon="9.254258495148262"><ele>175.28571428571428</ele><time>2026-04-09T10:35:22.847Z</time></trkpt><trkpt lat="45.590096582123266" lon="9.254169230912447"><ele>175.14285714285714</ele><time>2026-04-09T10:35:28.846Z</time></trkpt><trkpt lat="45.59005881415686" lon="9.254083536862565"><ele>175.0</ele><time>2026-04-09T10:35:33.846Z</time></trkpt><trkpt lat="45.59002856972698" lon="9.253984739400384"><ele>175.0</ele><time>2026-04-09T10:35:39.846Z</time></trkpt><trkpt lat="45.59001759884354" lon="9.253886466882218"><ele>175.0</ele><time>2026-04-09T10:35:44.846Z</time></trkpt><trkpt lat="45.5900092713989" lon="9.253786469675003"><ele>175.0</ele><time>2026-04-09T10:35:49.846Z</time></trkpt><trkpt lat="45.58998650815844" lon="9.25368165504293"><ele>175.0</ele><time>2026-04-09T10:35:54.848Z</time></trkpt><trkpt lat="45.5899253884791" lon="9.253632716474428"><ele>175.0</ele><time>2026-04-09T10:35:59.848Z</time></trkpt><trkpt lat="45.58984882616671" lon="9.253603844893773"><ele>175.0</ele><time>2026-04-09T10:36:04.847Z</time></trkpt><trkpt lat="45.58977719352482" lon="9.25355746277416"><ele>175.0</ele><time>2026-04-09T10:36:09.847Z</time></trkpt><trkpt lat="45.589714060257926" lon="9.253533819952967"><ele>175.0</ele><time>2026-04-09T10:36:13.847Z</time></trkpt><trkpt lat="45.589652285293454" lon="9.253496781870293"><ele>175.0</ele><time>2026-04-09T10:36:18.847Z</time></trkpt><trkpt lat="45.589585643286654" lon="9.253474486024379"><ele>175.0</ele><time>2026-04-09T10:36:22.847Z</time></trkpt><trkpt lat="45.58951197458497" lon="9.253465316905576"><ele>175.0</ele><time>2026-04-09T10:36:26.847Z</time></trkpt><trkpt lat="45.5894472850411" lon="9.253444582107205"><ele>175.0</ele><time>2026-04-09T10:36:31.847Z</time></trkpt><trkpt lat="45.58937559168331" lon="9.253400940158262"><ele>175.0</ele><time>2026-04-09T10:36:36.846Z</time></trkpt><trkpt lat="45.58930092335335" lon="9.25338054470004"><ele>175.0</ele><time>2026-04-09T10:36:41.846Z</time></trkpt><trkpt lat="45.58923561777798" lon="9.253347407053603"><ele>174.71428571428572</ele><time>2026-04-09T10:36:45.846Z</time></trkpt><trkpt lat="45.589160870626145" lon="9.25335602388202"><ele>174.42857142857144</ele><time>2026-04-09T10:36:50.846Z</time></trkpt><trkpt lat="45.589097305182875" lon="9.253340670349266"><ele>174.14285714285714</ele><time>2026-04-09T10:36:55.846Z</time></trkpt><trkpt lat="45.58902748610183" lon="9.253319894561054"><ele>173.85714285714286</ele><time>2026-04-09T10:37:00.846Z</time></trkpt><trkpt lat="45.58897867234757" lon="9.253377453141193"><ele>173.57142857142858</ele><time>2026-04-09T10:37:08.846Z</time></trkpt><trkpt lat="45.588955767563846" lon="9.253483741376543"><ele>173.28571428571428</ele><time>2026-04-09T10:37:13.845Z</time></trkpt><trkpt lat="45.58894614797001" lon="9.25358830834358"><ele>173.0</ele><time>2026-04-09T10:37:18.845Z</time></trkpt><trkpt lat="45.58894164018886" lon="9.253688488091589"><ele>173.0</ele><time>2026-04-09T10:37:22.845Z</time></trkpt><trkpt lat="45.58892855113962" lon="9.253782521732495"><ele>173.0</ele><time>2026-04-09T10:37:28.845Z</time></trkpt><trkpt lat="45.588904248925154" lon="9.253874803291431"><ele>173.0</ele><time>2026-04-09T10:37:33.845Z</time></trkpt><trkpt lat="45.58889350048426" lon="9.253964434929609"><ele>173.0</ele><time>2026-04-09T10:37:37.845Z</time></trkpt><trkpt lat="45.58889273276246" lon="9.254075819636638"><ele>173.0</ele><time>2026-04-09T10:37:42.845Z</time></trkpt><trkpt lat="45.58888964759546" lon="9.254167490737263"><ele>173.0</ele><time>2026-04-09T10:37:47.844Z</time></trkpt><trkpt lat="45.58888665012265" lon="9.254274024184664"><ele>173.0</ele><time>2026-04-09T10:37:52.844Z</time></trkpt><trkpt lat="45.58889123038529" lon="9.254367216275416"><ele>173.14285714285714</ele><time>2026-04-09T10:37:57.846Z</time></trkpt><trkpt lat="45.58889573793126" lon="9.254469341837163"><ele>173.2857142857143</ele><time>2026-04-09T10:38:02.847Z</time></trkpt><trkpt lat="45.588903371077" lon="9.254567716263415"><ele>173.42857142857144</ele><time>2026-04-09T10:38:07.846Z</time></trkpt><trkpt lat="45.588918667995365" lon="9.254660283002792"><ele>173.57142857142856</ele><time>2026-04-09T10:38:11.846Z</time></trkpt><trkpt lat="45.588927728582135" lon="9.254766349348174"><ele>173.71428571428572</ele><time>2026-04-09T10:38:16.845Z</time></trkpt><trkpt lat="45.58894053878424" lon="9.254867934741727"><ele>173.85714285714286</ele><time>2026-04-09T10:38:21.845Z</time></trkpt><trkpt lat="45.58895184020411" lon="9.254964672027526"><ele>174.0</ele><time>2026-04-09T10:38:26.845Z</time></trkpt><trkpt lat="45.58895808517041" lon="9.255061345606135"><ele>174.0</ele><time>2026-04-09T10:38:30.845Z</time></trkpt><trkpt lat="45.588972229730516" lon="9.255158588554862"><ele>174.0</ele><time>2026-04-09T10:38:35.845Z</time></trkpt><trkpt lat="45.58898926657117" lon="9.25525970709711"><ele>174.0</ele><time>2026-04-09T10:38:40.845Z</time></trkpt><trkpt lat="45.588999851952416" lon="9.255370113528327"><ele>174.0</ele><time>2026-04-09T10:38:45.845Z</time></trkpt><trkpt lat="45.58902123579653" lon="9.255471447225512"><ele>174.0</ele><time>2026-04-09T10:38:50.844Z</time></trkpt><trkpt lat="45.589046875920076" lon="9.255556986289177"><ele>174.0</ele><time>2026-04-09T10:38:56.844Z</time></trkpt><trkpt lat="45.58907078626654" lon="9.255643551135279"><ele>174.0</ele><time>2026-04-09T10:39:01.844Z</time></trkpt><trkpt lat="45.589101620805195" lon="9.25573657540037"><ele>173.71428571428572</ele><time>2026-04-09T10:39:06.844Z</time></trkpt><trkpt lat="45.5891033623783" lon="9.255834235985098"><ele>173.42857142857144</ele><time>2026-04-09T10:39:11.844Z</time></trkpt><trkpt lat="45.5891143556176" lon="9.255929759487286"><ele>173.14285714285717</ele><time>2026-04-09T10:39:16.844Z</time></trkpt><trkpt lat="45.58914190844838" lon="9.256027371750317"><ele>172.85714285714286</ele><time>2026-04-09T10:39:21.844Z</time></trkpt><trkpt lat="45.58916225884975" lon="9.256121607221653"><ele>172.57142857142858</ele><time>2026-04-09T10:39:25.843Z</time></trkpt><trkpt lat="45.58918160398004" lon="9.256224418548936"><ele>172.2857142857143</ele><time>2026-04-09T10:39:30.843Z</time></trkpt><trkpt lat="45.58919765944912" lon="9.256315016281926"><ele>172.0</ele><time>2026-04-09T10:39:34.843Z</time></trkpt><trkpt lat="45.58920744149269" lon="9.256418195573225"><ele>171.85714285714286</ele><time>2026-04-09T10:39:39.843Z</time></trkpt><trkpt lat="45.58923180635447" lon="9.256516731443352"><ele>171.71428571428572</ele><time>2026-04-09T10:39:44.843Z</time></trkpt><trkpt lat="45.589249638335986" lon="9.256606184117372"><ele>171.57142857142856</ele><time>2026-04-09T10:39:49.843Z</time></trkpt><trkpt lat="45.58928899898866" lon="9.256681977923176"><ele>171.42857142857144</ele><time>2026-04-09T10:39:53.843Z</time></trkpt><trkpt lat="45.589321394211844" lon="9.256774585872591"><ele>171.28571428571428</ele><time>2026-04-09T10:39:58.843Z</time></trkpt><trkpt lat="45.58935333932807" lon="9.256866153352677"><ele>171.14285714285714</ele><time>2026-04-09T10:40:03.845Z</time></trkpt><trkpt lat="45.58937381381959" lon="9.256971898712969"><ele>171.0</ele><time>2026-04-09T10:40:08.845Z</time></trkpt><trkpt lat="45.58940288854674" lon="9.257057998503885"><ele>170.99999999999997</ele><time>2026-04-09T10:40:12.844Z</time></trkpt><trkpt lat="45.589412617079404" lon="9.25716039054476"><ele>171.0</ele><time>2026-04-09T10:40:18.844Z</time></trkpt><trkpt lat="45.58941957019687" lon="9.257273796901888"><ele>171.0</ele><time>2026-04-09T10:40:24.844Z</time></trkpt><trkpt lat="45.58942364097256" lon="9.257364860616962"><ele>171.0</ele><time>2026-04-09T10:40:29.844Z</time></trkpt><trkpt lat="45.58942591643331" lon="9.257467089563601"><ele>171.0</ele><time>2026-04-09T10:40:34.844Z</time></trkpt><trkpt lat="45.58942827694366" lon="9.25755712138171"><ele>170.99999999999997</ele><time>2026-04-09T10:40:39.844Z</time></trkpt><trkpt lat="45.58940976627206" lon="9.25765077673802"><ele>171.0</ele><time>2026-04-09T10:40:44.844Z</time></trkpt><trkpt lat="45.58938624778211" lon="9.257739302533917"><ele>170.85714285714283</ele><time>2026-04-09T10:40:48.844Z</time></trkpt><trkpt lat="45.58936151146705" lon="9.257844196698269"><ele>170.71428571428572</ele><time>2026-04-09T10:40:53.852Z</time></trkpt><trkpt lat="45.589333574594214" lon="9.257930302537234"><ele>170.57142857142856</ele><time>2026-04-09T10:40:58.859Z</time></trkpt><trkpt lat="45.58929727672685" lon="9.258019311130218"><ele>170.42857142857142</ele><time>2026-04-09T10:41:03.864Z</time></trkpt><trkpt lat="45.58926191070301" lon="9.25809565236802"><ele>170.28571428571428</ele><time>2026-04-09T10:41:08.868Z</time></trkpt><trkpt lat="45.58922150180578" lon="9.258172765460788"><ele>170.14285714285714</ele><time>2026-04-09T10:41:13.871Z</time></trkpt><trkpt lat="45.58917548267872" lon="9.25825226580041"><ele>170.0</ele><time>2026-04-09T10:41:18.873Z</time></trkpt><trkpt lat="45.589124797891884" lon="9.258318387326046"><ele>170.2857142857143</ele><time>2026-04-09T10:41:22.874Z</time></trkpt><trkpt lat="45.58907438683335" lon="9.258373952454122"><ele>170.57142857142856</ele><time>2026-04-09T10:41:26.875Z</time></trkpt><trkpt lat="45.5890090557985" lon="9.258424993615005"><ele>170.85714285714286</ele><time>2026-04-09T10:41:32.875Z</time></trkpt><trkpt lat="45.58894399146127" lon="9.258460003654536"><ele>171.14285714285717</ele><time>2026-04-09T10:41:38.876Z</time></trkpt><trkpt lat="45.58888200447183" lon="9.258492526013846"><ele>171.42857142857144</ele><time>2026-04-09T10:41:44.876Z</time></trkpt><trkpt lat="45.58882250335128" lon="9.25852374340995"><ele>171.71428571428572</ele><time>2026-04-09T10:41:48.876Z</time></trkpt><trkpt lat="45.588762091254644" lon="9.258554877031646"><ele>172.0</ele><time>2026-04-09T10:41:53.877Z</time></trkpt><trkpt lat="45.58870303155792" lon="9.258586335108538"><ele>171.85714285714286</ele><time>2026-04-09T10:41:58.877Z</time></trkpt><trkpt lat="45.58864075255528" lon="9.258618690766331"><ele>171.71428571428572</ele><time>2026-04-09T10:42:03.877Z</time></trkpt><trkpt lat="45.5885815376723" lon="9.25865524337645"><ele>171.57142857142856</ele><time>2026-04-09T10:42:08.877Z</time></trkpt><trkpt lat="45.58850792398719" lon="9.258702260186173"><ele>171.42857142857144</ele><time>2026-04-09T10:42:14.878Z</time></trkpt><trkpt lat="45.588443024483006" lon="9.25872582648952"><ele>171.28571428571428</ele><time>2026-04-09T10:42:19.878Z</time></trkpt><trkpt lat="45.588368484237314" lon="9.258751771964704"><ele>171.14285714285714</ele><time>2026-04-09T10:42:24.878Z</time></trkpt><trkpt lat="45.58829129562847" lon="9.258772152629293"><ele>171.0</ele><time>2026-04-09T10:42:29.878Z</time></trkpt><trkpt lat="45.58822163312261" lon="9.258801110865758"><ele>170.99999999999997</ele><time>2026-04-09T10:42:34.878Z</time></trkpt><trkpt lat="45.58814957200762" lon="9.25882624962815"><ele>171.0</ele><time>2026-04-09T10:42:39.878Z</time></trkpt><trkpt lat="45.5880852150364" lon="9.25885570731607"><ele>171.0</ele><time>2026-04-09T10:42:44.877Z</time></trkpt><trkpt lat="45.58802464335019" lon="9.25889512580165"><ele>171.0</ele><time>2026-04-09T10:42:49.877Z</time></trkpt><trkpt lat="45.58796360053603" lon="9.258919562540717"><ele>171.0</ele><time>2026-04-09T10:42:53.877Z</time></trkpt><trkpt lat="45.58789944180985" lon="9.258936656678769"><ele>170.99999999999997</ele><time>2026-04-09T10:42:57.877Z</time></trkpt><trkpt lat="45.58783745116707" lon="9.258973089635653"><ele>171.0</ele><time>2026-04-09T10:43:01.877Z</time></trkpt><trkpt lat="45.58777261132261" lon="9.258990676045476"><ele>170.85714285714283</ele><time>2026-04-09T10:43:06.877Z</time></trkpt><trkpt lat="45.58770514712931" lon="9.25902604430395"><ele>170.71428571428572</ele><time>2026-04-09T10:43:11.877Z</time></trkpt><trkpt lat="45.587639920483724" lon="9.259040614383311"><ele>170.57142857142856</ele><time>2026-04-09T10:43:16.877Z</time></trkpt><trkpt lat="45.58757023982842" lon="9.259074823417908"><ele>170.42857142857142</ele><time>2026-04-09T10:43:22.877Z</time></trkpt><trkpt lat="45.58750972288728" lon="9.259107495245235"><ele>170.28571428571428</ele><time>2026-04-09T10:43:27.876Z</time></trkpt><trkpt lat="45.587442053332296" lon="9.259144736849901"><ele>170.14285714285714</ele><time>2026-04-09T10:43:32.876Z</time></trkpt><trkpt lat="45.58737746582563" lon="9.259176977819138"><ele>170.0</ele><time>2026-04-09T10:43:37.876Z</time></trkpt><trkpt lat="45.58731280409944" lon="9.259207270829936"><ele>170.0</ele><time>2026-04-09T10:43:42.876Z</time></trkpt><trkpt lat="45.58724927629992" lon="9.259246813843413"><ele>170.0</ele><time>2026-04-09T10:43:47.876Z</time></trkpt><trkpt lat="45.587183560478145" lon="9.259267940211657"><ele>170.0</ele><time>2026-04-09T10:43:52.876Z</time></trkpt><trkpt lat="45.5871185744646" lon="9.259287058045649"><ele>170.0</ele><time>2026-04-09T10:43:56.876Z</time></trkpt><trkpt lat="45.587050432759675" lon="9.259304228509256"><ele>170.0</ele><time>2026-04-09T10:44:01.876Z</time></trkpt><trkpt lat="45.58697900856733" lon="9.259332860478713"><ele>170.0</ele><time>2026-04-09T10:44:06.876Z</time></trkpt><trkpt lat="45.58691424792429" lon="9.25936885846107"><ele>170.0</ele><time>2026-04-09T10:44:11.876Z</time></trkpt><trkpt lat="45.58685306270182" lon="9.25940121880662"><ele>169.85714285714286</ele><time>2026-04-09T10:44:16.877Z</time></trkpt><trkpt lat="45.58678421312031" lon="9.259429121643823"><ele>169.7142857142857</ele><time>2026-04-09T10:44:21.878Z</time></trkpt><trkpt lat="45.58671436916033" lon="9.2594549453907"><ele>169.57142857142856</ele><time>2026-04-09T10:44:26.877Z</time></trkpt><trkpt lat="45.58665017273705" lon="9.259486028023685"><ele>169.42857142857144</ele><time>2026-04-09T10:44:31.878Z</time></trkpt><trkpt lat="45.586587558210056" lon="9.25951823803631"><ele>169.28571428571428</ele><time>2026-04-09T10:44:36.877Z</time></trkpt><trkpt lat="45.586520685050054" lon="9.259543631334576"><ele>169.14285714285714</ele><time>2026-04-09T10:44:40.877Z</time></trkpt><trkpt lat="45.586455484233035" lon="9.25958555750337"><ele>169.0</ele><time>2026-04-09T10:44:45.877Z</time></trkpt><trkpt lat="45.586395198467436" lon="9.259626864350446"><ele>169.0</ele><time>2026-04-09T10:44:50.877Z</time></trkpt><trkpt lat="45.58633151117182" lon="9.259667243326476"><ele>169.0</ele><time>2026-04-09T10:44:55.877Z</time></trkpt><trkpt lat="45.58625768015738" lon="9.259708289802152"><ele>169.0</ele><time>2026-04-09T10:45:00.877Z</time></trkpt><trkpt lat="45.586187933006556" lon="9.25974290074276"><ele>169.0</ele><time>2026-04-09T10:45:06.877Z</time></trkpt><trkpt lat="45.58612602394187" lon="9.25977087069116"><ele>169.0</ele><time>2026-04-09T10:45:11.877Z</time></trkpt><trkpt lat="45.586057224411036" lon="9.259791413464908"><ele>169.0</ele><time>2026-04-09T10:45:16.877Z</time></trkpt><trkpt lat="45.585993687290795" lon="9.259813766199642"><ele>169.0</ele><time>2026-04-09T10:45:20.876Z</time></trkpt><trkpt lat="45.585925396489145" lon="9.259834024502005"><ele>168.85714285714286</ele><time>2026-04-09T10:45:26.876Z</time></trkpt><trkpt lat="45.58585282508765" lon="9.259869156691993"><ele>168.71428571428572</ele><time>2026-04-09T10:45:32.876Z</time></trkpt><trkpt lat="45.58578295473022" lon="9.259893972467049"><ele>168.57142857142856</ele><time>2026-04-09T10:45:37.876Z</time></trkpt><trkpt lat="45.58571245275638" lon="9.25991750872338"><ele>168.42857142857144</ele><time>2026-04-09T10:45:42.876Z</time></trkpt><trkpt lat="45.58565112737853" lon="9.259944200571683"><ele>168.28571428571428</ele><time>2026-04-09T10:45:47.876Z</time></trkpt><trkpt lat="45.585578720499115" lon="9.259971190259657"><ele>168.14285714285714</ele><time>2026-04-09T10:45:52.876Z</time></trkpt><trkpt lat="45.58551078334099" lon="9.260005561224423"><ele>168.0</ele><time>2026-04-09T10:45:57.876Z</time></trkpt><trkpt lat="45.58545158307571" lon="9.260041105435802"><ele>168.0</ele><time>2026-04-09T10:46:02.876Z</time></trkpt><trkpt lat="45.58539083730684" lon="9.260074314016109"><ele>168.0</ele><time>2026-04-09T10:46:07.875Z</time></trkpt><trkpt lat="45.585328382923755" lon="9.260105465397148"><ele>168.0</ele><time>2026-04-09T10:46:12.875Z</time></trkpt><trkpt lat="45.58525961126956" lon="9.260142437181328"><ele>168.0</ele><time>2026-04-09T10:46:17.875Z</time></trkpt><trkpt lat="45.585183627875026" lon="9.26015815171073"><ele>168.0</ele><time>2026-04-09T10:46:22.876Z</time></trkpt><trkpt lat="45.58512107004567" lon="9.260186233050614"><ele>168.0</ele><time>2026-04-09T10:46:26.876Z</time></trkpt><trkpt lat="45.58506219013884" lon="9.260222975305515"><ele>168.0</ele><time>2026-04-09T10:46:32.876Z</time></trkpt><trkpt lat="45.58499839766963" lon="9.260250815175835"><ele>167.71428571428572</ele><time>2026-04-09T10:46:38.876Z</time></trkpt><trkpt lat="45.58493058670858" lon="9.260266385166593"><ele>167.42857142857144</ele><time>2026-04-09T10:46:43.876Z</time></trkpt><trkpt lat="45.58486972623689" lon="9.260290099320514"><ele>167.14285714285714</ele><time>2026-04-09T10:46:48.876Z</time></trkpt><trkpt lat="45.58480108440904" lon="9.260327607532181"><ele>166.85714285714286</ele><time>2026-04-09T10:46:54.876Z</time></trkpt><trkpt lat="45.58472702955511" lon="9.260344262113792"><ele>166.57142857142858</ele><time>2026-04-09T10:46:59.876Z</time></trkpt><trkpt lat="45.58466005265325" lon="9.260382887437872"><ele>166.28571428571428</ele><time>2026-04-09T10:47:05.875Z</time></trkpt><trkpt lat="45.58459251429484" lon="9.2604144367383"><ele>166.0</ele><time>2026-04-09T10:47:11.875Z</time></trkpt><trkpt lat="45.58452887221689" lon="9.26044674935765"><ele>166.28571428571428</ele><time>2026-04-09T10:47:17.875Z</time></trkpt><trkpt lat="45.584460250210554" lon="9.260491863004729"><ele>166.57142857142858</ele><time>2026-04-09T10:47:22.875Z</time></trkpt><trkpt lat="45.58439541679506" lon="9.260522457936126"><ele>166.85714285714286</ele><time>2026-04-09T10:47:26.875Z</time></trkpt><trkpt lat="45.584328371647004" lon="9.260545444963666"><ele>167.14285714285714</ele><time>2026-04-09T10:47:31.875Z</time></trkpt><trkpt lat="45.58426224090353" lon="9.260584640731999"><ele>167.42857142857144</ele><time>2026-04-09T10:47:36.875Z</time></trkpt><trkpt lat="45.58419583016978" lon="9.26064758571188"><ele>167.71428571428572</ele><time>2026-04-09T10:48:09.874Z</time></trkpt><trkpt lat="45.584125040870084" lon="9.260665066321332"><ele>168.0</ele><time>2026-04-09T10:48:13.874Z</time></trkpt><trkpt lat="45.584061874175426" lon="9.26071210307424"><ele>168.14285714285714</ele><time>2026-04-09T10:48:19.874Z</time></trkpt><trkpt lat="45.584002250134475" lon="9.260748142542765"><ele>168.28571428571428</ele><time>2026-04-09T10:48:23.874Z</time></trkpt><trkpt lat="45.583937975734955" lon="9.260779619905103"><ele>168.42857142857144</ele><time>2026-04-09T10:48:28.875Z</time></trkpt><trkpt lat="45.58386356107025" lon="9.260805471349874"><ele>168.57142857142856</ele><time>2026-04-09T10:48:33.875Z</time></trkpt><trkpt lat="45.583795923955726" lon="9.260834262511079"><ele>168.71428571428572</ele><time>2026-04-09T10:48:38.875Z</time></trkpt><trkpt lat="45.58372734483584" lon="9.260856124239835"><ele>168.85714285714286</ele><time>2026-04-09T10:48:43.875Z</time></trkpt><trkpt lat="45.5836523339162" lon="9.260872084413482"><ele>169.0</ele><time>2026-04-09T10:48:48.875Z</time></trkpt><trkpt lat="45.58358891117698" lon="9.260889757805863"><ele>169.0</ele><time>2026-04-09T10:48:52.875Z</time></trkpt><trkpt lat="45.58351566051842" lon="9.260929275788067"><ele>169.0</ele><time>2026-04-09T10:48:57.875Z</time></trkpt><trkpt lat="45.58344910487159" lon="9.260945788327215"><ele>169.0</ele><time>2026-04-09T10:49:01.875Z</time></trkpt><trkpt lat="45.58337443140555" lon="9.260959069019677"><ele>169.0</ele><time>2026-04-09T10:49:06.874Z</time></trkpt><trkpt lat="45.583307654651" lon="9.26099346301463"><ele>169.0</ele><time>2026-04-09T10:49:11.874Z</time></trkpt><trkpt lat="45.58324095757896" lon="9.26103091348083"><ele>169.0</ele><time>2026-04-09T10:49:16.874Z</time></trkpt><trkpt lat="45.583174022994044" lon="9.261066567669396"><ele>169.0</ele><time>2026-04-09T10:49:21.874Z</time></trkpt><trkpt lat="45.5831152820047" lon="9.261121554053611"><ele>169.0</ele><time>2026-04-09T10:49:26.874Z</time></trkpt><trkpt lat="45.58306520110065" lon="9.261188254445521"><ele>169.0</ele><time>2026-04-09T10:49:31.874Z</time></trkpt><trkpt lat="45.58300377845343" lon="9.261229802228728"><ele>169.0</ele><time>2026-04-09T10:49:36.874Z</time></trkpt><trkpt lat="45.58293276132863" lon="9.261247483417641"><ele>169.0</ele><time>2026-04-09T10:49:41.874Z</time></trkpt><trkpt lat="45.582859991469775" lon="9.261245090547341"><ele>169.0</ele><time>2026-04-09T10:49:46.874Z</time></trkpt><trkpt lat="45.58278784605486" lon="9.261270172581188"><ele>169.0</ele><time>2026-04-09T10:49:52.873Z</time></trkpt><trkpt lat="45.582714638207335" lon="9.261296201529905"><ele>169.0</ele><time>2026-04-09T10:49:58.873Z</time></trkpt><trkpt lat="45.58265028244269" lon="9.261243832928779"><ele>169.14285714285714</ele><time>2026-04-09T10:50:03.873Z</time></trkpt><trkpt lat="45.58259646260456" lon="9.261192442223342"><ele>169.28571428571428</ele><time>2026-04-09T10:50:08.873Z</time></trkpt><trkpt lat="45.58256151960965" lon="9.26111684832056"><ele>169.42857142857144</ele><time>2026-04-09T10:50:13.873Z</time></trkpt><trkpt lat="45.58252292939486" lon="9.261038471088849"><ele>169.57142857142856</ele><time>2026-04-09T10:50:19.873Z</time></trkpt><trkpt lat="45.58251388855436" lon="9.26094142081859"><ele>169.7142857142857</ele><time>2026-04-09T10:50:25.873Z</time></trkpt><trkpt lat="45.58249912752696" lon="9.260853956255719"><ele>169.85714285714286</ele><time>2026-04-09T10:50:30.873Z</time></trkpt><trkpt lat="45.58248800015787" lon="9.260764715554648"><ele>170.0</ele><time>2026-04-09T10:50:35.873Z</time></trkpt><trkpt lat="45.58245626399969" lon="9.26066936440484"><ele>169.85714285714286</ele><time>2026-04-09T10:50:41.873Z</time></trkpt><trkpt lat="45.582426453832085" lon="9.260587463677398"><ele>169.7142857142857</ele><time>2026-04-09T10:50:46.874Z</time></trkpt><trkpt lat="45.58239381782749" lon="9.260507282307582"><ele>169.57142857142856</ele><time>2026-04-09T10:50:51.874Z</time></trkpt><trkpt lat="45.582360750391324" lon="9.26042366661164"><ele>169.42857142857144</ele><time>2026-04-09T10:50:56.874Z</time></trkpt><trkpt lat="45.582331068509355" lon="9.260333271256004"><ele>169.28571428571428</ele><time>2026-04-09T10:51:01.873Z</time></trkpt><trkpt lat="45.58230345247427" lon="9.260237085373715"><ele>169.14285714285714</ele><time>2026-04-09T10:51:06.873Z</time></trkpt><trkpt lat="45.58229255823376" lon="9.26014100354431"><ele>169.0</ele><time>2026-04-09T10:51:11.873Z</time></trkpt><trkpt lat="45.58230459033674" lon="9.260038981335626"><ele>169.0</ele><time>2026-04-09T10:51:16.873Z</time></trkpt><trkpt lat="45.582300544027184" lon="9.259937099573522"><ele>169.0</ele><time>2026-04-09T10:51:21.873Z</time></trkpt><trkpt lat="45.58228574866491" lon="9.259838009808496"><ele>169.0</ele><time>2026-04-09T10:51:26.873Z</time></trkpt><trkpt lat="45.58226494241495" lon="9.259748768017829"><ele>169.0</ele><time>2026-04-09T10:51:31.873Z</time></trkpt><trkpt lat="45.58225550033604" lon="9.2596463752546"><ele>169.0</ele><time>2026-04-09T10:51:36.873Z</time></trkpt><trkpt lat="45.58224134741533" lon="9.259549049929355"><ele>169.0</ele><time>2026-04-09T10:51:41.873Z</time></trkpt><trkpt lat="45.58221412832347" lon="9.259461075162742"><ele>169.0</ele><time>2026-04-09T10:51:46.872Z</time></trkpt><trkpt lat="45.58214208339259" lon="9.259455216885218"><ele>169.0</ele><time>2026-04-09T10:51:50.872Z</time></trkpt><trkpt lat="45.582065289538065" lon="9.259492348639753"><ele>169.0</ele><time>2026-04-09T10:51:54.872Z</time></trkpt><trkpt lat="45.58199557671515" lon="9.25950116844667"><ele>169.0</ele><time>2026-04-09T10:51:58.872Z</time></trkpt><trkpt lat="45.58192965993444" lon="9.259510312890209"><ele>169.0</ele><time>2026-04-09T10:52:02.872Z</time></trkpt><trkpt lat="45.58187271474347" lon="9.259451085406788"><ele>169.0</ele><time>2026-04-09T10:52:07.872Z</time></trkpt><trkpt lat="45.581823012863715" lon="9.259393158698897"><ele>169.0</ele><time>2026-04-09T10:52:12.872Z</time></trkpt><trkpt lat="45.5817946681435" lon="9.259312838087421"><ele>169.0</ele><time>2026-04-09T10:52:17.872Z</time></trkpt><trkpt lat="45.58177922601716" lon="9.259217215926084"><ele>169.0</ele><time>2026-04-09T10:52:22.872Z</time></trkpt><trkpt lat="45.58173912653557" lon="9.259138691753867"><ele>169.0</ele><time>2026-04-09T10:52:27.872Z</time></trkpt><trkpt lat="45.58170881863119" lon="9.259059107675599"><ele>169.0</ele><time>2026-04-09T10:52:32.871Z</time></trkpt><trkpt lat="45.58167763062078" lon="9.25896079321089"><ele>169.0</ele><time>2026-04-09T10:52:38.873Z</time></trkpt><trkpt lat="45.58163867776408" lon="9.258875897790197"><ele>169.0</ele><time>2026-04-09T10:52:43.872Z</time></trkpt><trkpt lat="45.5816007922938" lon="9.25879683145905"><ele>169.0</ele><time>2026-04-09T10:52:48.872Z</time></trkpt><trkpt lat="45.581573451610545" lon="9.25870550266971"><ele>169.0</ele><time>2026-04-09T10:52:53.872Z</time></trkpt><trkpt lat="45.58155386486909" lon="9.258611290626943"><ele>168.83333333333334</ele><time>2026-04-09T10:52:58.872Z</time></trkpt><trkpt lat="45.58154833492234" lon="9.258506775598162"><ele>168.66666666666669</ele><time>2026-04-09T10:53:03.871Z</time></trkpt><trkpt lat="45.58151095633786" lon="9.258421418596095"><ele>168.5</ele><time>2026-04-09T10:53:09.871Z</time></trkpt><trkpt lat="45.58142790415991" lon="9.258444380159633"><ele>168.33333333333334</ele><time>2026-04-09T10:53:13.871Z</time></trkpt><trkpt lat="45.58136014548573" lon="9.258492609459104"><ele>168.16666666666666</ele><time>2026-04-09T10:53:18.871Z</time></trkpt><trkpt lat="45.581297325364126" lon="9.258555278133272"><ele>168.0</ele><time>2026-04-09T10:53:23.871Z</time></trkpt><trkpt lat="45.58123048325622" lon="9.258586495896242"><ele>168.0</ele><time>2026-04-09T10:53:30.871Z</time></trkpt><trkpt lat="45.58117296567836" lon="9.258630361755431"><ele>168.0</ele><time>2026-04-09T10:53:37.871Z</time></trkpt><trkpt lat="45.58110984611267" lon="9.258647317663852"><ele>168.0</ele><time>2026-04-09T10:53:46.87Z</time></trkpt><trkpt lat="45.581039224887775" lon="9.25866420619395"><ele>168.0</ele><time>2026-04-09T10:53:52.87Z</time></trkpt><trkpt lat="45.58098064068177" lon="9.25870898844377"><ele>168.0</ele><time>2026-04-09T10:53:55.87Z</time></trkpt><trkpt lat="45.58092161218808" lon="9.258749479412405"><ele>168.0</ele><time>2026-04-09T10:53:58.87Z</time></trkpt><trkpt lat="45.580858648367204" lon="9.258790351462356"><ele>168.0</ele><time>2026-04-09T10:54:02.87Z</time></trkpt><trkpt lat="45.58080120410328" lon="9.258839150020403"><ele>168.0</ele><time>2026-04-09T10:54:07.87Z</time></trkpt><trkpt lat="45.58072962668377" lon="9.258868593356283"><ele>168.0</ele><time>2026-04-09T10:54:13.87Z</time></trkpt><trkpt lat="45.580689399722864" lon="9.258787054670577"><ele>168.0</ele><time>2026-04-09T10:54:20.87Z</time></trkpt><trkpt lat="45.58066633458892" lon="9.258695301135274"><ele>168.0</ele><time>2026-04-09T10:54:26.87Z</time></trkpt><trkpt lat="45.58064277603864" lon="9.258600076347921"><ele>168.0</ele><time>2026-04-09T10:54:32.869Z</time></trkpt><trkpt lat="45.580610974888295" lon="9.258508358945656"><ele>168.0</ele><time>2026-04-09T10:54:38.869Z</time></trkpt><trkpt lat="45.580570296923895" lon="9.258425758079392"><ele>168.0</ele><time>2026-04-09T10:54:45.87Z</time></trkpt><trkpt lat="45.5805332712386" lon="9.258340116204995"><ele>168.0</ele><time>2026-04-09T10:54:53.871Z</time></trkpt><trkpt lat="45.58052733976713" lon="9.258244656942521"><ele>168.0</ele><time>2026-04-09T10:54:59.87Z</time></trkpt><trkpt lat="45.580501603654895" lon="9.258158650334419"><ele>168.0</ele><time>2026-04-09T10:55:04.87Z</time></trkpt><trkpt lat="45.58044704571124" lon="9.258090066037056"><ele>168.0</ele><time>2026-04-09T10:55:10.87Z</time></trkpt><trkpt lat="45.58041248783815" lon="9.258005555729081"><ele>168.0</ele><time>2026-04-09T10:55:15.87Z</time></trkpt><trkpt lat="45.58039251970692" lon="9.257912028337525"><ele>168.0</ele><time>2026-04-09T10:55:20.87Z</time></trkpt><trkpt lat="45.5803738264327" lon="9.257823933509705"><ele>168.0</ele><time>2026-04-09T10:55:24.869Z</time></trkpt><trkpt lat="45.58036545702137" lon="9.257734124799924"><ele>168.0</ele><time>2026-04-09T10:55:29.869Z</time></trkpt><trkpt lat="45.58036792441809" lon="9.257644211345"><ele>168.0</ele><time>2026-04-09T10:55:34.869Z</time></trkpt><trkpt lat="45.580345326957335" lon="9.25755309379599"><ele>168.0</ele><time>2026-04-09T10:55:39.869Z</time></trkpt><trkpt lat="45.580311616993065" lon="9.257468519250104"><ele>168.0</ele><time>2026-04-09T10:55:44.869Z</time></trkpt><trkpt lat="45.58028910639315" lon="9.257370293404128"><ele>168.0</ele><time>2026-04-09T10:55:50.869Z</time></trkpt><trkpt lat="45.58029106101262" lon="9.257278701899155"><ele>168.0</ele><time>2026-04-09T10:55:55.869Z</time></trkpt><trkpt lat="45.5802759331181" lon="9.257181285062538"><ele>168.0</ele><time>2026-04-09T10:56:00.869Z</time></trkpt><trkpt lat="45.58024362532002" lon="9.257094828002986"><ele>167.71428571428572</ele><time>2026-04-09T10:56:05.869Z</time></trkpt><trkpt lat="45.580188434431456" lon="9.257017374257401"><ele>167.42857142857144</ele><time>2026-04-09T10:56:13.868Z</time></trkpt><trkpt lat="45.580156474759335" lon="9.256933152805988"><ele>167.14285714285714</ele><time>2026-04-09T10:56:20.868Z</time></trkpt><trkpt lat="45.580137365034176" lon="9.256844707506515"><ele>166.85714285714286</ele><time>2026-04-09T10:56:24.868Z</time></trkpt><trkpt lat="45.5801299189942" lon="9.256747430334977"><ele>166.57142857142858</ele><time>2026-04-09T10:56:28.868Z</time></trkpt><trkpt lat="45.58011473845234" lon="9.256647817898276"><ele>166.28571428571428</ele><time>2026-04-09T10:56:33.868Z</time></trkpt><trkpt lat="45.58010390751318" lon="9.256555436049595"><ele>166.0</ele><time>2026-04-09T10:56:38.868Z</time></trkpt><trkpt lat="45.58006885908536" lon="9.256457982563228"><ele>166.42857142857142</ele><time>2026-04-09T10:56:44.868Z</time></trkpt><trkpt lat="45.580036032268715" lon="9.256361554677746"><ele>166.85714285714286</ele><time>2026-04-09T10:56:50.868Z</time></trkpt><trkpt lat="45.5799975878755" lon="9.256256050075649"><ele>167.28571428571428</ele><time>2026-04-09T10:56:55.868Z</time></trkpt><trkpt lat="45.58000144602097" lon="9.25616480341405"><ele>167.71428571428572</ele><time>2026-04-09T10:56:58.868Z</time></trkpt><trkpt lat="45.5800166259267" lon="9.256064987940624"><ele>168.14285714285714</ele><time>2026-04-09T10:57:02.868Z</time></trkpt><trkpt lat="45.58000123279925" lon="9.255976708748594"><ele>168.57142857142858</ele><time>2026-04-09T10:57:06.868Z</time></trkpt><trkpt lat="45.57997351295252" lon="9.255875347420401"><ele>169.0</ele><time>2026-04-09T10:57:11.868Z</time></trkpt><trkpt lat="45.57993221626277" lon="9.255790123080816"><ele>169.0</ele><time>2026-04-09T10:57:16.868Z</time></trkpt><trkpt lat="45.57989231930753" lon="9.255710791926418"><ele>169.0</ele><time>2026-04-09T10:57:21.868Z</time></trkpt><trkpt lat="45.57986789509053" lon="9.255619282372718"><ele>169.0</ele><time>2026-04-09T10:57:26.868Z</time></trkpt><trkpt lat="45.57981058436875" lon="9.255556782247005"><ele>169.0</ele><time>2026-04-09T10:57:31.867Z</time></trkpt><trkpt lat="45.57978585535652" lon="9.255461081015552"><ele>169.0</ele><time>2026-04-09T10:57:36.867Z</time></trkpt><trkpt lat="45.579781661244645" lon="9.255350872920113"><ele>169.0</ele><time>2026-04-09T10:57:41.867Z</time></trkpt><trkpt lat="45.57980436337819" lon="9.255262065687354"><ele>169.0</ele><time>2026-04-09T10:57:45.867Z</time></trkpt><trkpt lat="45.579846982101174" lon="9.255189391159096"><ele>168.71428571428572</ele><time>2026-04-09T10:57:49.867Z</time></trkpt><trkpt lat="45.57983398883633" lon="9.25508804153009"><ele>168.42857142857142</ele><time>2026-04-09T10:57:58.867Z</time></trkpt><trkpt lat="45.57981394590074" lon="9.25498845230763"><ele>168.14285714285714</ele><time>2026-04-09T10:58:05.867Z</time></trkpt><trkpt lat="45.57977873738314" lon="9.254882587341717"><ele>167.85714285714286</ele><time>2026-04-09T10:58:10.867Z</time></trkpt><trkpt lat="45.57974749449326" lon="9.254800274237477"><ele>167.57142857142858</ele><time>2026-04-09T10:58:14.866Z</time></trkpt><trkpt lat="45.57972274226458" lon="9.254704291968752"><ele>167.28571428571428</ele><time>2026-04-09T10:58:19.866Z</time></trkpt><trkpt lat="45.57966784822198" lon="9.254654524136713"><ele>167.0</ele><time>2026-04-09T10:58:24.866Z</time></trkpt><trkpt lat="45.57960846233207" lon="9.254609434021845"><ele>167.0</ele><time>2026-04-09T10:58:30.866Z</time></trkpt><trkpt lat="45.5795442901103" lon="9.254602759000548"><ele>167.0</ele><time>2026-04-09T10:58:36.866Z</time></trkpt><trkpt lat="45.57949026457628" lon="9.254649193967245"><ele>167.0</ele><time>2026-04-09T10:58:40.866Z</time></trkpt><trkpt lat="45.57942922296438" lon="9.25468662156434"><ele>167.0</ele><time>2026-04-09T10:58:45.866Z</time></trkpt><trkpt lat="45.57934706690264" lon="9.254742410793726"><ele>167.0</ele><time>2026-04-09T10:58:51.866Z</time></trkpt><trkpt lat="45.57929497581147" lon="9.25479320997344"><ele>167.0</ele><time>2026-04-09T10:58:55.866Z</time></trkpt><trkpt lat="45.57924441517299" lon="9.254873279217858"><ele>167.0</ele><time>2026-04-09T10:59:00.867Z</time></trkpt><trkpt lat="45.57929330367992" lon="9.254944037885112"><ele>167.0</ele><time>2026-04-09T10:59:12.866Z</time></trkpt></trkseg></trk></gpx>